<?xml version="1.0" encoding="UTF-8" standalone="no" ?>
<gpx xmlns="http://www.topografix.com/GPX/1/1" xmlns:xsi="http://www.w3.org/2001/XMLSchema-instance" xsi:schemaLocation="http://www.topografix.com/GPX/1/1 http://www.topografix.com/GPX/1/1/gpx.xsd" version="1.1" creator="VisuGPX - https://www.visugpx.com">
  <metadata>
    <name>RANDO DRAGON MALMONT</name>
    <desc><![CDATA[Randonnée de 15 km au départ du domaine viticole du Dragon avec une boucle sur le malmont]]></desc>
  </metadata>
  <trk>
    <name><![CDATA[Tracé actuel: 26 SEP 2015 09:56]]></name>
    <trkseg>
      <trkpt lat="43.55789" lon="6.43219">
        <ele>184.23</ele>
        <time>2015-09-26T07:56:50Z</time>
      </trkpt>
      <trkpt lat="43.5579" lon="6.4322">
        <ele>183.27</ele>
        <time>2015-09-26T07:57:18Z</time>
      </trkpt>
      <trkpt lat="43.55791" lon="6.43219">
        <ele>187.11</ele>
        <time>2015-09-26T07:57:27Z</time>
      </trkpt>
      <trkpt lat="43.55791" lon="6.43219">
        <ele>187.59</ele>
        <time>2015-09-26T07:57:29Z</time>
      </trkpt>
      <trkpt lat="43.55793" lon="6.43219">
        <ele>191.44</ele>
        <time>2015-09-26T07:57:34Z</time>
      </trkpt>
      <trkpt lat="43.55795" lon="6.43219">
        <ele>194.8</ele>
        <time>2015-09-26T07:57:38Z</time>
      </trkpt>
      <trkpt lat="43.55794" lon="6.43219">
        <ele>196.73</ele>
        <time>2015-09-26T07:57:40Z</time>
      </trkpt>
      <trkpt lat="43.55796" lon="6.43221">
        <ele>200.09</ele>
        <time>2015-09-26T07:57:46Z</time>
      </trkpt>
      <trkpt lat="43.55796" lon="6.4322">
        <ele>203.46</ele>
        <time>2015-09-26T07:57:51Z</time>
      </trkpt>
      <trkpt lat="43.55796" lon="6.4322">
        <ele>203.94</ele>
        <time>2015-09-26T07:57:52Z</time>
      </trkpt>
      <trkpt lat="43.55795" lon="6.43218">
        <ele>207.3</ele>
        <time>2015-09-26T07:57:58Z</time>
      </trkpt>
      <trkpt lat="43.55795" lon="6.43218">
        <ele>206.82</ele>
        <time>2015-09-26T07:57:59Z</time>
      </trkpt>
      <trkpt lat="43.55796" lon="6.43219">
        <ele>209.22</ele>
        <time>2015-09-26T07:58:05Z</time>
      </trkpt>
      <trkpt lat="43.55798" lon="6.4322">
        <ele>212.11</ele>
        <time>2015-09-26T07:58:11Z</time>
      </trkpt>
      <trkpt lat="43.55798" lon="6.43218">
        <ele>213.55</ele>
        <time>2015-09-26T07:58:14Z</time>
      </trkpt>
      <trkpt lat="43.55799" lon="6.43216">
        <ele>216.43</ele>
        <time>2015-09-26T07:58:22Z</time>
      </trkpt>
      <trkpt lat="43.558" lon="6.43219">
        <ele>219.8</ele>
        <time>2015-09-26T07:58:32Z</time>
      </trkpt>
      <trkpt lat="43.558" lon="6.43221">
        <ele>222.68</ele>
        <time>2015-09-26T07:58:45Z</time>
      </trkpt>
      <trkpt lat="43.55802" lon="6.43224">
        <ele>226.05</ele>
        <time>2015-09-26T07:58:55Z</time>
      </trkpt>
      <trkpt lat="43.55801" lon="6.43227">
        <ele>228.93</ele>
        <time>2015-09-26T07:59:06Z</time>
      </trkpt>
      <trkpt lat="43.55801" lon="6.43225">
        <ele>231.81</ele>
        <time>2015-09-26T07:59:37Z</time>
      </trkpt>
      <trkpt lat="43.55802" lon="6.43227">
        <ele>231.81</ele>
        <time>2015-09-26T07:59:54Z</time>
      </trkpt>
      <trkpt lat="43.55803" lon="6.4323">
        <ele>231.81</ele>
        <time>2015-09-26T08:00:24Z</time>
      </trkpt>
      <trkpt lat="43.55804" lon="6.4323">
        <ele>231.81</ele>
        <time>2015-09-26T08:00:56Z</time>
      </trkpt>
      <trkpt lat="43.55801" lon="6.43242">
        <ele>232.78</ele>
        <time>2015-09-26T08:01:14Z</time>
      </trkpt>
      <trkpt lat="43.55802" lon="6.43243">
        <ele>232.3</ele>
        <time>2015-09-26T08:01:32Z</time>
      </trkpt>
      <trkpt lat="43.55802" lon="6.43244">
        <ele>232.78</ele>
        <time>2015-09-26T08:02:03Z</time>
      </trkpt>
      <trkpt lat="43.55801" lon="6.43245">
        <ele>232.78</ele>
        <time>2015-09-26T08:02:35Z</time>
      </trkpt>
      <trkpt lat="43.55801" lon="6.43246">
        <ele>232.78</ele>
        <time>2015-09-26T08:03:11Z</time>
      </trkpt>
      <trkpt lat="43.55802" lon="6.43246">
        <ele>232.78</ele>
        <time>2015-09-26T08:03:48Z</time>
      </trkpt>
      <trkpt lat="43.55802" lon="6.43247">
        <ele>232.3</ele>
        <time>2015-09-26T08:04:25Z</time>
      </trkpt>
      <trkpt lat="43.55802" lon="6.43247">
        <ele>232.78</ele>
        <time>2015-09-26T08:05:05Z</time>
      </trkpt>
      <trkpt lat="43.55801" lon="6.43247">
        <ele>232.78</ele>
        <time>2015-09-26T08:05:42Z</time>
      </trkpt>
      <trkpt lat="43.55801" lon="6.43246">
        <ele>232.78</ele>
        <time>2015-09-26T08:06:18Z</time>
      </trkpt>
      <trkpt lat="43.55801" lon="6.43246">
        <ele>232.78</ele>
        <time>2015-09-26T08:06:48Z</time>
      </trkpt>
      <trkpt lat="43.55802" lon="6.43246">
        <ele>232.3</ele>
        <time>2015-09-26T08:07:20Z</time>
      </trkpt>
      <trkpt lat="43.55802" lon="6.43247">
        <ele>232.78</ele>
        <time>2015-09-26T08:07:53Z</time>
      </trkpt>
      <trkpt lat="43.55802" lon="6.43247">
        <ele>232.78</ele>
        <time>2015-09-26T08:08:25Z</time>
      </trkpt>
      <trkpt lat="43.55802" lon="6.43247">
        <ele>232.78</ele>
        <time>2015-09-26T08:08:58Z</time>
      </trkpt>
      <trkpt lat="43.55797" lon="6.43261">
        <ele>233.74</ele>
        <time>2015-09-26T08:09:15Z</time>
      </trkpt>
      <trkpt lat="43.55799" lon="6.4327">
        <ele>234.7</ele>
        <time>2015-09-26T08:09:27Z</time>
      </trkpt>
      <trkpt lat="43.558" lon="6.43273">
        <ele>235.18</ele>
        <time>2015-09-26T08:09:30Z</time>
      </trkpt>
      <trkpt lat="43.55808" lon="6.43283">
        <ele>237.1</ele>
        <time>2015-09-26T08:09:45Z</time>
      </trkpt>
      <trkpt lat="43.55814" lon="6.43297">
        <ele>238.54</ele>
        <time>2015-09-26T08:09:58Z</time>
      </trkpt>
      <trkpt lat="43.55822" lon="6.43308">
        <ele>239.99</ele>
        <time>2015-09-26T08:10:10Z</time>
      </trkpt>
      <trkpt lat="43.55832" lon="6.43315">
        <ele>240.95</ele>
        <time>2015-09-26T08:10:21Z</time>
      </trkpt>
      <trkpt lat="43.55836" lon="6.43315">
        <ele>241.43</ele>
        <time>2015-09-26T08:10:25Z</time>
      </trkpt>
      <trkpt lat="43.55839" lon="6.43309">
        <ele>241.91</ele>
        <time>2015-09-26T08:10:30Z</time>
      </trkpt>
      <trkpt lat="43.5584" lon="6.43293">
        <ele>243.35</ele>
        <time>2015-09-26T08:10:44Z</time>
      </trkpt>
      <trkpt lat="43.55846" lon="6.43283">
        <ele>245.27</ele>
        <time>2015-09-26T08:10:58Z</time>
      </trkpt>
      <trkpt lat="43.55854" lon="6.43283">
        <ele>247.2</ele>
        <time>2015-09-26T08:11:09Z</time>
      </trkpt>
      <trkpt lat="43.55866" lon="6.43294">
        <ele>249.6</ele>
        <time>2015-09-26T08:11:26Z</time>
      </trkpt>
      <trkpt lat="43.55867" lon="6.43296">
        <ele>250.08</ele>
        <time>2015-09-26T08:11:29Z</time>
      </trkpt>
      <trkpt lat="43.5587" lon="6.43311">
        <ele>251.04</ele>
        <time>2015-09-26T08:11:44Z</time>
      </trkpt>
      <trkpt lat="43.55875" lon="6.43322">
        <ele>252</ele>
        <time>2015-09-26T08:11:54Z</time>
      </trkpt>
      <trkpt lat="43.55875" lon="6.43335">
        <ele>252.96</ele>
        <time>2015-09-26T08:12:05Z</time>
      </trkpt>
      <trkpt lat="43.55881" lon="6.43348">
        <ele>254.89</ele>
        <time>2015-09-26T08:12:18Z</time>
      </trkpt>
      <trkpt lat="43.55886" lon="6.43362">
        <ele>257.29</ele>
        <time>2015-09-26T08:12:31Z</time>
      </trkpt>
      <trkpt lat="43.55887" lon="6.43377">
        <ele>259.21</ele>
        <time>2015-09-26T08:12:45Z</time>
      </trkpt>
      <trkpt lat="43.55889" lon="6.43391">
        <ele>260.65</ele>
        <time>2015-09-26T08:12:59Z</time>
      </trkpt>
      <trkpt lat="43.55892" lon="6.43397">
        <ele>261.14</ele>
        <time>2015-09-26T08:13:05Z</time>
      </trkpt>
      <trkpt lat="43.55902" lon="6.43403">
        <ele>262.58</ele>
        <time>2015-09-26T08:13:19Z</time>
      </trkpt>
      <trkpt lat="43.55916" lon="6.43407">
        <ele>264.5</ele>
        <time>2015-09-26T08:13:33Z</time>
      </trkpt>
      <trkpt lat="43.55925" lon="6.43414">
        <ele>265.94</ele>
        <time>2015-09-26T08:13:47Z</time>
      </trkpt>
      <trkpt lat="43.55932" lon="6.43422">
        <ele>268.35</ele>
        <time>2015-09-26T08:14:02Z</time>
      </trkpt>
      <trkpt lat="43.55933" lon="6.4343">
        <ele>269.79</ele>
        <time>2015-09-26T08:14:12Z</time>
      </trkpt>
      <trkpt lat="43.55936" lon="6.43442">
        <ele>270.75</ele>
        <time>2015-09-26T08:14:24Z</time>
      </trkpt>
      <trkpt lat="43.5594" lon="6.43457">
        <ele>271.71</ele>
        <time>2015-09-26T08:14:37Z</time>
      </trkpt>
      <trkpt lat="43.55947" lon="6.43477">
        <ele>272.67</ele>
        <time>2015-09-26T08:14:52Z</time>
      </trkpt>
      <trkpt lat="43.55956" lon="6.43467">
        <ele>273.15</ele>
        <time>2015-09-26T08:15:06Z</time>
      </trkpt>
      <trkpt lat="43.55958" lon="6.43459">
        <ele>273.63</ele>
        <time>2015-09-26T08:15:13Z</time>
      </trkpt>
      <trkpt lat="43.55961" lon="6.43446">
        <ele>275.56</ele>
        <time>2015-09-26T08:15:27Z</time>
      </trkpt>
      <trkpt lat="43.55969" lon="6.43437">
        <ele>277.48</ele>
        <time>2015-09-26T08:15:41Z</time>
      </trkpt>
      <trkpt lat="43.55975" lon="6.43423">
        <ele>279.88</ele>
        <time>2015-09-26T08:15:56Z</time>
      </trkpt>
      <trkpt lat="43.55969" lon="6.43407">
        <ele>281.32</ele>
        <time>2015-09-26T08:16:11Z</time>
      </trkpt>
      <trkpt lat="43.55964" lon="6.43399">
        <ele>282.28</ele>
        <time>2015-09-26T08:16:20Z</time>
      </trkpt>
      <trkpt lat="43.55954" lon="6.43385">
        <ele>283.73</ele>
        <time>2015-09-26T08:16:37Z</time>
      </trkpt>
      <trkpt lat="43.55947" lon="6.43372">
        <ele>285.17</ele>
        <time>2015-09-26T08:16:51Z</time>
      </trkpt>
      <trkpt lat="43.55952" lon="6.43367">
        <ele>286.61</ele>
        <time>2015-09-26T08:17:09Z</time>
      </trkpt>
      <trkpt lat="43.55954" lon="6.4337">
        <ele>287.57</ele>
        <time>2015-09-26T08:17:24Z</time>
      </trkpt>
      <trkpt lat="43.55957" lon="6.43373">
        <ele>289.01</ele>
        <time>2015-09-26T08:17:39Z</time>
      </trkpt>
      <trkpt lat="43.55961" lon="6.43375">
        <ele>289.97</ele>
        <time>2015-09-26T08:17:51Z</time>
      </trkpt>
      <trkpt lat="43.55974" lon="6.43379">
        <ele>292.38</ele>
        <time>2015-09-26T08:18:06Z</time>
      </trkpt>
      <trkpt lat="43.55985" lon="6.43384">
        <ele>294.78</ele>
        <time>2015-09-26T08:18:23Z</time>
      </trkpt>
      <trkpt lat="43.55991" lon="6.43391">
        <ele>296.7</ele>
        <time>2015-09-26T08:18:38Z</time>
      </trkpt>
      <trkpt lat="43.55995" lon="6.43396">
        <ele>297.67</ele>
        <time>2015-09-26T08:18:48Z</time>
      </trkpt>
      <trkpt lat="43.56005" lon="6.43397">
        <ele>299.11</ele>
        <time>2015-09-26T08:19:02Z</time>
      </trkpt>
      <trkpt lat="43.56015" lon="6.434">
        <ele>300.55</ele>
        <time>2015-09-26T08:19:18Z</time>
      </trkpt>
      <trkpt lat="43.56029" lon="6.43401">
        <ele>301.99</ele>
        <time>2015-09-26T08:19:33Z</time>
      </trkpt>
      <trkpt lat="43.56043" lon="6.43396">
        <ele>301.99</ele>
        <time>2015-09-26T08:19:47Z</time>
      </trkpt>
      <trkpt lat="43.56053" lon="6.43388">
        <ele>302.47</ele>
        <time>2015-09-26T08:19:55Z</time>
      </trkpt>
      <trkpt lat="43.56066" lon="6.43371">
        <ele>302.95</ele>
        <time>2015-09-26T08:20:11Z</time>
      </trkpt>
      <trkpt lat="43.56071" lon="6.43353">
        <ele>304.39</ele>
        <time>2015-09-26T08:20:25Z</time>
      </trkpt>
      <trkpt lat="43.56072" lon="6.43346">
        <ele>304.88</ele>
        <time>2015-09-26T08:20:30Z</time>
      </trkpt>
      <trkpt lat="43.56072" lon="6.43322">
        <ele>307.28</ele>
        <time>2015-09-26T08:20:46Z</time>
      </trkpt>
      <trkpt lat="43.56073" lon="6.4332">
        <ele>307.76</ele>
        <time>2015-09-26T08:20:48Z</time>
      </trkpt>
      <trkpt lat="43.56078" lon="6.43311">
        <ele>309.68</ele>
        <time>2015-09-26T08:21:04Z</time>
      </trkpt>
      <trkpt lat="43.56077" lon="6.43328">
        <ele>310.16</ele>
        <time>2015-09-26T08:21:19Z</time>
      </trkpt>
      <trkpt lat="43.56079" lon="6.43344">
        <ele>310.16</ele>
        <time>2015-09-26T08:21:33Z</time>
      </trkpt>
      <trkpt lat="43.5608" lon="6.43356">
        <ele>311.6</ele>
        <time>2015-09-26T08:21:43Z</time>
      </trkpt>
      <trkpt lat="43.56081" lon="6.4337">
        <ele>313.53</ele>
        <time>2015-09-26T08:21:56Z</time>
      </trkpt>
      <trkpt lat="43.56084" lon="6.43385">
        <ele>316.41</ele>
        <time>2015-09-26T08:22:06Z</time>
      </trkpt>
      <trkpt lat="43.5608" lon="6.43393">
        <ele>315.45</ele>
        <time>2015-09-26T08:22:12Z</time>
      </trkpt>
      <trkpt lat="43.56081" lon="6.43411">
        <ele>315.93</ele>
        <time>2015-09-26T08:22:25Z</time>
      </trkpt>
      <trkpt lat="43.5608" lon="6.43415">
        <ele>315.45</ele>
        <time>2015-09-26T08:22:28Z</time>
      </trkpt>
      <trkpt lat="43.56082" lon="6.43431">
        <ele>315.45</ele>
        <time>2015-09-26T08:22:39Z</time>
      </trkpt>
      <trkpt lat="43.56086" lon="6.43449">
        <ele>316.41</ele>
        <time>2015-09-26T08:22:54Z</time>
      </trkpt>
      <trkpt lat="43.56088" lon="6.43452">
        <ele>316.41</ele>
        <time>2015-09-26T08:22:58Z</time>
      </trkpt>
      <trkpt lat="43.56089" lon="6.43455">
        <ele>316.41</ele>
        <time>2015-09-26T08:23:00Z</time>
      </trkpt>
      <trkpt lat="43.5609" lon="6.43461">
        <ele>316.41</ele>
        <time>2015-09-26T08:23:04Z</time>
      </trkpt>
      <trkpt lat="43.56095" lon="6.43478">
        <ele>316.89</ele>
        <time>2015-09-26T08:23:18Z</time>
      </trkpt>
      <trkpt lat="43.56106" lon="6.43493">
        <ele>317.37</ele>
        <time>2015-09-26T08:23:33Z</time>
      </trkpt>
      <trkpt lat="43.5612" lon="6.43498">
        <ele>318.33</ele>
        <time>2015-09-26T08:23:48Z</time>
      </trkpt>
      <trkpt lat="43.56129" lon="6.43499">
        <ele>318.81</ele>
        <time>2015-09-26T08:23:57Z</time>
      </trkpt>
      <trkpt lat="43.56134" lon="6.43499">
        <ele>319.3</ele>
        <time>2015-09-26T08:24:02Z</time>
      </trkpt>
      <trkpt lat="43.56144" lon="6.435">
        <ele>320.26</ele>
        <time>2015-09-26T08:24:15Z</time>
      </trkpt>
      <trkpt lat="43.56155" lon="6.43503">
        <ele>321.22</ele>
        <time>2015-09-26T08:24:31Z</time>
      </trkpt>
      <trkpt lat="43.56168" lon="6.435">
        <ele>322.66</ele>
        <time>2015-09-26T08:24:45Z</time>
      </trkpt>
      <trkpt lat="43.56178" lon="6.43496">
        <ele>324.1</ele>
        <time>2015-09-26T08:24:58Z</time>
      </trkpt>
      <trkpt lat="43.56191" lon="6.43489">
        <ele>325.54</ele>
        <time>2015-09-26T08:25:14Z</time>
      </trkpt>
      <trkpt lat="43.56202" lon="6.43481">
        <ele>326.99</ele>
        <time>2015-09-26T08:25:29Z</time>
      </trkpt>
      <trkpt lat="43.5621" lon="6.43471">
        <ele>328.91</ele>
        <time>2015-09-26T08:25:45Z</time>
      </trkpt>
      <trkpt lat="43.5622" lon="6.43461">
        <ele>330.35</ele>
        <time>2015-09-26T08:26:01Z</time>
      </trkpt>
      <trkpt lat="43.56229" lon="6.43452">
        <ele>332.27</ele>
        <time>2015-09-26T08:26:14Z</time>
      </trkpt>
      <trkpt lat="43.56239" lon="6.43443">
        <ele>333.71</ele>
        <time>2015-09-26T08:26:29Z</time>
      </trkpt>
      <trkpt lat="43.5625" lon="6.43434">
        <ele>335.16</ele>
        <time>2015-09-26T08:26:45Z</time>
      </trkpt>
      <trkpt lat="43.56259" lon="6.43429">
        <ele>336.12</ele>
        <time>2015-09-26T08:26:56Z</time>
      </trkpt>
      <trkpt lat="43.56275" lon="6.43417">
        <ele>337.08</ele>
        <time>2015-09-26T08:27:13Z</time>
      </trkpt>
      <trkpt lat="43.56281" lon="6.43409">
        <ele>337.56</ele>
        <time>2015-09-26T08:27:21Z</time>
      </trkpt>
      <trkpt lat="43.56286" lon="6.434">
        <ele>338.04</ele>
        <time>2015-09-26T08:27:29Z</time>
      </trkpt>
      <trkpt lat="43.56294" lon="6.43385">
        <ele>338.04</ele>
        <time>2015-09-26T08:27:42Z</time>
      </trkpt>
      <trkpt lat="43.56302" lon="6.43369">
        <ele>338.52</ele>
        <time>2015-09-26T08:27:56Z</time>
      </trkpt>
      <trkpt lat="43.5631" lon="6.43351">
        <ele>339</ele>
        <time>2015-09-26T08:28:10Z</time>
      </trkpt>
      <trkpt lat="43.56315" lon="6.43331">
        <ele>339.48</ele>
        <time>2015-09-26T08:28:25Z</time>
      </trkpt>
      <trkpt lat="43.56317" lon="6.4331">
        <ele>340.44</ele>
        <time>2015-09-26T08:28:39Z</time>
      </trkpt>
      <trkpt lat="43.56316" lon="6.43301">
        <ele>340.44</ele>
        <time>2015-09-26T08:28:46Z</time>
      </trkpt>
      <trkpt lat="43.5631" lon="6.43276">
        <ele>341.89</ele>
        <time>2015-09-26T08:29:02Z</time>
      </trkpt>
      <trkpt lat="43.56309" lon="6.43259">
        <ele>342.85</ele>
        <time>2015-09-26T08:29:17Z</time>
      </trkpt>
      <trkpt lat="43.56309" lon="6.43258">
        <ele>343.33</ele>
        <time>2015-09-26T08:29:33Z</time>
      </trkpt>
      <trkpt lat="43.56308" lon="6.43259">
        <ele>342.85</ele>
        <time>2015-09-26T08:30:00Z</time>
      </trkpt>
      <trkpt lat="43.56308" lon="6.43259">
        <ele>343.33</ele>
        <time>2015-09-26T08:30:22Z</time>
      </trkpt>
      <trkpt lat="43.56308" lon="6.43259">
        <ele>343.33</ele>
        <time>2015-09-26T08:30:45Z</time>
      </trkpt>
      <trkpt lat="43.56307" lon="6.43259">
        <ele>342.85</ele>
        <time>2015-09-26T08:31:06Z</time>
      </trkpt>
      <trkpt lat="43.56307" lon="6.43257">
        <ele>343.33</ele>
        <time>2015-09-26T08:31:25Z</time>
      </trkpt>
      <trkpt lat="43.56306" lon="6.43257">
        <ele>343.33</ele>
        <time>2015-09-26T08:31:44Z</time>
      </trkpt>
      <trkpt lat="43.56305" lon="6.43255">
        <ele>343.33</ele>
        <time>2015-09-26T08:32:04Z</time>
      </trkpt>
      <trkpt lat="43.56305" lon="6.43255">
        <ele>343.33</ele>
        <time>2015-09-26T08:32:34Z</time>
      </trkpt>
      <trkpt lat="43.56306" lon="6.43256">
        <ele>343.33</ele>
        <time>2015-09-26T08:32:35Z</time>
      </trkpt>
      <trkpt lat="43.5631" lon="6.43258">
        <ele>343.33</ele>
        <time>2015-09-26T08:32:39Z</time>
      </trkpt>
      <trkpt lat="43.56314" lon="6.43263">
        <ele>343.81</ele>
        <time>2015-09-26T08:32:45Z</time>
      </trkpt>
      <trkpt lat="43.56318" lon="6.4327">
        <ele>345.25</ele>
        <time>2015-09-26T08:32:53Z</time>
      </trkpt>
      <trkpt lat="43.56327" lon="6.43282">
        <ele>346.69</ele>
        <time>2015-09-26T08:33:06Z</time>
      </trkpt>
      <trkpt lat="43.56331" lon="6.43287">
        <ele>347.65</ele>
        <time>2015-09-26T08:33:12Z</time>
      </trkpt>
      <trkpt lat="43.56333" lon="6.43293">
        <ele>348.13</ele>
        <time>2015-09-26T08:33:17Z</time>
      </trkpt>
      <trkpt lat="43.5634" lon="6.43306">
        <ele>350.06</ele>
        <time>2015-09-26T08:33:30Z</time>
      </trkpt>
      <trkpt lat="43.56344" lon="6.4332">
        <ele>351.98</ele>
        <time>2015-09-26T08:33:43Z</time>
      </trkpt>
      <trkpt lat="43.56348" lon="6.43334">
        <ele>353.42</ele>
        <time>2015-09-26T08:33:55Z</time>
      </trkpt>
      <trkpt lat="43.56349" lon="6.4334">
        <ele>353.42</ele>
        <time>2015-09-26T08:33:59Z</time>
      </trkpt>
      <trkpt lat="43.56349" lon="6.43344">
        <ele>353.9</ele>
        <time>2015-09-26T08:34:02Z</time>
      </trkpt>
      <trkpt lat="43.56352" lon="6.43363">
        <ele>354.38</ele>
        <time>2015-09-26T08:34:16Z</time>
      </trkpt>
      <trkpt lat="43.56354" lon="6.43381">
        <ele>355.83</ele>
        <time>2015-09-26T08:34:30Z</time>
      </trkpt>
      <trkpt lat="43.56357" lon="6.43394">
        <ele>357.27</ele>
        <time>2015-09-26T08:34:41Z</time>
      </trkpt>
      <trkpt lat="43.5636" lon="6.43401">
        <ele>358.23</ele>
        <time>2015-09-26T08:34:48Z</time>
      </trkpt>
      <trkpt lat="43.56362" lon="6.43403">
        <ele>358.71</ele>
        <time>2015-09-26T08:34:51Z</time>
      </trkpt>
      <trkpt lat="43.56364" lon="6.43405">
        <ele>358.71</ele>
        <time>2015-09-26T08:34:53Z</time>
      </trkpt>
      <trkpt lat="43.56375" lon="6.43399">
        <ele>360.63</ele>
        <time>2015-09-26T08:35:06Z</time>
      </trkpt>
      <trkpt lat="43.56379" lon="6.43397">
        <ele>361.11</ele>
        <time>2015-09-26T08:35:11Z</time>
      </trkpt>
      <trkpt lat="43.56382" lon="6.43395">
        <ele>361.59</ele>
        <time>2015-09-26T08:35:14Z</time>
      </trkpt>
      <trkpt lat="43.56384" lon="6.43392">
        <ele>362.07</ele>
        <time>2015-09-26T08:35:19Z</time>
      </trkpt>
      <trkpt lat="43.56385" lon="6.43389">
        <ele>362.55</ele>
        <time>2015-09-26T08:35:22Z</time>
      </trkpt>
      <trkpt lat="43.56393" lon="6.4338">
        <ele>363.52</ele>
        <time>2015-09-26T08:35:35Z</time>
      </trkpt>
      <trkpt lat="43.56401" lon="6.43372">
        <ele>365.44</ele>
        <time>2015-09-26T08:35:48Z</time>
      </trkpt>
      <trkpt lat="43.56404" lon="6.43372">
        <ele>365.92</ele>
        <time>2015-09-26T08:35:52Z</time>
      </trkpt>
      <trkpt lat="43.56416" lon="6.4338">
        <ele>367.36</ele>
        <time>2015-09-26T08:36:08Z</time>
      </trkpt>
      <trkpt lat="43.56416" lon="6.4338">
        <ele>366.88</ele>
        <time>2015-09-26T08:36:28Z</time>
      </trkpt>
      <trkpt lat="43.56416" lon="6.4338">
        <ele>366.88</ele>
        <time>2015-09-26T08:36:50Z</time>
      </trkpt>
      <trkpt lat="43.56417" lon="6.4338">
        <ele>366.88</ele>
        <time>2015-09-26T08:37:08Z</time>
      </trkpt>
      <trkpt lat="43.56418" lon="6.43381">
        <ele>366.88</ele>
        <time>2015-09-26T08:37:15Z</time>
      </trkpt>
      <trkpt lat="43.56422" lon="6.43383">
        <ele>366.88</ele>
        <time>2015-09-26T08:37:19Z</time>
      </trkpt>
      <trkpt lat="43.56438" lon="6.43391">
        <ele>367.36</ele>
        <time>2015-09-26T08:37:35Z</time>
      </trkpt>
      <trkpt lat="43.56441" lon="6.43393">
        <ele>367.84</ele>
        <time>2015-09-26T08:37:38Z</time>
      </trkpt>
      <trkpt lat="43.56454" lon="6.43402">
        <ele>368.32</ele>
        <time>2015-09-26T08:37:52Z</time>
      </trkpt>
      <trkpt lat="43.56468" lon="6.43406">
        <ele>369.28</ele>
        <time>2015-09-26T08:38:05Z</time>
      </trkpt>
      <trkpt lat="43.56471" lon="6.43404">
        <ele>369.28</ele>
        <time>2015-09-26T08:38:09Z</time>
      </trkpt>
      <trkpt lat="43.56473" lon="6.434">
        <ele>368.8</ele>
        <time>2015-09-26T08:38:12Z</time>
      </trkpt>
      <trkpt lat="43.56474" lon="6.43378">
        <ele>366.88</ele>
        <time>2015-09-26T08:38:28Z</time>
      </trkpt>
      <trkpt lat="43.56474" lon="6.43376">
        <ele>366.88</ele>
        <time>2015-09-26T08:38:30Z</time>
      </trkpt>
      <trkpt lat="43.56472" lon="6.43362">
        <ele>365.44</ele>
        <time>2015-09-26T08:38:40Z</time>
      </trkpt>
      <trkpt lat="43.56471" lon="6.43355">
        <ele>364.96</ele>
        <time>2015-09-26T08:38:45Z</time>
      </trkpt>
      <trkpt lat="43.56473" lon="6.43347">
        <ele>364</ele>
        <time>2015-09-26T08:38:51Z</time>
      </trkpt>
      <trkpt lat="43.56475" lon="6.43331">
        <ele>362.55</ele>
        <time>2015-09-26T08:39:04Z</time>
      </trkpt>
      <trkpt lat="43.56478" lon="6.43328">
        <ele>362.55</ele>
        <time>2015-09-26T08:39:08Z</time>
      </trkpt>
      <trkpt lat="43.56492" lon="6.4333">
        <ele>362.07</ele>
        <time>2015-09-26T08:39:22Z</time>
      </trkpt>
      <trkpt lat="43.56509" lon="6.43329">
        <ele>362.07</ele>
        <time>2015-09-26T08:39:37Z</time>
      </trkpt>
      <trkpt lat="43.56517" lon="6.43329">
        <ele>362.07</ele>
        <time>2015-09-26T08:39:45Z</time>
      </trkpt>
      <trkpt lat="43.56532" lon="6.43327">
        <ele>363.04</ele>
        <time>2015-09-26T08:40:00Z</time>
      </trkpt>
      <trkpt lat="43.56544" lon="6.43323">
        <ele>363.52</ele>
        <time>2015-09-26T08:40:11Z</time>
      </trkpt>
      <trkpt lat="43.56547" lon="6.43322">
        <ele>363.52</ele>
        <time>2015-09-26T08:40:14Z</time>
      </trkpt>
      <trkpt lat="43.56559" lon="6.43312">
        <ele>364.48</ele>
        <time>2015-09-26T08:40:27Z</time>
      </trkpt>
      <trkpt lat="43.56568" lon="6.43305">
        <ele>365.44</ele>
        <time>2015-09-26T08:40:38Z</time>
      </trkpt>
      <trkpt lat="43.56577" lon="6.43303">
        <ele>365.44</ele>
        <time>2015-09-26T08:40:47Z</time>
      </trkpt>
      <trkpt lat="43.56579" lon="6.43303">
        <ele>365.44</ele>
        <time>2015-09-26T08:40:49Z</time>
      </trkpt>
      <trkpt lat="43.5659" lon="6.43301">
        <ele>365.92</ele>
        <time>2015-09-26T08:41:02Z</time>
      </trkpt>
      <trkpt lat="43.56606" lon="6.43294">
        <ele>366.88</ele>
        <time>2015-09-26T08:41:18Z</time>
      </trkpt>
      <trkpt lat="43.56612" lon="6.43291">
        <ele>367.84</ele>
        <time>2015-09-26T08:41:26Z</time>
      </trkpt>
      <trkpt lat="43.56622" lon="6.43287">
        <ele>369.76</ele>
        <time>2015-09-26T08:41:40Z</time>
      </trkpt>
      <trkpt lat="43.56634" lon="6.43291">
        <ele>371.69</ele>
        <time>2015-09-26T08:41:57Z</time>
      </trkpt>
      <trkpt lat="43.56644" lon="6.43296">
        <ele>373.61</ele>
        <time>2015-09-26T08:42:12Z</time>
      </trkpt>
      <trkpt lat="43.56657" lon="6.43298">
        <ele>375.53</ele>
        <time>2015-09-26T08:42:27Z</time>
      </trkpt>
      <trkpt lat="43.56668" lon="6.43299">
        <ele>376.97</ele>
        <time>2015-09-26T08:42:43Z</time>
      </trkpt>
      <trkpt lat="43.5668" lon="6.43299">
        <ele>378.42</ele>
        <time>2015-09-26T08:42:58Z</time>
      </trkpt>
      <trkpt lat="43.56681" lon="6.433">
        <ele>378.42</ele>
        <time>2015-09-26T08:42:59Z</time>
      </trkpt>
      <trkpt lat="43.56687" lon="6.43299">
        <ele>378.9</ele>
        <time>2015-09-26T08:43:14Z</time>
      </trkpt>
      <trkpt lat="43.56686" lon="6.43296">
        <ele>378.9</ele>
        <time>2015-09-26T08:43:32Z</time>
      </trkpt>
      <trkpt lat="43.56686" lon="6.43296">
        <ele>378.9</ele>
        <time>2015-09-26T08:43:56Z</time>
      </trkpt>
      <trkpt lat="43.56691" lon="6.43297">
        <ele>379.86</ele>
        <time>2015-09-26T08:44:09Z</time>
      </trkpt>
      <trkpt lat="43.56691" lon="6.43296">
        <ele>378.9</ele>
        <time>2015-09-26T08:44:23Z</time>
      </trkpt>
      <trkpt lat="43.56686" lon="6.43297">
        <ele>378.9</ele>
        <time>2015-09-26T08:44:38Z</time>
      </trkpt>
      <trkpt lat="43.56687" lon="6.43295">
        <ele>378.9</ele>
        <time>2015-09-26T08:44:54Z</time>
      </trkpt>
      <trkpt lat="43.56686" lon="6.43295">
        <ele>378.9</ele>
        <time>2015-09-26T08:45:22Z</time>
      </trkpt>
      <trkpt lat="43.56686" lon="6.43296">
        <ele>378.9</ele>
        <time>2015-09-26T08:45:49Z</time>
      </trkpt>
      <trkpt lat="43.56686" lon="6.43296">
        <ele>378.9</ele>
        <time>2015-09-26T08:46:19Z</time>
      </trkpt>
      <trkpt lat="43.56686" lon="6.43296">
        <ele>378.9</ele>
        <time>2015-09-26T08:46:55Z</time>
      </trkpt>
      <trkpt lat="43.56685" lon="6.43296">
        <ele>378.9</ele>
        <time>2015-09-26T08:47:27Z</time>
      </trkpt>
      <trkpt lat="43.56684" lon="6.43299">
        <ele>378.9</ele>
        <time>2015-09-26T08:47:52Z</time>
      </trkpt>
      <trkpt lat="43.56685" lon="6.433">
        <ele>378.9</ele>
        <time>2015-09-26T08:48:15Z</time>
      </trkpt>
      <trkpt lat="43.56684" lon="6.43299">
        <ele>378.9</ele>
        <time>2015-09-26T08:48:42Z</time>
      </trkpt>
      <trkpt lat="43.56684" lon="6.43299">
        <ele>378.9</ele>
        <time>2015-09-26T08:49:12Z</time>
      </trkpt>
      <trkpt lat="43.56683" lon="6.43298">
        <ele>378.9</ele>
        <time>2015-09-26T08:49:41Z</time>
      </trkpt>
      <trkpt lat="43.56686" lon="6.43296">
        <ele>378.9</ele>
        <time>2015-09-26T08:50:02Z</time>
      </trkpt>
      <trkpt lat="43.56685" lon="6.43297">
        <ele>378.9</ele>
        <time>2015-09-26T08:50:28Z</time>
      </trkpt>
      <trkpt lat="43.56684" lon="6.43297">
        <ele>378.9</ele>
        <time>2015-09-26T08:50:53Z</time>
      </trkpt>
      <trkpt lat="43.56685" lon="6.43296">
        <ele>378.9</ele>
        <time>2015-09-26T08:51:26Z</time>
      </trkpt>
      <trkpt lat="43.56685" lon="6.43295">
        <ele>378.9</ele>
        <time>2015-09-26T08:51:44Z</time>
      </trkpt>
      <trkpt lat="43.56685" lon="6.43295">
        <ele>379.86</ele>
        <time>2015-09-26T08:52:04Z</time>
      </trkpt>
      <trkpt lat="43.56685" lon="6.43296">
        <ele>381.3</ele>
        <time>2015-09-26T08:52:27Z</time>
      </trkpt>
      <trkpt lat="43.56685" lon="6.43296">
        <ele>376.97</ele>
        <time>2015-09-26T08:52:31Z</time>
      </trkpt>
      <trkpt lat="43.56685" lon="6.43296">
        <ele>381.3</ele>
        <time>2015-09-26T08:52:32Z</time>
      </trkpt>
      <trkpt lat="43.56686" lon="6.43297">
        <ele>379.38</ele>
        <time>2015-09-26T08:53:04Z</time>
      </trkpt>
      <trkpt lat="43.56686" lon="6.43296">
        <ele>378.9</ele>
        <time>2015-09-26T08:53:17Z</time>
      </trkpt>
      <trkpt lat="43.56683" lon="6.43301">
        <ele>378.9</ele>
        <time>2015-09-26T08:53:30Z</time>
      </trkpt>
      <trkpt lat="43.56678" lon="6.43301">
        <ele>379.38</ele>
        <time>2015-09-26T08:53:35Z</time>
      </trkpt>
      <trkpt lat="43.56664" lon="6.43305">
        <ele>380.82</ele>
        <time>2015-09-26T08:53:51Z</time>
      </trkpt>
      <trkpt lat="43.56659" lon="6.43308">
        <ele>380.82</ele>
        <time>2015-09-26T08:53:56Z</time>
      </trkpt>
      <trkpt lat="43.5665" lon="6.43314">
        <ele>382.26</ele>
        <time>2015-09-26T08:54:07Z</time>
      </trkpt>
      <trkpt lat="43.56639" lon="6.43329">
        <ele>384.18</ele>
        <time>2015-09-26T08:54:22Z</time>
      </trkpt>
      <trkpt lat="43.56632" lon="6.43343">
        <ele>385.63</ele>
        <time>2015-09-26T08:54:35Z</time>
      </trkpt>
      <trkpt lat="43.56629" lon="6.43356">
        <ele>386.11</ele>
        <time>2015-09-26T08:54:46Z</time>
      </trkpt>
      <trkpt lat="43.56624" lon="6.43374">
        <ele>387.07</ele>
        <time>2015-09-26T08:55:00Z</time>
      </trkpt>
      <trkpt lat="43.56621" lon="6.43383">
        <ele>388.03</ele>
        <time>2015-09-26T08:55:07Z</time>
      </trkpt>
      <trkpt lat="43.56617" lon="6.43393">
        <ele>388.99</ele>
        <time>2015-09-26T08:55:16Z</time>
      </trkpt>
      <trkpt lat="43.56615" lon="6.43407">
        <ele>390.43</ele>
        <time>2015-09-26T08:55:30Z</time>
      </trkpt>
      <trkpt lat="43.56616" lon="6.43413">
        <ele>390.43</ele>
        <time>2015-09-26T08:55:35Z</time>
      </trkpt>
      <trkpt lat="43.56614" lon="6.43425">
        <ele>391.39</ele>
        <time>2015-09-26T08:55:46Z</time>
      </trkpt>
      <trkpt lat="43.56606" lon="6.43439">
        <ele>392.84</ele>
        <time>2015-09-26T08:56:00Z</time>
      </trkpt>
      <trkpt lat="43.566" lon="6.43448">
        <ele>394.28</ele>
        <time>2015-09-26T08:56:10Z</time>
      </trkpt>
      <trkpt lat="43.56598" lon="6.43452">
        <ele>393.8</ele>
        <time>2015-09-26T08:56:14Z</time>
      </trkpt>
      <trkpt lat="43.56594" lon="6.43457">
        <ele>394.76</ele>
        <time>2015-09-26T08:56:20Z</time>
      </trkpt>
      <trkpt lat="43.56591" lon="6.43459">
        <ele>395.24</ele>
        <time>2015-09-26T08:56:23Z</time>
      </trkpt>
      <trkpt lat="43.56584" lon="6.43471">
        <ele>396.2</ele>
        <time>2015-09-26T08:56:36Z</time>
      </trkpt>
      <trkpt lat="43.56577" lon="6.43491">
        <ele>397.64</ele>
        <time>2015-09-26T08:56:51Z</time>
      </trkpt>
      <trkpt lat="43.56574" lon="6.43508">
        <ele>399.08</ele>
        <time>2015-09-26T08:57:04Z</time>
      </trkpt>
      <trkpt lat="43.56572" lon="6.43526">
        <ele>400.05</ele>
        <time>2015-09-26T08:57:16Z</time>
      </trkpt>
      <trkpt lat="43.56569" lon="6.43558">
        <ele>401.49</ele>
        <time>2015-09-26T08:57:32Z</time>
      </trkpt>
      <trkpt lat="43.56567" lon="6.4358">
        <ele>402.93</ele>
        <time>2015-09-26T08:57:48Z</time>
      </trkpt>
      <trkpt lat="43.56564" lon="6.43604">
        <ele>404.85</ele>
        <time>2015-09-26T08:58:04Z</time>
      </trkpt>
      <trkpt lat="43.56564" lon="6.43608">
        <ele>404.85</ele>
        <time>2015-09-26T08:58:07Z</time>
      </trkpt>
      <trkpt lat="43.56569" lon="6.43623">
        <ele>405.81</ele>
        <time>2015-09-26T08:58:20Z</time>
      </trkpt>
      <trkpt lat="43.56573" lon="6.4362">
        <ele>406.77</ele>
        <time>2015-09-26T08:58:26Z</time>
      </trkpt>
      <trkpt lat="43.56582" lon="6.43603">
        <ele>408.7</ele>
        <time>2015-09-26T08:58:41Z</time>
      </trkpt>
      <trkpt lat="43.56583" lon="6.43602">
        <ele>408.7</ele>
        <time>2015-09-26T08:58:42Z</time>
      </trkpt>
      <trkpt lat="43.56591" lon="6.43587">
        <ele>410.14</ele>
        <time>2015-09-26T08:58:56Z</time>
      </trkpt>
      <trkpt lat="43.56597" lon="6.43569">
        <ele>411.58</ele>
        <time>2015-09-26T08:59:10Z</time>
      </trkpt>
      <trkpt lat="43.56604" lon="6.43555">
        <ele>412.54</ele>
        <time>2015-09-26T08:59:23Z</time>
      </trkpt>
      <trkpt lat="43.56615" lon="6.43539">
        <ele>414.47</ele>
        <time>2015-09-26T08:59:39Z</time>
      </trkpt>
      <trkpt lat="43.56624" lon="6.43526">
        <ele>415.43</ele>
        <time>2015-09-26T08:59:52Z</time>
      </trkpt>
      <trkpt lat="43.56634" lon="6.43512">
        <ele>417.35</ele>
        <time>2015-09-26T09:00:08Z</time>
      </trkpt>
      <trkpt lat="43.56643" lon="6.43495">
        <ele>418.79</ele>
        <time>2015-09-26T09:00:25Z</time>
      </trkpt>
      <trkpt lat="43.56647" lon="6.4349">
        <ele>419.27</ele>
        <time>2015-09-26T09:00:30Z</time>
      </trkpt>
      <trkpt lat="43.56657" lon="6.43476">
        <ele>420.23</ele>
        <time>2015-09-26T09:00:44Z</time>
      </trkpt>
      <trkpt lat="43.56669" lon="6.43466">
        <ele>421.68</ele>
        <time>2015-09-26T09:00:59Z</time>
      </trkpt>
      <trkpt lat="43.5668" lon="6.43464">
        <ele>422.64</ele>
        <time>2015-09-26T09:01:12Z</time>
      </trkpt>
      <trkpt lat="43.56692" lon="6.43466">
        <ele>425.04</ele>
        <time>2015-09-26T09:01:29Z</time>
      </trkpt>
      <trkpt lat="43.56698" lon="6.4347">
        <ele>426</ele>
        <time>2015-09-26T09:01:37Z</time>
      </trkpt>
      <trkpt lat="43.56712" lon="6.4348">
        <ele>427.92</ele>
        <time>2015-09-26T09:01:52Z</time>
      </trkpt>
      <trkpt lat="43.56723" lon="6.4349">
        <ele>428.89</ele>
        <time>2015-09-26T09:02:06Z</time>
      </trkpt>
      <trkpt lat="43.56734" lon="6.435">
        <ele>429.85</ele>
        <time>2015-09-26T09:02:19Z</time>
      </trkpt>
      <trkpt lat="43.56735" lon="6.43503">
        <ele>430.33</ele>
        <time>2015-09-26T09:02:21Z</time>
      </trkpt>
      <trkpt lat="43.56747" lon="6.43514">
        <ele>431.29</ele>
        <time>2015-09-26T09:02:34Z</time>
      </trkpt>
      <trkpt lat="43.56752" lon="6.43518">
        <ele>431.77</ele>
        <time>2015-09-26T09:02:41Z</time>
      </trkpt>
      <trkpt lat="43.5676" lon="6.43533">
        <ele>433.69</ele>
        <time>2015-09-26T09:02:55Z</time>
      </trkpt>
      <trkpt lat="43.5677" lon="6.4354">
        <ele>434.65</ele>
        <time>2015-09-26T09:03:07Z</time>
      </trkpt>
      <trkpt lat="43.56785" lon="6.43539">
        <ele>436.58</ele>
        <time>2015-09-26T09:03:21Z</time>
      </trkpt>
      <trkpt lat="43.56788" lon="6.43538">
        <ele>437.06</ele>
        <time>2015-09-26T09:03:24Z</time>
      </trkpt>
      <trkpt lat="43.56801" lon="6.43533">
        <ele>438.02</ele>
        <time>2015-09-26T09:03:37Z</time>
      </trkpt>
      <trkpt lat="43.5681" lon="6.4354">
        <ele>438.98</ele>
        <time>2015-09-26T09:03:50Z</time>
      </trkpt>
      <trkpt lat="43.56809" lon="6.43548">
        <ele>440.42</ele>
        <time>2015-09-26T09:04:01Z</time>
      </trkpt>
      <trkpt lat="43.56801" lon="6.4356">
        <ele>441.38</ele>
        <time>2015-09-26T09:04:14Z</time>
      </trkpt>
      <trkpt lat="43.568" lon="6.43562">
        <ele>441.38</ele>
        <time>2015-09-26T09:04:16Z</time>
      </trkpt>
      <trkpt lat="43.56798" lon="6.43564">
        <ele>441.38</ele>
        <time>2015-09-26T09:04:18Z</time>
      </trkpt>
      <trkpt lat="43.56795" lon="6.43568">
        <ele>441.38</ele>
        <time>2015-09-26T09:04:23Z</time>
      </trkpt>
      <trkpt lat="43.56784" lon="6.43582">
        <ele>442.34</ele>
        <time>2015-09-26T09:04:37Z</time>
      </trkpt>
      <trkpt lat="43.56776" lon="6.43593">
        <ele>443.79</ele>
        <time>2015-09-26T09:04:50Z</time>
      </trkpt>
      <trkpt lat="43.56769" lon="6.43598">
        <ele>444.75</ele>
        <time>2015-09-26T09:04:59Z</time>
      </trkpt>
      <trkpt lat="43.56761" lon="6.43608">
        <ele>446.19</ele>
        <time>2015-09-26T09:05:13Z</time>
      </trkpt>
      <trkpt lat="43.56754" lon="6.43619">
        <ele>448.11</ele>
        <time>2015-09-26T09:05:27Z</time>
      </trkpt>
      <trkpt lat="43.56745" lon="6.43627">
        <ele>449.55</ele>
        <time>2015-09-26T09:05:40Z</time>
      </trkpt>
      <trkpt lat="43.56743" lon="6.43629">
        <ele>450.03</ele>
        <time>2015-09-26T09:05:43Z</time>
      </trkpt>
      <trkpt lat="43.56735" lon="6.43634">
        <ele>451</ele>
        <time>2015-09-26T09:05:54Z</time>
      </trkpt>
      <trkpt lat="43.56723" lon="6.43644">
        <ele>451.96</ele>
        <time>2015-09-26T09:06:10Z</time>
      </trkpt>
      <trkpt lat="43.56715" lon="6.43648">
        <ele>452.92</ele>
        <time>2015-09-26T09:06:23Z</time>
      </trkpt>
      <trkpt lat="43.56714" lon="6.43655">
        <ele>453.4</ele>
        <time>2015-09-26T09:06:35Z</time>
      </trkpt>
      <trkpt lat="43.56716" lon="6.43656">
        <ele>453.4</ele>
        <time>2015-09-26T09:06:53Z</time>
      </trkpt>
      <trkpt lat="43.56716" lon="6.43657">
        <ele>453.4</ele>
        <time>2015-09-26T09:07:14Z</time>
      </trkpt>
      <trkpt lat="43.56717" lon="6.43658">
        <ele>453.4</ele>
        <time>2015-09-26T09:07:41Z</time>
      </trkpt>
      <trkpt lat="43.56719" lon="6.43659">
        <ele>453.4</ele>
        <time>2015-09-26T09:08:07Z</time>
      </trkpt>
      <trkpt lat="43.56718" lon="6.43659">
        <ele>453.88</ele>
        <time>2015-09-26T09:08:32Z</time>
      </trkpt>
      <trkpt lat="43.56719" lon="6.43658">
        <ele>452.92</ele>
        <time>2015-09-26T09:08:54Z</time>
      </trkpt>
      <trkpt lat="43.56719" lon="6.43658">
        <ele>453.4</ele>
        <time>2015-09-26T09:09:32Z</time>
      </trkpt>
      <trkpt lat="43.56718" lon="6.43658">
        <ele>452.92</ele>
        <time>2015-09-26T09:10:06Z</time>
      </trkpt>
      <trkpt lat="43.56718" lon="6.43659">
        <ele>453.4</ele>
        <time>2015-09-26T09:10:34Z</time>
      </trkpt>
      <trkpt lat="43.56718" lon="6.43658">
        <ele>452.92</ele>
        <time>2015-09-26T09:11:07Z</time>
      </trkpt>
      <trkpt lat="43.56719" lon="6.43658">
        <ele>452.92</ele>
        <time>2015-09-26T09:11:37Z</time>
      </trkpt>
      <trkpt lat="43.56719" lon="6.43659">
        <ele>453.4</ele>
        <time>2015-09-26T09:12:10Z</time>
      </trkpt>
      <trkpt lat="43.5672" lon="6.43659">
        <ele>453.4</ele>
        <time>2015-09-26T09:12:41Z</time>
      </trkpt>
      <trkpt lat="43.5672" lon="6.43658">
        <ele>453.4</ele>
        <time>2015-09-26T09:13:12Z</time>
      </trkpt>
      <trkpt lat="43.56716" lon="6.4367">
        <ele>454.36</ele>
        <time>2015-09-26T09:13:22Z</time>
      </trkpt>
      <trkpt lat="43.5672" lon="6.43679">
        <ele>455.8</ele>
        <time>2015-09-26T09:13:33Z</time>
      </trkpt>
      <trkpt lat="43.56723" lon="6.4368">
        <ele>456.28</ele>
        <time>2015-09-26T09:13:36Z</time>
      </trkpt>
      <trkpt lat="43.56735" lon="6.43684">
        <ele>457.72</ele>
        <time>2015-09-26T09:13:50Z</time>
      </trkpt>
      <trkpt lat="43.56743" lon="6.43686">
        <ele>458.69</ele>
        <time>2015-09-26T09:14:00Z</time>
      </trkpt>
      <trkpt lat="43.56748" lon="6.43686">
        <ele>459.17</ele>
        <time>2015-09-26T09:14:05Z</time>
      </trkpt>
      <trkpt lat="43.56765" lon="6.43691">
        <ele>461.09</ele>
        <time>2015-09-26T09:14:23Z</time>
      </trkpt>
      <trkpt lat="43.56776" lon="6.43698">
        <ele>462.05</ele>
        <time>2015-09-26T09:14:36Z</time>
      </trkpt>
      <trkpt lat="43.56789" lon="6.437">
        <ele>463.97</ele>
        <time>2015-09-26T09:14:49Z</time>
      </trkpt>
      <trkpt lat="43.56796" lon="6.43701">
        <ele>464.45</ele>
        <time>2015-09-26T09:14:56Z</time>
      </trkpt>
      <trkpt lat="43.5681" lon="6.43701">
        <ele>465.9</ele>
        <time>2015-09-26T09:15:08Z</time>
      </trkpt>
      <trkpt lat="43.56822" lon="6.43704">
        <ele>466.86</ele>
        <time>2015-09-26T09:15:21Z</time>
      </trkpt>
      <trkpt lat="43.56833" lon="6.43713">
        <ele>468.3</ele>
        <time>2015-09-26T09:15:33Z</time>
      </trkpt>
      <trkpt lat="43.56838" lon="6.43729">
        <ele>469.74</ele>
        <time>2015-09-26T09:15:46Z</time>
      </trkpt>
      <trkpt lat="43.56838" lon="6.43746">
        <ele>471.66</ele>
        <time>2015-09-26T09:15:59Z</time>
      </trkpt>
      <trkpt lat="43.56836" lon="6.43765">
        <ele>472.14</ele>
        <time>2015-09-26T09:16:12Z</time>
      </trkpt>
      <trkpt lat="43.56837" lon="6.43783">
        <ele>472.63</ele>
        <time>2015-09-26T09:16:24Z</time>
      </trkpt>
      <trkpt lat="43.56834" lon="6.43798">
        <ele>473.59</ele>
        <time>2015-09-26T09:16:36Z</time>
      </trkpt>
      <trkpt lat="43.56829" lon="6.43802">
        <ele>474.55</ele>
        <time>2015-09-26T09:16:43Z</time>
      </trkpt>
      <trkpt lat="43.56818" lon="6.43806">
        <ele>475.99</ele>
        <time>2015-09-26T09:16:56Z</time>
      </trkpt>
      <trkpt lat="43.56815" lon="6.43806">
        <ele>476.47</ele>
        <time>2015-09-26T09:17:01Z</time>
      </trkpt>
      <trkpt lat="43.56806" lon="6.43807">
        <ele>477.43</ele>
        <time>2015-09-26T09:17:16Z</time>
      </trkpt>
      <trkpt lat="43.56806" lon="6.43809">
        <ele>477.43</ele>
        <time>2015-09-26T09:17:33Z</time>
      </trkpt>
      <trkpt lat="43.56808" lon="6.43812">
        <ele>477.43</ele>
        <time>2015-09-26T09:17:55Z</time>
      </trkpt>
      <trkpt lat="43.56808" lon="6.43813">
        <ele>477.43</ele>
        <time>2015-09-26T09:18:16Z</time>
      </trkpt>
      <trkpt lat="43.56808" lon="6.43814">
        <ele>477.43</ele>
        <time>2015-09-26T09:18:57Z</time>
      </trkpt>
      <trkpt lat="43.56808" lon="6.43815">
        <ele>477.43</ele>
        <time>2015-09-26T09:19:19Z</time>
      </trkpt>
      <trkpt lat="43.56809" lon="6.43816">
        <ele>477.43</ele>
        <time>2015-09-26T09:19:39Z</time>
      </trkpt>
      <trkpt lat="43.56809" lon="6.43816">
        <ele>477.43</ele>
        <time>2015-09-26T09:20:11Z</time>
      </trkpt>
      <trkpt lat="43.56812" lon="6.43821">
        <ele>476.95</ele>
        <time>2015-09-26T09:20:20Z</time>
      </trkpt>
      <trkpt lat="43.56815" lon="6.43826">
        <ele>476.95</ele>
        <time>2015-09-26T09:20:25Z</time>
      </trkpt>
      <trkpt lat="43.56822" lon="6.43843">
        <ele>476.47</ele>
        <time>2015-09-26T09:20:39Z</time>
      </trkpt>
      <trkpt lat="43.56828" lon="6.43859">
        <ele>475.99</ele>
        <time>2015-09-26T09:20:54Z</time>
      </trkpt>
      <trkpt lat="43.56833" lon="6.43875">
        <ele>475.99</ele>
        <time>2015-09-26T09:21:11Z</time>
      </trkpt>
      <trkpt lat="43.56837" lon="6.43886">
        <ele>475.99</ele>
        <time>2015-09-26T09:21:22Z</time>
      </trkpt>
      <trkpt lat="43.56843" lon="6.43894">
        <ele>475.51</ele>
        <time>2015-09-26T09:21:30Z</time>
      </trkpt>
      <trkpt lat="43.56851" lon="6.43914">
        <ele>475.03</ele>
        <time>2015-09-26T09:21:48Z</time>
      </trkpt>
      <trkpt lat="43.56856" lon="6.43927">
        <ele>474.07</ele>
        <time>2015-09-26T09:21:58Z</time>
      </trkpt>
      <trkpt lat="43.56857" lon="6.43936">
        <ele>473.59</ele>
        <time>2015-09-26T09:22:07Z</time>
      </trkpt>
      <trkpt lat="43.56858" lon="6.43952">
        <ele>473.59</ele>
        <time>2015-09-26T09:22:24Z</time>
      </trkpt>
      <trkpt lat="43.56859" lon="6.43955">
        <ele>473.59</ele>
        <time>2015-09-26T09:22:26Z</time>
      </trkpt>
      <trkpt lat="43.56862" lon="6.43974">
        <ele>473.59</ele>
        <time>2015-09-26T09:22:42Z</time>
      </trkpt>
      <trkpt lat="43.56866" lon="6.43983">
        <ele>474.07</ele>
        <time>2015-09-26T09:22:50Z</time>
      </trkpt>
      <trkpt lat="43.56868" lon="6.43987">
        <ele>474.07</ele>
        <time>2015-09-26T09:22:53Z</time>
      </trkpt>
      <trkpt lat="43.56874" lon="6.44004">
        <ele>475.03</ele>
        <time>2015-09-26T09:23:07Z</time>
      </trkpt>
      <trkpt lat="43.56878" lon="6.44018">
        <ele>475.03</ele>
        <time>2015-09-26T09:23:23Z</time>
      </trkpt>
      <trkpt lat="43.56876" lon="6.44018">
        <ele>475.03</ele>
        <time>2015-09-26T09:23:52Z</time>
      </trkpt>
      <trkpt lat="43.56877" lon="6.44022">
        <ele>474.55</ele>
        <time>2015-09-26T09:24:09Z</time>
      </trkpt>
      <trkpt lat="43.56879" lon="6.44027">
        <ele>474.55</ele>
        <time>2015-09-26T09:24:14Z</time>
      </trkpt>
      <trkpt lat="43.56889" lon="6.44046">
        <ele>474.55</ele>
        <time>2015-09-26T09:24:29Z</time>
      </trkpt>
      <trkpt lat="43.56898" lon="6.44063">
        <ele>475.03</ele>
        <time>2015-09-26T09:24:42Z</time>
      </trkpt>
      <trkpt lat="43.56901" lon="6.44069">
        <ele>475.03</ele>
        <time>2015-09-26T09:24:46Z</time>
      </trkpt>
      <trkpt lat="43.56909" lon="6.44079">
        <ele>475.99</ele>
        <time>2015-09-26T09:24:55Z</time>
      </trkpt>
      <trkpt lat="43.56911" lon="6.44084">
        <ele>476.47</ele>
        <time>2015-09-26T09:24:59Z</time>
      </trkpt>
      <trkpt lat="43.56917" lon="6.44101">
        <ele>478.39</ele>
        <time>2015-09-26T09:25:14Z</time>
      </trkpt>
      <trkpt lat="43.5692" lon="6.44121">
        <ele>480.32</ele>
        <time>2015-09-26T09:25:31Z</time>
      </trkpt>
      <trkpt lat="43.56919" lon="6.44125">
        <ele>480.32</ele>
        <time>2015-09-26T09:25:34Z</time>
      </trkpt>
      <trkpt lat="43.56918" lon="6.44137">
        <ele>481.28</ele>
        <time>2015-09-26T09:25:46Z</time>
      </trkpt>
      <trkpt lat="43.56921" lon="6.44155">
        <ele>482.72</ele>
        <time>2015-09-26T09:25:57Z</time>
      </trkpt>
      <trkpt lat="43.5692" lon="6.44161">
        <ele>483.2</ele>
        <time>2015-09-26T09:26:00Z</time>
      </trkpt>
      <trkpt lat="43.56923" lon="6.44188">
        <ele>484.64</ele>
        <time>2015-09-26T09:26:14Z</time>
      </trkpt>
      <trkpt lat="43.56925" lon="6.44203">
        <ele>484.64</ele>
        <time>2015-09-26T09:26:25Z</time>
      </trkpt>
      <trkpt lat="43.56926" lon="6.44204">
        <ele>484.64</ele>
        <time>2015-09-26T09:26:26Z</time>
      </trkpt>
      <trkpt lat="43.56926" lon="6.44208">
        <ele>484.64</ele>
        <time>2015-09-26T09:26:30Z</time>
      </trkpt>
      <trkpt lat="43.56922" lon="6.44229">
        <ele>484.16</ele>
        <time>2015-09-26T09:26:44Z</time>
      </trkpt>
      <trkpt lat="43.5692" lon="6.44249">
        <ele>484.16</ele>
        <time>2015-09-26T09:26:57Z</time>
      </trkpt>
      <trkpt lat="43.56923" lon="6.44268">
        <ele>483.2</ele>
        <time>2015-09-26T09:27:09Z</time>
      </trkpt>
      <trkpt lat="43.56925" lon="6.44284">
        <ele>482.72</ele>
        <time>2015-09-26T09:27:22Z</time>
      </trkpt>
      <trkpt lat="43.5693" lon="6.44294">
        <ele>482.24</ele>
        <time>2015-09-26T09:27:34Z</time>
      </trkpt>
      <trkpt lat="43.56931" lon="6.44296">
        <ele>482.24</ele>
        <time>2015-09-26T09:27:50Z</time>
      </trkpt>
      <trkpt lat="43.56932" lon="6.44296">
        <ele>482.24</ele>
        <time>2015-09-26T09:28:04Z</time>
      </trkpt>
      <trkpt lat="43.56932" lon="6.44295">
        <ele>482.24</ele>
        <time>2015-09-26T09:28:28Z</time>
      </trkpt>
      <trkpt lat="43.56933" lon="6.44296">
        <ele>482.24</ele>
        <time>2015-09-26T09:28:53Z</time>
      </trkpt>
      <trkpt lat="43.56937" lon="6.44308">
        <ele>479.84</ele>
        <time>2015-09-26T09:29:04Z</time>
      </trkpt>
      <trkpt lat="43.5694" lon="6.44327">
        <ele>480.8</ele>
        <time>2015-09-26T09:29:17Z</time>
      </trkpt>
      <trkpt lat="43.56943" lon="6.44334">
        <ele>479.84</ele>
        <time>2015-09-26T09:29:22Z</time>
      </trkpt>
      <trkpt lat="43.56944" lon="6.44355">
        <ele>478.87</ele>
        <time>2015-09-26T09:29:37Z</time>
      </trkpt>
      <trkpt lat="43.56943" lon="6.44371">
        <ele>477.91</ele>
        <time>2015-09-26T09:29:49Z</time>
      </trkpt>
      <trkpt lat="43.56949" lon="6.44401">
        <ele>476.47</ele>
        <time>2015-09-26T09:30:10Z</time>
      </trkpt>
      <trkpt lat="43.5695" lon="6.44416">
        <ele>476.47</ele>
        <time>2015-09-26T09:30:24Z</time>
      </trkpt>
      <trkpt lat="43.5695" lon="6.44416">
        <ele>475.99</ele>
        <time>2015-09-26T09:30:52Z</time>
      </trkpt>
      <trkpt lat="43.56951" lon="6.44413">
        <ele>476.47</ele>
        <time>2015-09-26T09:31:09Z</time>
      </trkpt>
      <trkpt lat="43.5695" lon="6.44413">
        <ele>476.47</ele>
        <time>2015-09-26T09:31:12Z</time>
      </trkpt>
      <trkpt lat="43.56944" lon="6.44417">
        <ele>476.95</ele>
        <time>2015-09-26T09:31:19Z</time>
      </trkpt>
      <trkpt lat="43.56939" lon="6.44429">
        <ele>476.47</ele>
        <time>2015-09-26T09:31:33Z</time>
      </trkpt>
      <trkpt lat="43.56939" lon="6.4443">
        <ele>476.47</ele>
        <time>2015-09-26T09:31:34Z</time>
      </trkpt>
      <trkpt lat="43.56931" lon="6.44453">
        <ele>475.51</ele>
        <time>2015-09-26T09:31:53Z</time>
      </trkpt>
      <trkpt lat="43.56929" lon="6.44467">
        <ele>475.51</ele>
        <time>2015-09-26T09:32:02Z</time>
      </trkpt>
      <trkpt lat="43.56929" lon="6.44471">
        <ele>475.51</ele>
        <time>2015-09-26T09:32:04Z</time>
      </trkpt>
      <trkpt lat="43.56925" lon="6.44486">
        <ele>475.51</ele>
        <time>2015-09-26T09:32:20Z</time>
      </trkpt>
      <trkpt lat="43.56922" lon="6.44494">
        <ele>475.51</ele>
        <time>2015-09-26T09:32:30Z</time>
      </trkpt>
      <trkpt lat="43.56919" lon="6.44501">
        <ele>475.51</ele>
        <time>2015-09-26T09:32:36Z</time>
      </trkpt>
      <trkpt lat="43.56919" lon="6.4452">
        <ele>475.51</ele>
        <time>2015-09-26T09:32:52Z</time>
      </trkpt>
      <trkpt lat="43.56919" lon="6.44522">
        <ele>475.51</ele>
        <time>2015-09-26T09:32:53Z</time>
      </trkpt>
      <trkpt lat="43.56919" lon="6.44526">
        <ele>475.51</ele>
        <time>2015-09-26T09:32:56Z</time>
      </trkpt>
      <trkpt lat="43.56922" lon="6.44545">
        <ele>475.99</ele>
        <time>2015-09-26T09:33:09Z</time>
      </trkpt>
      <trkpt lat="43.56924" lon="6.44569">
        <ele>476.95</ele>
        <time>2015-09-26T09:33:28Z</time>
      </trkpt>
      <trkpt lat="43.56928" lon="6.44588">
        <ele>477.43</ele>
        <time>2015-09-26T09:33:44Z</time>
      </trkpt>
      <trkpt lat="43.56937" lon="6.44603">
        <ele>477.91</ele>
        <time>2015-09-26T09:33:59Z</time>
      </trkpt>
      <trkpt lat="43.56949" lon="6.44621">
        <ele>478.87</ele>
        <time>2015-09-26T09:34:16Z</time>
      </trkpt>
      <trkpt lat="43.56955" lon="6.44636">
        <ele>479.84</ele>
        <time>2015-09-26T09:34:32Z</time>
      </trkpt>
      <trkpt lat="43.56959" lon="6.44642">
        <ele>480.32</ele>
        <time>2015-09-26T09:34:51Z</time>
      </trkpt>
      <trkpt lat="43.56964" lon="6.44652">
        <ele>481.28</ele>
        <time>2015-09-26T09:35:05Z</time>
      </trkpt>
      <trkpt lat="43.5697" lon="6.44671">
        <ele>482.72</ele>
        <time>2015-09-26T09:35:21Z</time>
      </trkpt>
      <trkpt lat="43.56971" lon="6.44674">
        <ele>482.72</ele>
        <time>2015-09-26T09:35:23Z</time>
      </trkpt>
      <trkpt lat="43.56973" lon="6.4469">
        <ele>483.68</ele>
        <time>2015-09-26T09:35:40Z</time>
      </trkpt>
      <trkpt lat="43.56976" lon="6.44708">
        <ele>484.64</ele>
        <time>2015-09-26T09:35:55Z</time>
      </trkpt>
      <trkpt lat="43.56976" lon="6.44723">
        <ele>485.12</ele>
        <time>2015-09-26T09:36:06Z</time>
      </trkpt>
      <trkpt lat="43.56971" lon="6.44741">
        <ele>486.08</ele>
        <time>2015-09-26T09:36:20Z</time>
      </trkpt>
      <trkpt lat="43.56968" lon="6.4476">
        <ele>486.56</ele>
        <time>2015-09-26T09:36:34Z</time>
      </trkpt>
      <trkpt lat="43.56968" lon="6.44767">
        <ele>486.56</ele>
        <time>2015-09-26T09:36:37Z</time>
      </trkpt>
      <trkpt lat="43.56968" lon="6.44789">
        <ele>487.53</ele>
        <time>2015-09-26T09:36:51Z</time>
      </trkpt>
      <trkpt lat="43.56966" lon="6.44793">
        <ele>487.53</ele>
        <time>2015-09-26T09:36:54Z</time>
      </trkpt>
      <trkpt lat="43.56962" lon="6.4481">
        <ele>488.01</ele>
        <time>2015-09-26T09:37:06Z</time>
      </trkpt>
      <trkpt lat="43.5696" lon="6.44813">
        <ele>488.49</ele>
        <time>2015-09-26T09:37:08Z</time>
      </trkpt>
      <trkpt lat="43.56955" lon="6.44828">
        <ele>489.45</ele>
        <time>2015-09-26T09:37:19Z</time>
      </trkpt>
      <trkpt lat="43.56955" lon="6.44845">
        <ele>490.89</ele>
        <time>2015-09-26T09:37:32Z</time>
      </trkpt>
      <trkpt lat="43.56951" lon="6.4485">
        <ele>491.37</ele>
        <time>2015-09-26T09:37:36Z</time>
      </trkpt>
      <trkpt lat="43.56948" lon="6.44868">
        <ele>491.85</ele>
        <time>2015-09-26T09:37:50Z</time>
      </trkpt>
      <trkpt lat="43.56942" lon="6.4489">
        <ele>493.29</ele>
        <time>2015-09-26T09:38:05Z</time>
      </trkpt>
      <trkpt lat="43.56939" lon="6.44901">
        <ele>494.74</ele>
        <time>2015-09-26T09:38:17Z</time>
      </trkpt>
      <trkpt lat="43.56936" lon="6.44915">
        <ele>496.18</ele>
        <time>2015-09-26T09:38:29Z</time>
      </trkpt>
      <trkpt lat="43.56934" lon="6.44922">
        <ele>497.62</ele>
        <time>2015-09-26T09:38:35Z</time>
      </trkpt>
      <trkpt lat="43.56937" lon="6.4493">
        <ele>496.66</ele>
        <time>2015-09-26T09:38:40Z</time>
      </trkpt>
      <trkpt lat="43.56937" lon="6.44938">
        <ele>497.14</ele>
        <time>2015-09-26T09:38:45Z</time>
      </trkpt>
      <trkpt lat="43.56938" lon="6.44947">
        <ele>497.62</ele>
        <time>2015-09-26T09:38:51Z</time>
      </trkpt>
      <trkpt lat="43.56936" lon="6.44962">
        <ele>498.1</ele>
        <time>2015-09-26T09:39:04Z</time>
      </trkpt>
      <trkpt lat="43.56935" lon="6.44965">
        <ele>498.58</ele>
        <time>2015-09-26T09:39:23Z</time>
      </trkpt>
      <trkpt lat="43.56935" lon="6.44966">
        <ele>498.58</ele>
        <time>2015-09-26T09:39:42Z</time>
      </trkpt>
      <trkpt lat="43.56939" lon="6.44964">
        <ele>498.58</ele>
        <time>2015-09-26T09:39:55Z</time>
      </trkpt>
      <trkpt lat="43.56938" lon="6.44965">
        <ele>498.1</ele>
        <time>2015-09-26T09:40:10Z</time>
      </trkpt>
      <trkpt lat="43.56938" lon="6.44965">
        <ele>498.58</ele>
        <time>2015-09-26T09:40:31Z</time>
      </trkpt>
      <trkpt lat="43.56936" lon="6.44965">
        <ele>498.58</ele>
        <time>2015-09-26T09:40:54Z</time>
      </trkpt>
      <trkpt lat="43.56937" lon="6.44965">
        <ele>498.58</ele>
        <time>2015-09-26T09:41:23Z</time>
      </trkpt>
      <trkpt lat="43.56935" lon="6.44966">
        <ele>498.58</ele>
        <time>2015-09-26T09:41:37Z</time>
      </trkpt>
      <trkpt lat="43.56936" lon="6.44973">
        <ele>498.58</ele>
        <time>2015-09-26T09:41:50Z</time>
      </trkpt>
      <trkpt lat="43.56937" lon="6.44992">
        <ele>498.1</ele>
        <time>2015-09-26T09:42:05Z</time>
      </trkpt>
      <trkpt lat="43.56938" lon="6.4501">
        <ele>497.62</ele>
        <time>2015-09-26T09:42:21Z</time>
      </trkpt>
      <trkpt lat="43.56939" lon="6.45016">
        <ele>497.62</ele>
        <time>2015-09-26T09:42:25Z</time>
      </trkpt>
      <trkpt lat="43.56937" lon="6.45041">
        <ele>498.1</ele>
        <time>2015-09-26T09:42:42Z</time>
      </trkpt>
      <trkpt lat="43.56937" lon="6.4506">
        <ele>499.06</ele>
        <time>2015-09-26T09:42:57Z</time>
      </trkpt>
      <trkpt lat="43.56934" lon="6.45069">
        <ele>499.54</ele>
        <time>2015-09-26T09:43:05Z</time>
      </trkpt>
      <trkpt lat="43.5693" lon="6.45086">
        <ele>500.98</ele>
        <time>2015-09-26T09:43:20Z</time>
      </trkpt>
      <trkpt lat="43.56923" lon="6.45101">
        <ele>501.95</ele>
        <time>2015-09-26T09:43:35Z</time>
      </trkpt>
      <trkpt lat="43.5692" lon="6.45122">
        <ele>503.39</ele>
        <time>2015-09-26T09:43:53Z</time>
      </trkpt>
      <trkpt lat="43.56913" lon="6.4514">
        <ele>504.83</ele>
        <time>2015-09-26T09:44:09Z</time>
      </trkpt>
      <trkpt lat="43.56912" lon="6.45148">
        <ele>505.79</ele>
        <time>2015-09-26T09:44:19Z</time>
      </trkpt>
      <trkpt lat="43.56908" lon="6.45155">
        <ele>506.27</ele>
        <time>2015-09-26T09:44:26Z</time>
      </trkpt>
      <trkpt lat="43.56905" lon="6.45167">
        <ele>507.71</ele>
        <time>2015-09-26T09:44:35Z</time>
      </trkpt>
      <trkpt lat="43.56903" lon="6.45184">
        <ele>508.19</ele>
        <time>2015-09-26T09:44:48Z</time>
      </trkpt>
      <trkpt lat="43.56897" lon="6.45203">
        <ele>509.16</ele>
        <time>2015-09-26T09:45:03Z</time>
      </trkpt>
      <trkpt lat="43.56894" lon="6.45218">
        <ele>510.6</ele>
        <time>2015-09-26T09:45:16Z</time>
      </trkpt>
      <trkpt lat="43.56891" lon="6.45231">
        <ele>512.04</ele>
        <time>2015-09-26T09:45:32Z</time>
      </trkpt>
      <trkpt lat="43.56892" lon="6.45253">
        <ele>511.56</ele>
        <time>2015-09-26T09:45:49Z</time>
      </trkpt>
      <trkpt lat="43.56892" lon="6.4526">
        <ele>511.08</ele>
        <time>2015-09-26T09:45:54Z</time>
      </trkpt>
      <trkpt lat="43.56889" lon="6.4528">
        <ele>509.64</ele>
        <time>2015-09-26T09:46:10Z</time>
      </trkpt>
      <trkpt lat="43.56885" lon="6.45296">
        <ele>509.16</ele>
        <time>2015-09-26T09:46:25Z</time>
      </trkpt>
      <trkpt lat="43.56884" lon="6.45318">
        <ele>508.67</ele>
        <time>2015-09-26T09:46:41Z</time>
      </trkpt>
      <trkpt lat="43.56884" lon="6.4534">
        <ele>507.71</ele>
        <time>2015-09-26T09:46:55Z</time>
      </trkpt>
      <trkpt lat="43.56883" lon="6.45344">
        <ele>507.71</ele>
        <time>2015-09-26T09:46:58Z</time>
      </trkpt>
      <trkpt lat="43.56883" lon="6.45347">
        <ele>507.71</ele>
        <time>2015-09-26T09:47:00Z</time>
      </trkpt>
      <trkpt lat="43.56883" lon="6.45354">
        <ele>507.23</ele>
        <time>2015-09-26T09:47:06Z</time>
      </trkpt>
      <trkpt lat="43.56883" lon="6.45361">
        <ele>506.75</ele>
        <time>2015-09-26T09:47:11Z</time>
      </trkpt>
      <trkpt lat="43.56883" lon="6.4538">
        <ele>505.31</ele>
        <time>2015-09-26T09:47:27Z</time>
      </trkpt>
      <trkpt lat="43.56886" lon="6.45402">
        <ele>504.35</ele>
        <time>2015-09-26T09:47:43Z</time>
      </trkpt>
      <trkpt lat="43.56885" lon="6.45411">
        <ele>504.35</ele>
        <time>2015-09-26T09:47:52Z</time>
      </trkpt>
      <trkpt lat="43.56885" lon="6.4543">
        <ele>504.35</ele>
        <time>2015-09-26T09:48:07Z</time>
      </trkpt>
      <trkpt lat="43.56886" lon="6.45453">
        <ele>504.83</ele>
        <time>2015-09-26T09:48:23Z</time>
      </trkpt>
      <trkpt lat="43.5689" lon="6.45475">
        <ele>505.79</ele>
        <time>2015-09-26T09:48:40Z</time>
      </trkpt>
      <trkpt lat="43.5689" lon="6.45485">
        <ele>506.27</ele>
        <time>2015-09-26T09:48:48Z</time>
      </trkpt>
      <trkpt lat="43.56892" lon="6.45503">
        <ele>507.23</ele>
        <time>2015-09-26T09:49:04Z</time>
      </trkpt>
      <trkpt lat="43.56892" lon="6.45505">
        <ele>507.23</ele>
        <time>2015-09-26T09:49:05Z</time>
      </trkpt>
      <trkpt lat="43.56891" lon="6.45527">
        <ele>507.23</ele>
        <time>2015-09-26T09:49:21Z</time>
      </trkpt>
      <trkpt lat="43.56887" lon="6.45533">
        <ele>506.75</ele>
        <time>2015-09-26T09:49:27Z</time>
      </trkpt>
      <trkpt lat="43.5688" lon="6.45557">
        <ele>506.27</ele>
        <time>2015-09-26T09:49:45Z</time>
      </trkpt>
      <trkpt lat="43.5688" lon="6.45563">
        <ele>506.27</ele>
        <time>2015-09-26T09:49:49Z</time>
      </trkpt>
      <trkpt lat="43.56881" lon="6.45575">
        <ele>505.79</ele>
        <time>2015-09-26T09:49:57Z</time>
      </trkpt>
      <trkpt lat="43.56883" lon="6.45595">
        <ele>504.35</ele>
        <time>2015-09-26T09:50:11Z</time>
      </trkpt>
      <trkpt lat="43.56882" lon="6.45607">
        <ele>503.39</ele>
        <time>2015-09-26T09:50:22Z</time>
      </trkpt>
      <trkpt lat="43.56884" lon="6.45626">
        <ele>501.95</ele>
        <time>2015-09-26T09:50:38Z</time>
      </trkpt>
      <trkpt lat="43.56882" lon="6.45631">
        <ele>501.46</ele>
        <time>2015-09-26T09:50:45Z</time>
      </trkpt>
      <trkpt lat="43.56881" lon="6.45641">
        <ele>500.98</ele>
        <time>2015-09-26T09:50:51Z</time>
      </trkpt>
      <trkpt lat="43.56883" lon="6.45658">
        <ele>500.02</ele>
        <time>2015-09-26T09:51:04Z</time>
      </trkpt>
      <trkpt lat="43.56883" lon="6.45676">
        <ele>499.06</ele>
        <time>2015-09-26T09:51:19Z</time>
      </trkpt>
      <trkpt lat="43.56878" lon="6.45689">
        <ele>498.58</ele>
        <time>2015-09-26T09:51:32Z</time>
      </trkpt>
      <trkpt lat="43.56878" lon="6.45702">
        <ele>498.58</ele>
        <time>2015-09-26T09:51:40Z</time>
      </trkpt>
      <trkpt lat="43.56874" lon="6.4572">
        <ele>497.62</ele>
        <time>2015-09-26T09:51:55Z</time>
      </trkpt>
      <trkpt lat="43.56874" lon="6.45736">
        <ele>496.66</ele>
        <time>2015-09-26T09:52:07Z</time>
      </trkpt>
      <trkpt lat="43.56875" lon="6.45748">
        <ele>496.18</ele>
        <time>2015-09-26T09:52:16Z</time>
      </trkpt>
      <trkpt lat="43.56876" lon="6.45768">
        <ele>495.22</ele>
        <time>2015-09-26T09:52:32Z</time>
      </trkpt>
      <trkpt lat="43.56871" lon="6.45781">
        <ele>493.77</ele>
        <time>2015-09-26T09:52:46Z</time>
      </trkpt>
      <trkpt lat="43.56869" lon="6.45796">
        <ele>492.81</ele>
        <time>2015-09-26T09:52:58Z</time>
      </trkpt>
      <trkpt lat="43.56867" lon="6.458">
        <ele>492.33</ele>
        <time>2015-09-26T09:53:01Z</time>
      </trkpt>
      <trkpt lat="43.5686" lon="6.45812">
        <ele>491.85</ele>
        <time>2015-09-26T09:53:13Z</time>
      </trkpt>
      <trkpt lat="43.56849" lon="6.45831">
        <ele>491.37</ele>
        <time>2015-09-26T09:53:28Z</time>
      </trkpt>
      <trkpt lat="43.56844" lon="6.45841">
        <ele>491.37</ele>
        <time>2015-09-26T09:53:36Z</time>
      </trkpt>
      <trkpt lat="43.5683" lon="6.45859">
        <ele>490.89</ele>
        <time>2015-09-26T09:53:51Z</time>
      </trkpt>
      <trkpt lat="43.56827" lon="6.45867">
        <ele>491.37</ele>
        <time>2015-09-26T09:53:57Z</time>
      </trkpt>
      <trkpt lat="43.56818" lon="6.45886">
        <ele>492.33</ele>
        <time>2015-09-26T09:54:10Z</time>
      </trkpt>
      <trkpt lat="43.56812" lon="6.45907">
        <ele>492.81</ele>
        <time>2015-09-26T09:54:22Z</time>
      </trkpt>
      <trkpt lat="43.568" lon="6.45924">
        <ele>493.29</ele>
        <time>2015-09-26T09:54:36Z</time>
      </trkpt>
      <trkpt lat="43.56801" lon="6.45928">
        <ele>493.77</ele>
        <time>2015-09-26T09:54:51Z</time>
      </trkpt>
      <trkpt lat="43.56805" lon="6.45931">
        <ele>493.77</ele>
        <time>2015-09-26T09:55:19Z</time>
      </trkpt>
      <trkpt lat="43.56807" lon="6.45933">
        <ele>493.77</ele>
        <time>2015-09-26T09:55:47Z</time>
      </trkpt>
      <trkpt lat="43.56807" lon="6.45933">
        <ele>494.26</ele>
        <time>2015-09-26T09:56:10Z</time>
      </trkpt>
      <trkpt lat="43.56807" lon="6.45931">
        <ele>493.77</ele>
        <time>2015-09-26T09:56:27Z</time>
      </trkpt>
      <trkpt lat="43.56806" lon="6.45929">
        <ele>493.77</ele>
        <time>2015-09-26T09:56:42Z</time>
      </trkpt>
      <trkpt lat="43.56803" lon="6.45929">
        <ele>493.77</ele>
        <time>2015-09-26T09:57:00Z</time>
      </trkpt>
      <trkpt lat="43.56803" lon="6.45928">
        <ele>493.77</ele>
        <time>2015-09-26T09:57:25Z</time>
      </trkpt>
      <trkpt lat="43.56793" lon="6.45939">
        <ele>494.26</ele>
        <time>2015-09-26T09:57:40Z</time>
      </trkpt>
      <trkpt lat="43.56792" lon="6.45939">
        <ele>494.26</ele>
        <time>2015-09-26T09:57:41Z</time>
      </trkpt>
      <trkpt lat="43.56789" lon="6.45945">
        <ele>494.74</ele>
        <time>2015-09-26T09:57:46Z</time>
      </trkpt>
      <trkpt lat="43.56782" lon="6.45957">
        <ele>495.22</ele>
        <time>2015-09-26T09:58:00Z</time>
      </trkpt>
      <trkpt lat="43.5678" lon="6.45959">
        <ele>495.7</ele>
        <time>2015-09-26T09:58:03Z</time>
      </trkpt>
      <trkpt lat="43.56776" lon="6.45958">
        <ele>496.18</ele>
        <time>2015-09-26T09:58:07Z</time>
      </trkpt>
      <trkpt lat="43.56767" lon="6.4597">
        <ele>497.14</ele>
        <time>2015-09-26T09:58:20Z</time>
      </trkpt>
      <trkpt lat="43.56765" lon="6.45976">
        <ele>497.62</ele>
        <time>2015-09-26T09:58:24Z</time>
      </trkpt>
      <trkpt lat="43.56761" lon="6.46001">
        <ele>499.06</ele>
        <time>2015-09-26T09:58:39Z</time>
      </trkpt>
      <trkpt lat="43.56762" lon="6.46005">
        <ele>499.06</ele>
        <time>2015-09-26T09:58:41Z</time>
      </trkpt>
      <trkpt lat="43.56762" lon="6.46016">
        <ele>500.02</ele>
        <time>2015-09-26T09:58:49Z</time>
      </trkpt>
      <trkpt lat="43.5676" lon="6.46031">
        <ele>501.46</ele>
        <time>2015-09-26T09:59:01Z</time>
      </trkpt>
      <trkpt lat="43.56761" lon="6.46032">
        <ele>501.46</ele>
        <time>2015-09-26T09:59:02Z</time>
      </trkpt>
      <trkpt lat="43.56762" lon="6.46039">
        <ele>501.95</ele>
        <time>2015-09-26T09:59:06Z</time>
      </trkpt>
      <trkpt lat="43.56762" lon="6.46044">
        <ele>502.43</ele>
        <time>2015-09-26T09:59:10Z</time>
      </trkpt>
      <trkpt lat="43.56761" lon="6.46047">
        <ele>502.43</ele>
        <time>2015-09-26T09:59:12Z</time>
      </trkpt>
      <trkpt lat="43.56755" lon="6.4607">
        <ele>503.39</ele>
        <time>2015-09-26T09:59:28Z</time>
      </trkpt>
      <trkpt lat="43.56755" lon="6.46073">
        <ele>503.87</ele>
        <time>2015-09-26T09:59:30Z</time>
      </trkpt>
      <trkpt lat="43.56753" lon="6.46092">
        <ele>503.87</ele>
        <time>2015-09-26T09:59:41Z</time>
      </trkpt>
      <trkpt lat="43.5675" lon="6.46116">
        <ele>504.83</ele>
        <time>2015-09-26T09:59:56Z</time>
      </trkpt>
      <trkpt lat="43.56751" lon="6.4612">
        <ele>504.83</ele>
        <time>2015-09-26T09:59:59Z</time>
      </trkpt>
      <trkpt lat="43.5675" lon="6.46134">
        <ele>505.79</ele>
        <time>2015-09-26T10:00:10Z</time>
      </trkpt>
      <trkpt lat="43.5675" lon="6.46143">
        <ele>505.79</ele>
        <time>2015-09-26T10:00:16Z</time>
      </trkpt>
      <trkpt lat="43.56755" lon="6.46168">
        <ele>506.75</ele>
        <time>2015-09-26T10:00:32Z</time>
      </trkpt>
      <trkpt lat="43.56741" lon="6.46187">
        <ele>507.71</ele>
        <time>2015-09-26T10:00:46Z</time>
      </trkpt>
      <trkpt lat="43.56732" lon="6.46195">
        <ele>508.67</ele>
        <time>2015-09-26T10:00:57Z</time>
      </trkpt>
      <trkpt lat="43.5672" lon="6.46205">
        <ele>510.12</ele>
        <time>2015-09-26T10:01:11Z</time>
      </trkpt>
      <trkpt lat="43.56714" lon="6.46211">
        <ele>510.6</ele>
        <time>2015-09-26T10:01:19Z</time>
      </trkpt>
      <trkpt lat="43.56702" lon="6.46224">
        <ele>512.04</ele>
        <time>2015-09-26T10:01:35Z</time>
      </trkpt>
      <trkpt lat="43.56687" lon="6.46234">
        <ele>513.96</ele>
        <time>2015-09-26T10:01:51Z</time>
      </trkpt>
      <trkpt lat="43.56678" lon="6.4624">
        <ele>515.4</ele>
        <time>2015-09-26T10:02:05Z</time>
      </trkpt>
      <trkpt lat="43.56661" lon="6.46251">
        <ele>517.81</ele>
        <time>2015-09-26T10:02:24Z</time>
      </trkpt>
      <trkpt lat="43.56649" lon="6.46265">
        <ele>520.21</ele>
        <time>2015-09-26T10:02:39Z</time>
      </trkpt>
      <trkpt lat="43.56644" lon="6.46272">
        <ele>521.65</ele>
        <time>2015-09-26T10:02:48Z</time>
      </trkpt>
      <trkpt lat="43.56632" lon="6.46296">
        <ele>523.58</ele>
        <time>2015-09-26T10:03:06Z</time>
      </trkpt>
      <trkpt lat="43.56621" lon="6.46297">
        <ele>525.5</ele>
        <time>2015-09-26T10:03:21Z</time>
      </trkpt>
      <trkpt lat="43.56618" lon="6.46297">
        <ele>525.5</ele>
        <time>2015-09-26T10:03:24Z</time>
      </trkpt>
      <trkpt lat="43.56605" lon="6.4629">
        <ele>527.42</ele>
        <time>2015-09-26T10:03:37Z</time>
      </trkpt>
      <trkpt lat="43.56595" lon="6.4629">
        <ele>527.9</ele>
        <time>2015-09-26T10:03:51Z</time>
      </trkpt>
      <trkpt lat="43.56587" lon="6.46292">
        <ele>528.38</ele>
        <time>2015-09-26T10:04:04Z</time>
      </trkpt>
      <trkpt lat="43.56586" lon="6.46292">
        <ele>528.38</ele>
        <time>2015-09-26T10:04:14Z</time>
      </trkpt>
      <trkpt lat="43.56579" lon="6.46298">
        <ele>528.86</ele>
        <time>2015-09-26T10:04:27Z</time>
      </trkpt>
      <trkpt lat="43.56569" lon="6.46298">
        <ele>528.38</ele>
        <time>2015-09-26T10:04:39Z</time>
      </trkpt>
      <trkpt lat="43.56559" lon="6.46298">
        <ele>527.42</ele>
        <time>2015-09-26T10:04:53Z</time>
      </trkpt>
      <trkpt lat="43.56554" lon="6.46299">
        <ele>527.42</ele>
        <time>2015-09-26T10:05:07Z</time>
      </trkpt>
      <trkpt lat="43.56555" lon="6.46301">
        <ele>527.42</ele>
        <time>2015-09-26T10:05:11Z</time>
      </trkpt>
      <trkpt lat="43.56557" lon="6.46301">
        <ele>527.42</ele>
        <time>2015-09-26T10:05:13Z</time>
      </trkpt>
      <trkpt lat="43.56573" lon="6.46303">
        <ele>528.38</ele>
        <time>2015-09-26T10:05:30Z</time>
      </trkpt>
      <trkpt lat="43.56574" lon="6.46303">
        <ele>528.38</ele>
        <time>2015-09-26T10:05:31Z</time>
      </trkpt>
      <trkpt lat="43.56581" lon="6.463">
        <ele>528.86</ele>
        <time>2015-09-26T10:05:44Z</time>
      </trkpt>
      <trkpt lat="43.56581" lon="6.46299">
        <ele>528.86</ele>
        <time>2015-09-26T10:06:01Z</time>
      </trkpt>
      <trkpt lat="43.56581" lon="6.46299">
        <ele>528.86</ele>
        <time>2015-09-26T10:06:28Z</time>
      </trkpt>
      <trkpt lat="43.56581" lon="6.46297">
        <ele>528.86</ele>
        <time>2015-09-26T10:06:50Z</time>
      </trkpt>
      <trkpt lat="43.5658" lon="6.46297">
        <ele>528.86</ele>
        <time>2015-09-26T10:07:19Z</time>
      </trkpt>
      <trkpt lat="43.5658" lon="6.46298">
        <ele>528.86</ele>
        <time>2015-09-26T10:07:39Z</time>
      </trkpt>
      <trkpt lat="43.56581" lon="6.46298">
        <ele>529.34</ele>
        <time>2015-09-26T10:08:15Z</time>
      </trkpt>
      <trkpt lat="43.5658" lon="6.46298">
        <ele>528.86</ele>
        <time>2015-09-26T10:08:37Z</time>
      </trkpt>
      <trkpt lat="43.56581" lon="6.46295">
        <ele>530.79</ele>
        <time>2015-09-26T10:09:00Z</time>
      </trkpt>
      <trkpt lat="43.56581" lon="6.46295">
        <ele>529.34</ele>
        <time>2015-09-26T10:09:19Z</time>
      </trkpt>
      <trkpt lat="43.56581" lon="6.46296">
        <ele>529.34</ele>
        <time>2015-09-26T10:09:49Z</time>
      </trkpt>
      <trkpt lat="43.56582" lon="6.46296">
        <ele>529.34</ele>
        <time>2015-09-26T10:10:20Z</time>
      </trkpt>
      <trkpt lat="43.56582" lon="6.46296">
        <ele>529.34</ele>
        <time>2015-09-26T10:10:51Z</time>
      </trkpt>
      <trkpt lat="43.56581" lon="6.46296">
        <ele>529.82</ele>
        <time>2015-09-26T10:11:20Z</time>
      </trkpt>
      <trkpt lat="43.56582" lon="6.46296">
        <ele>529.82</ele>
        <time>2015-09-26T10:11:43Z</time>
      </trkpt>
      <trkpt lat="43.56582" lon="6.46297">
        <ele>529.82</ele>
        <time>2015-09-26T10:11:59Z</time>
      </trkpt>
      <trkpt lat="43.56581" lon="6.46294">
        <ele>529.82</ele>
        <time>2015-09-26T10:12:15Z</time>
      </trkpt>
      <trkpt lat="43.56578" lon="6.46295">
        <ele>529.82</ele>
        <time>2015-09-26T10:12:25Z</time>
      </trkpt>
      <trkpt lat="43.56562" lon="6.46298">
        <ele>529.34</ele>
        <time>2015-09-26T10:12:40Z</time>
      </trkpt>
      <trkpt lat="43.56554" lon="6.46306">
        <ele>528.86</ele>
        <time>2015-09-26T10:12:52Z</time>
      </trkpt>
      <trkpt lat="43.56554" lon="6.46308">
        <ele>528.86</ele>
        <time>2015-09-26T10:12:53Z</time>
      </trkpt>
      <trkpt lat="43.56552" lon="6.46314">
        <ele>529.34</ele>
        <time>2015-09-26T10:12:58Z</time>
      </trkpt>
      <trkpt lat="43.56546" lon="6.46331">
        <ele>529.82</ele>
        <time>2015-09-26T10:13:12Z</time>
      </trkpt>
      <trkpt lat="43.56543" lon="6.46334">
        <ele>529.82</ele>
        <time>2015-09-26T10:13:17Z</time>
      </trkpt>
      <trkpt lat="43.5653" lon="6.46339">
        <ele>531.27</ele>
        <time>2015-09-26T10:13:32Z</time>
      </trkpt>
      <trkpt lat="43.56519" lon="6.46351">
        <ele>532.23</ele>
        <time>2015-09-26T10:13:47Z</time>
      </trkpt>
      <trkpt lat="43.56509" lon="6.46365">
        <ele>533.19</ele>
        <time>2015-09-26T10:14:03Z</time>
      </trkpt>
      <trkpt lat="43.56504" lon="6.46372">
        <ele>533.67</ele>
        <time>2015-09-26T10:14:11Z</time>
      </trkpt>
      <trkpt lat="43.56498" lon="6.46387">
        <ele>535.11</ele>
        <time>2015-09-26T10:14:25Z</time>
      </trkpt>
      <trkpt lat="43.56493" lon="6.464">
        <ele>535.59</ele>
        <time>2015-09-26T10:14:37Z</time>
      </trkpt>
      <trkpt lat="43.56489" lon="6.46415">
        <ele>537.03</ele>
        <time>2015-09-26T10:14:50Z</time>
      </trkpt>
      <trkpt lat="43.56488" lon="6.46423">
        <ele>537.03</ele>
        <time>2015-09-26T10:14:56Z</time>
      </trkpt>
      <trkpt lat="43.56485" lon="6.46436">
        <ele>538.48</ele>
        <time>2015-09-26T10:15:07Z</time>
      </trkpt>
      <trkpt lat="43.56485" lon="6.46437">
        <ele>538.48</ele>
        <time>2015-09-26T10:15:08Z</time>
      </trkpt>
      <trkpt lat="43.56481" lon="6.46458">
        <ele>539.92</ele>
        <time>2015-09-26T10:15:24Z</time>
      </trkpt>
      <trkpt lat="43.56481" lon="6.46462">
        <ele>539.92</ele>
        <time>2015-09-26T10:15:27Z</time>
      </trkpt>
      <trkpt lat="43.5648" lon="6.46468">
        <ele>540.88</ele>
        <time>2015-09-26T10:15:32Z</time>
      </trkpt>
      <trkpt lat="43.56478" lon="6.46486">
        <ele>541.84</ele>
        <time>2015-09-26T10:15:47Z</time>
      </trkpt>
      <trkpt lat="43.56482" lon="6.46506">
        <ele>543.76</ele>
        <time>2015-09-26T10:16:03Z</time>
      </trkpt>
      <trkpt lat="43.56484" lon="6.46518">
        <ele>544.24</ele>
        <time>2015-09-26T10:16:12Z</time>
      </trkpt>
      <trkpt lat="43.56486" lon="6.46528">
        <ele>545.2</ele>
        <time>2015-09-26T10:16:20Z</time>
      </trkpt>
      <trkpt lat="43.56486" lon="6.46531">
        <ele>545.2</ele>
        <time>2015-09-26T10:16:22Z</time>
      </trkpt>
      <trkpt lat="43.56488" lon="6.4655">
        <ele>546.65</ele>
        <time>2015-09-26T10:16:38Z</time>
      </trkpt>
      <trkpt lat="43.56486" lon="6.46561">
        <ele>547.61</ele>
        <time>2015-09-26T10:16:49Z</time>
      </trkpt>
      <trkpt lat="43.56482" lon="6.46573">
        <ele>548.57</ele>
        <time>2015-09-26T10:17:01Z</time>
      </trkpt>
      <trkpt lat="43.56479" lon="6.46581">
        <ele>549.05</ele>
        <time>2015-09-26T10:17:07Z</time>
      </trkpt>
      <trkpt lat="43.56474" lon="6.46593">
        <ele>550.49</ele>
        <time>2015-09-26T10:17:18Z</time>
      </trkpt>
      <trkpt lat="43.56471" lon="6.46599">
        <ele>550.97</ele>
        <time>2015-09-26T10:17:24Z</time>
      </trkpt>
      <trkpt lat="43.56467" lon="6.46605">
        <ele>551.45</ele>
        <time>2015-09-26T10:17:30Z</time>
      </trkpt>
      <trkpt lat="43.56461" lon="6.46613">
        <ele>552.41</ele>
        <time>2015-09-26T10:17:39Z</time>
      </trkpt>
      <trkpt lat="43.56459" lon="6.46615">
        <ele>552.9</ele>
        <time>2015-09-26T10:17:42Z</time>
      </trkpt>
      <trkpt lat="43.56455" lon="6.46619">
        <ele>553.38</ele>
        <time>2015-09-26T10:17:48Z</time>
      </trkpt>
      <trkpt lat="43.56451" lon="6.46621">
        <ele>553.38</ele>
        <time>2015-09-26T10:17:52Z</time>
      </trkpt>
      <trkpt lat="43.56446" lon="6.46626">
        <ele>553.86</ele>
        <time>2015-09-26T10:17:58Z</time>
      </trkpt>
      <trkpt lat="43.56437" lon="6.46639">
        <ele>555.3</ele>
        <time>2015-09-26T10:18:11Z</time>
      </trkpt>
      <trkpt lat="43.56435" lon="6.46643">
        <ele>555.78</ele>
        <time>2015-09-26T10:18:14Z</time>
      </trkpt>
      <trkpt lat="43.56427" lon="6.46661">
        <ele>556.74</ele>
        <time>2015-09-26T10:18:29Z</time>
      </trkpt>
      <trkpt lat="43.56426" lon="6.46662">
        <ele>557.22</ele>
        <time>2015-09-26T10:18:30Z</time>
      </trkpt>
      <trkpt lat="43.56423" lon="6.46673">
        <ele>557.7</ele>
        <time>2015-09-26T10:18:38Z</time>
      </trkpt>
      <trkpt lat="43.5642" lon="6.46676">
        <ele>558.18</ele>
        <time>2015-09-26T10:18:42Z</time>
      </trkpt>
      <trkpt lat="43.56416" lon="6.46681">
        <ele>558.66</ele>
        <time>2015-09-26T10:18:48Z</time>
      </trkpt>
      <trkpt lat="43.56409" lon="6.46687">
        <ele>559.14</ele>
        <time>2015-09-26T10:18:57Z</time>
      </trkpt>
      <trkpt lat="43.56407" lon="6.4669">
        <ele>559.62</ele>
        <time>2015-09-26T10:19:00Z</time>
      </trkpt>
      <trkpt lat="43.56406" lon="6.46692">
        <ele>559.62</ele>
        <time>2015-09-26T10:19:02Z</time>
      </trkpt>
      <trkpt lat="43.56405" lon="6.46693">
        <ele>560.11</ele>
        <time>2015-09-26T10:19:04Z</time>
      </trkpt>
      <trkpt lat="43.56397" lon="6.46706">
        <ele>561.07</ele>
        <time>2015-09-26T10:19:16Z</time>
      </trkpt>
      <trkpt lat="43.56392" lon="6.46713">
        <ele>561.55</ele>
        <time>2015-09-26T10:19:24Z</time>
      </trkpt>
      <trkpt lat="43.5639" lon="6.46717">
        <ele>561.55</ele>
        <time>2015-09-26T10:19:28Z</time>
      </trkpt>
      <trkpt lat="43.56388" lon="6.46722">
        <ele>562.03</ele>
        <time>2015-09-26T10:19:32Z</time>
      </trkpt>
      <trkpt lat="43.56387" lon="6.46733">
        <ele>562.03</ele>
        <time>2015-09-26T10:19:38Z</time>
      </trkpt>
      <trkpt lat="43.56387" lon="6.46756">
        <ele>562.03</ele>
        <time>2015-09-26T10:19:54Z</time>
      </trkpt>
      <trkpt lat="43.56388" lon="6.46775">
        <ele>562.99</ele>
        <time>2015-09-26T10:20:07Z</time>
      </trkpt>
      <trkpt lat="43.56387" lon="6.46795">
        <ele>562.99</ele>
        <time>2015-09-26T10:20:21Z</time>
      </trkpt>
      <trkpt lat="43.56388" lon="6.46798">
        <ele>563.47</ele>
        <time>2015-09-26T10:20:24Z</time>
      </trkpt>
      <trkpt lat="43.56387" lon="6.46803">
        <ele>563.47</ele>
        <time>2015-09-26T10:20:28Z</time>
      </trkpt>
      <trkpt lat="43.56385" lon="6.4682">
        <ele>563.95</ele>
        <time>2015-09-26T10:20:40Z</time>
      </trkpt>
      <trkpt lat="43.56385" lon="6.46823">
        <ele>563.95</ele>
        <time>2015-09-26T10:20:43Z</time>
      </trkpt>
      <trkpt lat="43.56385" lon="6.46845">
        <ele>564.91</ele>
        <time>2015-09-26T10:20:58Z</time>
      </trkpt>
      <trkpt lat="43.5638" lon="6.4686">
        <ele>565.39</ele>
        <time>2015-09-26T10:21:09Z</time>
      </trkpt>
      <trkpt lat="43.56379" lon="6.46862">
        <ele>565.39</ele>
        <time>2015-09-26T10:21:11Z</time>
      </trkpt>
      <trkpt lat="43.56376" lon="6.46873">
        <ele>565.39</ele>
        <time>2015-09-26T10:21:18Z</time>
      </trkpt>
      <trkpt lat="43.56372" lon="6.46879">
        <ele>565.87</ele>
        <time>2015-09-26T10:21:24Z</time>
      </trkpt>
      <trkpt lat="43.56369" lon="6.46887">
        <ele>565.87</ele>
        <time>2015-09-26T10:21:30Z</time>
      </trkpt>
      <trkpt lat="43.56361" lon="6.46904">
        <ele>566.35</ele>
        <time>2015-09-26T10:21:44Z</time>
      </trkpt>
      <trkpt lat="43.56356" lon="6.46909">
        <ele>566.83</ele>
        <time>2015-09-26T10:21:50Z</time>
      </trkpt>
      <trkpt lat="43.56352" lon="6.46913">
        <ele>566.83</ele>
        <time>2015-09-26T10:21:55Z</time>
      </trkpt>
      <trkpt lat="43.56349" lon="6.46918">
        <ele>566.83</ele>
        <time>2015-09-26T10:21:59Z</time>
      </trkpt>
      <trkpt lat="43.5634" lon="6.46929">
        <ele>566.83</ele>
        <time>2015-09-26T10:22:10Z</time>
      </trkpt>
      <trkpt lat="43.56336" lon="6.46933">
        <ele>566.83</ele>
        <time>2015-09-26T10:22:14Z</time>
      </trkpt>
      <trkpt lat="43.56331" lon="6.46937">
        <ele>567.32</ele>
        <time>2015-09-26T10:22:20Z</time>
      </trkpt>
      <trkpt lat="43.56325" lon="6.46947">
        <ele>567.32</ele>
        <time>2015-09-26T10:22:28Z</time>
      </trkpt>
      <trkpt lat="43.56319" lon="6.46956">
        <ele>567.8</ele>
        <time>2015-09-26T10:22:37Z</time>
      </trkpt>
      <trkpt lat="43.5631" lon="6.46968">
        <ele>568.28</ele>
        <time>2015-09-26T10:22:48Z</time>
      </trkpt>
      <trkpt lat="43.56303" lon="6.46976">
        <ele>568.28</ele>
        <time>2015-09-26T10:22:56Z</time>
      </trkpt>
      <trkpt lat="43.56301" lon="6.46978">
        <ele>568.28</ele>
        <time>2015-09-26T10:22:58Z</time>
      </trkpt>
      <trkpt lat="43.56297" lon="6.46986">
        <ele>568.76</ele>
        <time>2015-09-26T10:23:05Z</time>
      </trkpt>
      <trkpt lat="43.56291" lon="6.46993">
        <ele>568.76</ele>
        <time>2015-09-26T10:23:12Z</time>
      </trkpt>
      <trkpt lat="43.56281" lon="6.47011">
        <ele>568.76</ele>
        <time>2015-09-26T10:23:26Z</time>
      </trkpt>
      <trkpt lat="43.56275" lon="6.47028">
        <ele>569.24</ele>
        <time>2015-09-26T10:23:38Z</time>
      </trkpt>
      <trkpt lat="43.56272" lon="6.47034">
        <ele>568.76</ele>
        <time>2015-09-26T10:23:43Z</time>
      </trkpt>
      <trkpt lat="43.5627" lon="6.4704">
        <ele>568.76</ele>
        <time>2015-09-26T10:23:47Z</time>
      </trkpt>
      <trkpt lat="43.56262" lon="6.47058">
        <ele>568.76</ele>
        <time>2015-09-26T10:24:00Z</time>
      </trkpt>
      <trkpt lat="43.56261" lon="6.47059">
        <ele>568.76</ele>
        <time>2015-09-26T10:24:01Z</time>
      </trkpt>
      <trkpt lat="43.56249" lon="6.47075">
        <ele>567.8</ele>
        <time>2015-09-26T10:24:15Z</time>
      </trkpt>
      <trkpt lat="43.56247" lon="6.47078">
        <ele>567.8</ele>
        <time>2015-09-26T10:24:17Z</time>
      </trkpt>
      <trkpt lat="43.56242" lon="6.47084">
        <ele>567.32</ele>
        <time>2015-09-26T10:24:22Z</time>
      </trkpt>
      <trkpt lat="43.56239" lon="6.47088">
        <ele>566.83</ele>
        <time>2015-09-26T10:24:25Z</time>
      </trkpt>
      <trkpt lat="43.56235" lon="6.47093">
        <ele>566.35</ele>
        <time>2015-09-26T10:24:29Z</time>
      </trkpt>
      <trkpt lat="43.56231" lon="6.47098">
        <ele>566.35</ele>
        <time>2015-09-26T10:24:34Z</time>
      </trkpt>
      <trkpt lat="43.56228" lon="6.47102">
        <ele>565.87</ele>
        <time>2015-09-26T10:24:38Z</time>
      </trkpt>
      <trkpt lat="43.56226" lon="6.47105">
        <ele>565.39</ele>
        <time>2015-09-26T10:24:41Z</time>
      </trkpt>
      <trkpt lat="43.56221" lon="6.47111">
        <ele>564.91</ele>
        <time>2015-09-26T10:24:46Z</time>
      </trkpt>
      <trkpt lat="43.56216" lon="6.47115">
        <ele>564.91</ele>
        <time>2015-09-26T10:24:51Z</time>
      </trkpt>
      <trkpt lat="43.56203" lon="6.47123">
        <ele>563.47</ele>
        <time>2015-09-26T10:25:04Z</time>
      </trkpt>
      <trkpt lat="43.56201" lon="6.47125">
        <ele>562.99</ele>
        <time>2015-09-26T10:25:07Z</time>
      </trkpt>
      <trkpt lat="43.56197" lon="6.47129">
        <ele>562.99</ele>
        <time>2015-09-26T10:25:12Z</time>
      </trkpt>
      <trkpt lat="43.56186" lon="6.47138">
        <ele>562.03</ele>
        <time>2015-09-26T10:25:26Z</time>
      </trkpt>
      <trkpt lat="43.56174" lon="6.47145">
        <ele>561.07</ele>
        <time>2015-09-26T10:25:38Z</time>
      </trkpt>
      <trkpt lat="43.5617" lon="6.47149">
        <ele>560.59</ele>
        <time>2015-09-26T10:25:43Z</time>
      </trkpt>
      <trkpt lat="43.56168" lon="6.47151">
        <ele>560.59</ele>
        <time>2015-09-26T10:25:45Z</time>
      </trkpt>
      <trkpt lat="43.5616" lon="6.47164">
        <ele>560.11</ele>
        <time>2015-09-26T10:25:55Z</time>
      </trkpt>
      <trkpt lat="43.56154" lon="6.47181">
        <ele>559.14</ele>
        <time>2015-09-26T10:26:07Z</time>
      </trkpt>
      <trkpt lat="43.56153" lon="6.47183">
        <ele>559.14</ele>
        <time>2015-09-26T10:26:09Z</time>
      </trkpt>
      <trkpt lat="43.56151" lon="6.47186">
        <ele>558.66</ele>
        <time>2015-09-26T10:26:12Z</time>
      </trkpt>
      <trkpt lat="43.56147" lon="6.47193">
        <ele>558.18</ele>
        <time>2015-09-26T10:26:18Z</time>
      </trkpt>
      <trkpt lat="43.56146" lon="6.47195">
        <ele>558.18</ele>
        <time>2015-09-26T10:26:20Z</time>
      </trkpt>
      <trkpt lat="43.56142" lon="6.47218">
        <ele>556.26</ele>
        <time>2015-09-26T10:26:35Z</time>
      </trkpt>
      <trkpt lat="43.5614" lon="6.47225">
        <ele>557.22</ele>
        <time>2015-09-26T10:26:40Z</time>
      </trkpt>
      <trkpt lat="43.56133" lon="6.47234">
        <ele>555.78</ele>
        <time>2015-09-26T10:26:49Z</time>
      </trkpt>
      <trkpt lat="43.56123" lon="6.47252">
        <ele>554.82</ele>
        <time>2015-09-26T10:27:02Z</time>
      </trkpt>
      <trkpt lat="43.56112" lon="6.47267">
        <ele>554.34</ele>
        <time>2015-09-26T10:27:15Z</time>
      </trkpt>
      <trkpt lat="43.56101" lon="6.47279">
        <ele>553.38</ele>
        <time>2015-09-26T10:27:28Z</time>
      </trkpt>
      <trkpt lat="43.56098" lon="6.47281">
        <ele>553.38</ele>
        <time>2015-09-26T10:27:31Z</time>
      </trkpt>
      <trkpt lat="43.56094" lon="6.47284">
        <ele>552.9</ele>
        <time>2015-09-26T10:27:37Z</time>
      </trkpt>
      <trkpt lat="43.56092" lon="6.47286">
        <ele>552.9</ele>
        <time>2015-09-26T10:27:39Z</time>
      </trkpt>
      <trkpt lat="43.56087" lon="6.4729">
        <ele>552.41</ele>
        <time>2015-09-26T10:27:45Z</time>
      </trkpt>
      <trkpt lat="43.56072" lon="6.473">
        <ele>550.97</ele>
        <time>2015-09-26T10:27:59Z</time>
      </trkpt>
      <trkpt lat="43.56061" lon="6.47314">
        <ele>550.01</ele>
        <time>2015-09-26T10:28:12Z</time>
      </trkpt>
      <trkpt lat="43.56059" lon="6.47319">
        <ele>550.01</ele>
        <time>2015-09-26T10:28:15Z</time>
      </trkpt>
      <trkpt lat="43.56053" lon="6.47337">
        <ele>549.05</ele>
        <time>2015-09-26T10:28:26Z</time>
      </trkpt>
      <trkpt lat="43.56041" lon="6.47351">
        <ele>549.05</ele>
        <time>2015-09-26T10:28:40Z</time>
      </trkpt>
      <trkpt lat="43.5603" lon="6.4735">
        <ele>547.13</ele>
        <time>2015-09-26T10:28:51Z</time>
      </trkpt>
      <trkpt lat="43.56026" lon="6.47349">
        <ele>546.65</ele>
        <time>2015-09-26T10:28:55Z</time>
      </trkpt>
      <trkpt lat="43.56022" lon="6.47344">
        <ele>545.69</ele>
        <time>2015-09-26T10:29:02Z</time>
      </trkpt>
      <trkpt lat="43.56008" lon="6.47334">
        <ele>544.72</ele>
        <time>2015-09-26T10:29:17Z</time>
      </trkpt>
      <trkpt lat="43.56" lon="6.47325">
        <ele>544.24</ele>
        <time>2015-09-26T10:29:30Z</time>
      </trkpt>
      <trkpt lat="43.55997" lon="6.47325">
        <ele>544.24</ele>
        <time>2015-09-26T10:29:45Z</time>
      </trkpt>
      <trkpt lat="43.55995" lon="6.47324">
        <ele>544.24</ele>
        <time>2015-09-26T10:30:09Z</time>
      </trkpt>
      <trkpt lat="43.55994" lon="6.47323">
        <ele>545.2</ele>
        <time>2015-09-26T10:30:40Z</time>
      </trkpt>
      <trkpt lat="43.55995" lon="6.47323">
        <ele>544.24</ele>
        <time>2015-09-26T10:31:04Z</time>
      </trkpt>
      <trkpt lat="43.55995" lon="6.47324">
        <ele>544.24</ele>
        <time>2015-09-26T10:31:34Z</time>
      </trkpt>
      <trkpt lat="43.55995" lon="6.47327">
        <ele>544.72</ele>
        <time>2015-09-26T10:31:49Z</time>
      </trkpt>
      <trkpt lat="43.55996" lon="6.4733">
        <ele>544.72</ele>
        <time>2015-09-26T10:32:17Z</time>
      </trkpt>
      <trkpt lat="43.55995" lon="6.47329">
        <ele>544.24</ele>
        <time>2015-09-26T10:32:44Z</time>
      </trkpt>
      <trkpt lat="43.55994" lon="6.47329">
        <ele>544.72</ele>
        <time>2015-09-26T10:33:05Z</time>
      </trkpt>
      <trkpt lat="43.55995" lon="6.47326">
        <ele>544.72</ele>
        <time>2015-09-26T10:33:24Z</time>
      </trkpt>
      <trkpt lat="43.55996" lon="6.47326">
        <ele>544.24</ele>
        <time>2015-09-26T10:33:46Z</time>
      </trkpt>
      <trkpt lat="43.55996" lon="6.47325">
        <ele>544.24</ele>
        <time>2015-09-26T10:34:11Z</time>
      </trkpt>
      <trkpt lat="43.55992" lon="6.47323">
        <ele>543.28</ele>
        <time>2015-09-26T10:34:28Z</time>
      </trkpt>
      <trkpt lat="43.55985" lon="6.47325">
        <ele>543.76</ele>
        <time>2015-09-26T10:34:41Z</time>
      </trkpt>
      <trkpt lat="43.55983" lon="6.47326">
        <ele>542.32</ele>
        <time>2015-09-26T10:34:44Z</time>
      </trkpt>
      <trkpt lat="43.55978" lon="6.47332">
        <ele>541.36</ele>
        <time>2015-09-26T10:35:00Z</time>
      </trkpt>
      <trkpt lat="43.55979" lon="6.47344">
        <ele>541.36</ele>
        <time>2015-09-26T10:35:08Z</time>
      </trkpt>
      <trkpt lat="43.55981" lon="6.47356">
        <ele>540.4</ele>
        <time>2015-09-26T10:35:15Z</time>
      </trkpt>
      <trkpt lat="43.55987" lon="6.47372">
        <ele>540.4</ele>
        <time>2015-09-26T10:35:25Z</time>
      </trkpt>
      <trkpt lat="43.55992" lon="6.47379">
        <ele>539.92</ele>
        <time>2015-09-26T10:35:31Z</time>
      </trkpt>
      <trkpt lat="43.55996" lon="6.47389">
        <ele>539.44</ele>
        <time>2015-09-26T10:35:39Z</time>
      </trkpt>
      <trkpt lat="43.56003" lon="6.47411">
        <ele>537.99</ele>
        <time>2015-09-26T10:35:54Z</time>
      </trkpt>
      <trkpt lat="43.56006" lon="6.47412">
        <ele>537.99</ele>
        <time>2015-09-26T10:36:08Z</time>
      </trkpt>
      <trkpt lat="43.56008" lon="6.47424">
        <ele>537.03</ele>
        <time>2015-09-26T10:36:27Z</time>
      </trkpt>
      <trkpt lat="43.56008" lon="6.47432">
        <ele>537.03</ele>
        <time>2015-09-26T10:36:32Z</time>
      </trkpt>
      <trkpt lat="43.56014" lon="6.47455">
        <ele>535.11</ele>
        <time>2015-09-26T10:36:47Z</time>
      </trkpt>
      <trkpt lat="43.56017" lon="6.4746">
        <ele>535.11</ele>
        <time>2015-09-26T10:37:03Z</time>
      </trkpt>
      <trkpt lat="43.56017" lon="6.47458">
        <ele>535.11</ele>
        <time>2015-09-26T10:37:28Z</time>
      </trkpt>
      <trkpt lat="43.56014" lon="6.47456">
        <ele>535.11</ele>
        <time>2015-09-26T10:37:48Z</time>
      </trkpt>
      <trkpt lat="43.56015" lon="6.4746">
        <ele>534.63</ele>
        <time>2015-09-26T10:38:06Z</time>
      </trkpt>
      <trkpt lat="43.56016" lon="6.47468">
        <ele>534.15</ele>
        <time>2015-09-26T10:38:12Z</time>
      </trkpt>
      <trkpt lat="43.56018" lon="6.4748">
        <ele>533.19</ele>
        <time>2015-09-26T10:38:20Z</time>
      </trkpt>
      <trkpt lat="43.56024" lon="6.475">
        <ele>532.23</ele>
        <time>2015-09-26T10:38:34Z</time>
      </trkpt>
      <trkpt lat="43.56031" lon="6.47516">
        <ele>531.75</ele>
        <time>2015-09-26T10:38:46Z</time>
      </trkpt>
      <trkpt lat="43.56033" lon="6.47521">
        <ele>531.27</ele>
        <time>2015-09-26T10:38:50Z</time>
      </trkpt>
      <trkpt lat="43.56036" lon="6.47527">
        <ele>531.75</ele>
        <time>2015-09-26T10:38:55Z</time>
      </trkpt>
      <trkpt lat="43.56046" lon="6.47545">
        <ele>530.3</ele>
        <time>2015-09-26T10:39:10Z</time>
      </trkpt>
      <trkpt lat="43.56053" lon="6.4756">
        <ele>528.86</ele>
        <time>2015-09-26T10:39:23Z</time>
      </trkpt>
      <trkpt lat="43.56062" lon="6.47576">
        <ele>527.9</ele>
        <time>2015-09-26T10:39:36Z</time>
      </trkpt>
      <trkpt lat="43.56065" lon="6.47579">
        <ele>527.9</ele>
        <time>2015-09-26T10:39:39Z</time>
      </trkpt>
      <trkpt lat="43.5608" lon="6.47584">
        <ele>527.42</ele>
        <time>2015-09-26T10:39:52Z</time>
      </trkpt>
      <trkpt lat="43.56092" lon="6.47583">
        <ele>526.94</ele>
        <time>2015-09-26T10:40:02Z</time>
      </trkpt>
      <trkpt lat="43.56109" lon="6.47581">
        <ele>525.98</ele>
        <time>2015-09-26T10:40:17Z</time>
      </trkpt>
      <trkpt lat="43.56114" lon="6.4758">
        <ele>525.5</ele>
        <time>2015-09-26T10:40:21Z</time>
      </trkpt>
      <trkpt lat="43.56127" lon="6.47577">
        <ele>525.02</ele>
        <time>2015-09-26T10:40:32Z</time>
      </trkpt>
      <trkpt lat="43.56143" lon="6.47573">
        <ele>524.54</ele>
        <time>2015-09-26T10:40:46Z</time>
      </trkpt>
      <trkpt lat="43.56146" lon="6.47573">
        <ele>524.54</ele>
        <time>2015-09-26T10:40:49Z</time>
      </trkpt>
      <trkpt lat="43.56159" lon="6.47584">
        <ele>524.06</ele>
        <time>2015-09-26T10:41:02Z</time>
      </trkpt>
      <trkpt lat="43.56172" lon="6.47594">
        <ele>522.61</ele>
        <time>2015-09-26T10:41:16Z</time>
      </trkpt>
      <trkpt lat="43.56181" lon="6.47598">
        <ele>521.17</ele>
        <time>2015-09-26T10:41:26Z</time>
      </trkpt>
      <trkpt lat="43.56183" lon="6.47604">
        <ele>521.65</ele>
        <time>2015-09-26T10:41:31Z</time>
      </trkpt>
      <trkpt lat="43.56186" lon="6.47622">
        <ele>520.69</ele>
        <time>2015-09-26T10:41:44Z</time>
      </trkpt>
      <trkpt lat="43.56188" lon="6.47632">
        <ele>520.21</ele>
        <time>2015-09-26T10:41:52Z</time>
      </trkpt>
      <trkpt lat="43.56189" lon="6.47636">
        <ele>519.73</ele>
        <time>2015-09-26T10:41:54Z</time>
      </trkpt>
      <trkpt lat="43.5619" lon="6.47641">
        <ele>519.73</ele>
        <time>2015-09-26T10:41:57Z</time>
      </trkpt>
      <trkpt lat="43.56195" lon="6.47661">
        <ele>518.29</ele>
        <time>2015-09-26T10:42:11Z</time>
      </trkpt>
      <trkpt lat="43.562" lon="6.47675">
        <ele>517.81</ele>
        <time>2015-09-26T10:42:22Z</time>
      </trkpt>
      <trkpt lat="43.56204" lon="6.47694">
        <ele>517.33</ele>
        <time>2015-09-26T10:42:33Z</time>
      </trkpt>
      <trkpt lat="43.56206" lon="6.47699">
        <ele>517.33</ele>
        <time>2015-09-26T10:42:36Z</time>
      </trkpt>
      <trkpt lat="43.56212" lon="6.47712">
        <ele>517.33</ele>
        <time>2015-09-26T10:42:46Z</time>
      </trkpt>
      <trkpt lat="43.56213" lon="6.47719">
        <ele>517.33</ele>
        <time>2015-09-26T10:42:50Z</time>
      </trkpt>
      <trkpt lat="43.56215" lon="6.47727">
        <ele>517.81</ele>
        <time>2015-09-26T10:42:55Z</time>
      </trkpt>
      <trkpt lat="43.56218" lon="6.47749">
        <ele>517.81</ele>
        <time>2015-09-26T10:43:10Z</time>
      </trkpt>
      <trkpt lat="43.56217" lon="6.47763">
        <ele>517.81</ele>
        <time>2015-09-26T10:43:20Z</time>
      </trkpt>
      <trkpt lat="43.56214" lon="6.4778">
        <ele>517.33</ele>
        <time>2015-09-26T10:43:33Z</time>
      </trkpt>
      <trkpt lat="43.56213" lon="6.47784">
        <ele>516.85</ele>
        <time>2015-09-26T10:43:36Z</time>
      </trkpt>
      <trkpt lat="43.56212" lon="6.47787">
        <ele>516.85</ele>
        <time>2015-09-26T10:43:38Z</time>
      </trkpt>
      <trkpt lat="43.56211" lon="6.47795">
        <ele>516.37</ele>
        <time>2015-09-26T10:43:43Z</time>
      </trkpt>
      <trkpt lat="43.56212" lon="6.47799">
        <ele>515.88</ele>
        <time>2015-09-26T10:43:46Z</time>
      </trkpt>
      <trkpt lat="43.56214" lon="6.47821">
        <ele>514.44</ele>
        <time>2015-09-26T10:43:59Z</time>
      </trkpt>
      <trkpt lat="43.56215" lon="6.47825">
        <ele>514.44</ele>
        <time>2015-09-26T10:44:01Z</time>
      </trkpt>
      <trkpt lat="43.56216" lon="6.47831">
        <ele>514.44</ele>
        <time>2015-09-26T10:44:04Z</time>
      </trkpt>
      <trkpt lat="43.5622" lon="6.47855">
        <ele>512.52</ele>
        <time>2015-09-26T10:44:19Z</time>
      </trkpt>
      <trkpt lat="43.5622" lon="6.47864">
        <ele>511.56</ele>
        <time>2015-09-26T10:44:25Z</time>
      </trkpt>
      <trkpt lat="43.5622" lon="6.47867">
        <ele>511.08</ele>
        <time>2015-09-26T10:44:28Z</time>
      </trkpt>
      <trkpt lat="43.56223" lon="6.47883">
        <ele>510.12</ele>
        <time>2015-09-26T10:44:39Z</time>
      </trkpt>
      <trkpt lat="43.56223" lon="6.47894">
        <ele>509.64</ele>
        <time>2015-09-26T10:44:45Z</time>
      </trkpt>
      <trkpt lat="43.56222" lon="6.47905">
        <ele>508.67</ele>
        <time>2015-09-26T10:44:50Z</time>
      </trkpt>
      <trkpt lat="43.56224" lon="6.47913">
        <ele>508.67</ele>
        <time>2015-09-26T10:44:55Z</time>
      </trkpt>
      <trkpt lat="43.56226" lon="6.4792">
        <ele>508.67</ele>
        <time>2015-09-26T10:44:59Z</time>
      </trkpt>
      <trkpt lat="43.56229" lon="6.47931">
        <ele>509.16</ele>
        <time>2015-09-26T10:45:04Z</time>
      </trkpt>
      <trkpt lat="43.56235" lon="6.47952">
        <ele>508.67</ele>
        <time>2015-09-26T10:45:16Z</time>
      </trkpt>
      <trkpt lat="43.56237" lon="6.47973">
        <ele>508.19</ele>
        <time>2015-09-26T10:45:29Z</time>
      </trkpt>
      <trkpt lat="43.56239" lon="6.47994">
        <ele>507.23</ele>
        <time>2015-09-26T10:45:41Z</time>
      </trkpt>
      <trkpt lat="43.5624" lon="6.48003">
        <ele>506.75</ele>
        <time>2015-09-26T10:45:47Z</time>
      </trkpt>
      <trkpt lat="43.56241" lon="6.48013">
        <ele>505.79</ele>
        <time>2015-09-26T10:45:54Z</time>
      </trkpt>
      <trkpt lat="43.5624" lon="6.48027">
        <ele>504.35</ele>
        <time>2015-09-26T10:46:09Z</time>
      </trkpt>
      <trkpt lat="43.5624" lon="6.48029">
        <ele>504.35</ele>
        <time>2015-09-26T10:46:30Z</time>
      </trkpt>
      <trkpt lat="43.56239" lon="6.4803">
        <ele>504.35</ele>
        <time>2015-09-26T10:46:55Z</time>
      </trkpt>
      <trkpt lat="43.56236" lon="6.48035">
        <ele>504.35</ele>
        <time>2015-09-26T10:47:20Z</time>
      </trkpt>
      <trkpt lat="43.56234" lon="6.48041">
        <ele>504.35</ele>
        <time>2015-09-26T10:47:31Z</time>
      </trkpt>
      <trkpt lat="43.56228" lon="6.4806">
        <ele>503.87</ele>
        <time>2015-09-26T10:47:45Z</time>
      </trkpt>
      <trkpt lat="43.56226" lon="6.48069">
        <ele>503.39</ele>
        <time>2015-09-26T10:47:51Z</time>
      </trkpt>
      <trkpt lat="43.56218" lon="6.48084">
        <ele>501.46</ele>
        <time>2015-09-26T10:48:03Z</time>
      </trkpt>
      <trkpt lat="43.56206" lon="6.48102">
        <ele>499.54</ele>
        <time>2015-09-26T10:48:17Z</time>
      </trkpt>
      <trkpt lat="43.56196" lon="6.4812">
        <ele>497.14</ele>
        <time>2015-09-26T10:48:30Z</time>
      </trkpt>
      <trkpt lat="43.56187" lon="6.48142">
        <ele>494.26</ele>
        <time>2015-09-26T10:48:44Z</time>
      </trkpt>
      <trkpt lat="43.56184" lon="6.48154">
        <ele>492.81</ele>
        <time>2015-09-26T10:48:51Z</time>
      </trkpt>
      <trkpt lat="43.56182" lon="6.48168">
        <ele>491.37</ele>
        <time>2015-09-26T10:48:59Z</time>
      </trkpt>
      <trkpt lat="43.56177" lon="6.48181">
        <ele>490.41</ele>
        <time>2015-09-26T10:49:07Z</time>
      </trkpt>
      <trkpt lat="43.56175" lon="6.48192">
        <ele>489.45</ele>
        <time>2015-09-26T10:49:13Z</time>
      </trkpt>
      <trkpt lat="43.56167" lon="6.48218">
        <ele>487.05</ele>
        <time>2015-09-26T10:49:27Z</time>
      </trkpt>
      <trkpt lat="43.56167" lon="6.4822">
        <ele>487.05</ele>
        <time>2015-09-26T10:49:28Z</time>
      </trkpt>
      <trkpt lat="43.56164" lon="6.4823">
        <ele>486.08</ele>
        <time>2015-09-26T10:49:34Z</time>
      </trkpt>
      <trkpt lat="43.56161" lon="6.48248">
        <ele>483.68</ele>
        <time>2015-09-26T10:49:45Z</time>
      </trkpt>
      <trkpt lat="43.5616" lon="6.48251">
        <ele>482.72</ele>
        <time>2015-09-26T10:49:47Z</time>
      </trkpt>
      <trkpt lat="43.5616" lon="6.48255">
        <ele>482.72</ele>
        <time>2015-09-26T10:49:49Z</time>
      </trkpt>
      <trkpt lat="43.56152" lon="6.48278">
        <ele>479.84</ele>
        <time>2015-09-26T10:50:04Z</time>
      </trkpt>
      <trkpt lat="43.56142" lon="6.48298">
        <ele>477.43</ele>
        <time>2015-09-26T10:50:17Z</time>
      </trkpt>
      <trkpt lat="43.56132" lon="6.48315">
        <ele>476.95</ele>
        <time>2015-09-26T10:50:30Z</time>
      </trkpt>
      <trkpt lat="43.5613" lon="6.48323">
        <ele>476.47</ele>
        <time>2015-09-26T10:50:35Z</time>
      </trkpt>
      <trkpt lat="43.56128" lon="6.48332">
        <ele>475.99</ele>
        <time>2015-09-26T10:50:41Z</time>
      </trkpt>
      <trkpt lat="43.56127" lon="6.48335">
        <ele>476.47</ele>
        <time>2015-09-26T10:50:43Z</time>
      </trkpt>
      <trkpt lat="43.56119" lon="6.48355">
        <ele>475.99</ele>
        <time>2015-09-26T10:50:56Z</time>
      </trkpt>
      <trkpt lat="43.56113" lon="6.48375">
        <ele>476.47</ele>
        <time>2015-09-26T10:51:10Z</time>
      </trkpt>
      <trkpt lat="43.56113" lon="6.48391">
        <ele>476.95</ele>
        <time>2015-09-26T10:51:23Z</time>
      </trkpt>
      <trkpt lat="43.56108" lon="6.48405">
        <ele>476.95</ele>
        <time>2015-09-26T10:51:36Z</time>
      </trkpt>
      <trkpt lat="43.5611" lon="6.48419">
        <ele>477.43</ele>
        <time>2015-09-26T10:51:50Z</time>
      </trkpt>
      <trkpt lat="43.56111" lon="6.4842">
        <ele>476.95</ele>
        <time>2015-09-26T10:51:51Z</time>
      </trkpt>
      <trkpt lat="43.56113" lon="6.48432">
        <ele>476.95</ele>
        <time>2015-09-26T10:51:57Z</time>
      </trkpt>
      <trkpt lat="43.56113" lon="6.48439">
        <ele>476.95</ele>
        <time>2015-09-26T10:52:12Z</time>
      </trkpt>
      <trkpt lat="43.56113" lon="6.48435">
        <ele>476.95</ele>
        <time>2015-09-26T10:52:15Z</time>
      </trkpt>
      <trkpt lat="43.56115" lon="6.4841">
        <ele>476.95</ele>
        <time>2015-09-26T10:52:29Z</time>
      </trkpt>
      <trkpt lat="43.5612" lon="6.48392">
        <ele>477.43</ele>
        <time>2015-09-26T10:52:42Z</time>
      </trkpt>
      <trkpt lat="43.56121" lon="6.48389">
        <ele>476.47</ele>
        <time>2015-09-26T10:52:45Z</time>
      </trkpt>
      <trkpt lat="43.56125" lon="6.48373">
        <ele>475.99</ele>
        <time>2015-09-26T10:52:57Z</time>
      </trkpt>
      <trkpt lat="43.56127" lon="6.48365">
        <ele>475.99</ele>
        <time>2015-09-26T10:53:03Z</time>
      </trkpt>
      <trkpt lat="43.56129" lon="6.4836">
        <ele>475.99</ele>
        <time>2015-09-26T10:53:07Z</time>
      </trkpt>
      <trkpt lat="43.56133" lon="6.48348">
        <ele>476.47</ele>
        <time>2015-09-26T10:53:18Z</time>
      </trkpt>
      <trkpt lat="43.56135" lon="6.48345">
        <ele>476.47</ele>
        <time>2015-09-26T10:53:21Z</time>
      </trkpt>
      <trkpt lat="43.56137" lon="6.4834">
        <ele>476.47</ele>
        <time>2015-09-26T10:53:36Z</time>
      </trkpt>
      <trkpt lat="43.56137" lon="6.4834">
        <ele>476.47</ele>
        <time>2015-09-26T10:53:38Z</time>
      </trkpt>
      <trkpt lat="43.56143" lon="6.48345">
        <ele>475.99</ele>
        <time>2015-09-26T10:53:47Z</time>
      </trkpt>
      <trkpt lat="43.56146" lon="6.48345">
        <ele>475.99</ele>
        <time>2015-09-26T10:53:50Z</time>
      </trkpt>
      <trkpt lat="43.56148" lon="6.48346">
        <ele>475.51</ele>
        <time>2015-09-26T10:53:53Z</time>
      </trkpt>
      <trkpt lat="43.56165" lon="6.48338">
        <ele>474.55</ele>
        <time>2015-09-26T10:54:06Z</time>
      </trkpt>
      <trkpt lat="43.56168" lon="6.48336">
        <ele>474.07</ele>
        <time>2015-09-26T10:54:10Z</time>
      </trkpt>
      <trkpt lat="43.56173" lon="6.48335">
        <ele>473.59</ele>
        <time>2015-09-26T10:54:14Z</time>
      </trkpt>
      <trkpt lat="43.56187" lon="6.48326">
        <ele>472.63</ele>
        <time>2015-09-26T10:54:27Z</time>
      </trkpt>
      <trkpt lat="43.56204" lon="6.48319">
        <ele>471.66</ele>
        <time>2015-09-26T10:54:42Z</time>
      </trkpt>
      <trkpt lat="43.5622" lon="6.48309">
        <ele>471.18</ele>
        <time>2015-09-26T10:54:55Z</time>
      </trkpt>
      <trkpt lat="43.56236" lon="6.48302">
        <ele>470.7</ele>
        <time>2015-09-26T10:55:08Z</time>
      </trkpt>
      <trkpt lat="43.56254" lon="6.48307">
        <ele>470.7</ele>
        <time>2015-09-26T10:55:24Z</time>
      </trkpt>
      <trkpt lat="43.56262" lon="6.48321">
        <ele>470.7</ele>
        <time>2015-09-26T10:55:38Z</time>
      </trkpt>
      <trkpt lat="43.56273" lon="6.4833">
        <ele>471.18</ele>
        <time>2015-09-26T10:55:49Z</time>
      </trkpt>
      <trkpt lat="43.56278" lon="6.48335">
        <ele>471.66</ele>
        <time>2015-09-26T10:55:52Z</time>
      </trkpt>
      <trkpt lat="43.56292" lon="6.48354">
        <ele>472.63</ele>
        <time>2015-09-26T10:56:06Z</time>
      </trkpt>
      <trkpt lat="43.56305" lon="6.48364">
        <ele>473.59</ele>
        <time>2015-09-26T10:56:19Z</time>
      </trkpt>
      <trkpt lat="43.5631" lon="6.4837">
        <ele>473.59</ele>
        <time>2015-09-26T10:56:23Z</time>
      </trkpt>
      <trkpt lat="43.56315" lon="6.48375">
        <ele>474.07</ele>
        <time>2015-09-26T10:56:27Z</time>
      </trkpt>
      <trkpt lat="43.56323" lon="6.48376">
        <ele>475.03</ele>
        <time>2015-09-26T10:56:34Z</time>
      </trkpt>
      <trkpt lat="43.56327" lon="6.48382">
        <ele>475.03</ele>
        <time>2015-09-26T10:56:38Z</time>
      </trkpt>
      <trkpt lat="43.56332" lon="6.48389">
        <ele>475.51</ele>
        <time>2015-09-26T10:56:44Z</time>
      </trkpt>
      <trkpt lat="43.56338" lon="6.48399">
        <ele>476.47</ele>
        <time>2015-09-26T10:56:56Z</time>
      </trkpt>
      <trkpt lat="43.56339" lon="6.4841">
        <ele>477.43</ele>
        <time>2015-09-26T10:57:04Z</time>
      </trkpt>
      <trkpt lat="43.56345" lon="6.48415">
        <ele>478.39</ele>
        <time>2015-09-26T10:57:10Z</time>
      </trkpt>
      <trkpt lat="43.5635" lon="6.48417">
        <ele>478.87</ele>
        <time>2015-09-26T10:57:14Z</time>
      </trkpt>
      <trkpt lat="43.56355" lon="6.4842">
        <ele>479.84</ele>
        <time>2015-09-26T10:57:19Z</time>
      </trkpt>
      <trkpt lat="43.56369" lon="6.48419">
        <ele>481.76</ele>
        <time>2015-09-26T10:57:31Z</time>
      </trkpt>
      <trkpt lat="43.56382" lon="6.48409">
        <ele>483.2</ele>
        <time>2015-09-26T10:57:43Z</time>
      </trkpt>
      <trkpt lat="43.56385" lon="6.48409">
        <ele>483.2</ele>
        <time>2015-09-26T10:57:46Z</time>
      </trkpt>
      <trkpt lat="43.56393" lon="6.48414">
        <ele>484.16</ele>
        <time>2015-09-26T10:57:55Z</time>
      </trkpt>
      <trkpt lat="43.56398" lon="6.48416">
        <ele>484.64</ele>
        <time>2015-09-26T10:58:00Z</time>
      </trkpt>
      <trkpt lat="43.56413" lon="6.4842">
        <ele>484.64</ele>
        <time>2015-09-26T10:58:14Z</time>
      </trkpt>
      <trkpt lat="43.56414" lon="6.48421">
        <ele>484.64</ele>
        <time>2015-09-26T10:58:15Z</time>
      </trkpt>
      <trkpt lat="43.56423" lon="6.48414">
        <ele>484.64</ele>
        <time>2015-09-26T10:58:28Z</time>
      </trkpt>
      <trkpt lat="43.56425" lon="6.4841">
        <ele>484.64</ele>
        <time>2015-09-26T10:58:58Z</time>
      </trkpt>
      <trkpt lat="43.56426" lon="6.48408">
        <ele>484.64</ele>
        <time>2015-09-26T10:59:26Z</time>
      </trkpt>
      <trkpt lat="43.56427" lon="6.48408">
        <ele>484.16</ele>
        <time>2015-09-26T10:59:46Z</time>
      </trkpt>
      <trkpt lat="43.56428" lon="6.48408">
        <ele>484.16</ele>
        <time>2015-09-26T11:00:22Z</time>
      </trkpt>
      <trkpt lat="43.5643" lon="6.48407">
        <ele>484.16</ele>
        <time>2015-09-26T11:00:26Z</time>
      </trkpt>
      <trkpt lat="43.56445" lon="6.48403">
        <ele>484.64</ele>
        <time>2015-09-26T11:00:42Z</time>
      </trkpt>
      <trkpt lat="43.56446" lon="6.48404">
        <ele>485.6</ele>
        <time>2015-09-26T11:00:43Z</time>
      </trkpt>
      <trkpt lat="43.56462" lon="6.48416">
        <ele>485.12</ele>
        <time>2015-09-26T11:00:57Z</time>
      </trkpt>
      <trkpt lat="43.56465" lon="6.48417">
        <ele>485.6</ele>
        <time>2015-09-26T11:00:59Z</time>
      </trkpt>
      <trkpt lat="43.56477" lon="6.48427">
        <ele>487.05</ele>
        <time>2015-09-26T11:01:14Z</time>
      </trkpt>
      <trkpt lat="43.56478" lon="6.48428">
        <ele>487.05</ele>
        <time>2015-09-26T11:01:16Z</time>
      </trkpt>
      <trkpt lat="43.56485" lon="6.48433">
        <ele>488.01</ele>
        <time>2015-09-26T11:01:23Z</time>
      </trkpt>
      <trkpt lat="43.56501" lon="6.48445">
        <ele>489.45</ele>
        <time>2015-09-26T11:01:39Z</time>
      </trkpt>
      <trkpt lat="43.56504" lon="6.48447">
        <ele>489.93</ele>
        <time>2015-09-26T11:01:42Z</time>
      </trkpt>
      <trkpt lat="43.56508" lon="6.48453">
        <ele>489.93</ele>
        <time>2015-09-26T11:01:47Z</time>
      </trkpt>
      <trkpt lat="43.56515" lon="6.48464">
        <ele>490.41</ele>
        <time>2015-09-26T11:01:55Z</time>
      </trkpt>
      <trkpt lat="43.56526" lon="6.48478">
        <ele>490.89</ele>
        <time>2015-09-26T11:02:08Z</time>
      </trkpt>
      <trkpt lat="43.56541" lon="6.48495">
        <ele>491.85</ele>
        <time>2015-09-26T11:02:23Z</time>
      </trkpt>
      <trkpt lat="43.56547" lon="6.48498">
        <ele>492.33</ele>
        <time>2015-09-26T11:02:29Z</time>
      </trkpt>
      <trkpt lat="43.56561" lon="6.48507">
        <ele>493.29</ele>
        <time>2015-09-26T11:02:42Z</time>
      </trkpt>
      <trkpt lat="43.5657" lon="6.48512">
        <ele>494.26</ele>
        <time>2015-09-26T11:02:52Z</time>
      </trkpt>
      <trkpt lat="43.56577" lon="6.48512">
        <ele>495.22</ele>
        <time>2015-09-26T11:03:04Z</time>
      </trkpt>
      <trkpt lat="43.56578" lon="6.48511">
        <ele>494.74</ele>
        <time>2015-09-26T11:03:26Z</time>
      </trkpt>
      <trkpt lat="43.56579" lon="6.48511">
        <ele>494.74</ele>
        <time>2015-09-26T11:03:47Z</time>
      </trkpt>
      <trkpt lat="43.56584" lon="6.48506">
        <ele>495.22</ele>
        <time>2015-09-26T11:04:01Z</time>
      </trkpt>
      <trkpt lat="43.56593" lon="6.48498">
        <ele>496.66</ele>
        <time>2015-09-26T11:04:14Z</time>
      </trkpt>
      <trkpt lat="43.56596" lon="6.48497">
        <ele>496.66</ele>
        <time>2015-09-26T11:04:16Z</time>
      </trkpt>
      <trkpt lat="43.56607" lon="6.48485">
        <ele>498.58</ele>
        <time>2015-09-26T11:04:30Z</time>
      </trkpt>
      <trkpt lat="43.56613" lon="6.48478">
        <ele>499.06</ele>
        <time>2015-09-26T11:04:43Z</time>
      </trkpt>
      <trkpt lat="43.56623" lon="6.48482">
        <ele>498.1</ele>
        <time>2015-09-26T11:04:56Z</time>
      </trkpt>
      <trkpt lat="43.56637" lon="6.48478">
        <ele>497.14</ele>
        <time>2015-09-26T11:05:11Z</time>
      </trkpt>
      <trkpt lat="43.56647" lon="6.48472">
        <ele>496.66</ele>
        <time>2015-09-26T11:05:25Z</time>
      </trkpt>
      <trkpt lat="43.56649" lon="6.48472">
        <ele>495.22</ele>
        <time>2015-09-26T11:05:41Z</time>
      </trkpt>
      <trkpt lat="43.56652" lon="6.48474">
        <ele>494.26</ele>
        <time>2015-09-26T11:05:51Z</time>
      </trkpt>
      <trkpt lat="43.56654" lon="6.48474">
        <ele>493.77</ele>
        <time>2015-09-26T11:06:09Z</time>
      </trkpt>
      <trkpt lat="43.56655" lon="6.48473">
        <ele>493.77</ele>
        <time>2015-09-26T11:06:36Z</time>
      </trkpt>
      <trkpt lat="43.56655" lon="6.48474">
        <ele>493.77</ele>
        <time>2015-09-26T11:07:02Z</time>
      </trkpt>
      <trkpt lat="43.56655" lon="6.48474">
        <ele>493.77</ele>
        <time>2015-09-26T11:07:32Z</time>
      </trkpt>
      <trkpt lat="43.56655" lon="6.48474">
        <ele>493.29</ele>
        <time>2015-09-26T11:07:58Z</time>
      </trkpt>
      <trkpt lat="43.56656" lon="6.48472">
        <ele>494.26</ele>
        <time>2015-09-26T11:08:19Z</time>
      </trkpt>
      <trkpt lat="43.56657" lon="6.48472">
        <ele>493.77</ele>
        <time>2015-09-26T11:08:53Z</time>
      </trkpt>
      <trkpt lat="43.56657" lon="6.48472">
        <ele>493.29</ele>
        <time>2015-09-26T11:09:26Z</time>
      </trkpt>
      <trkpt lat="43.56657" lon="6.48471">
        <ele>492.81</ele>
        <time>2015-09-26T11:09:37Z</time>
      </trkpt>
      <trkpt lat="43.56656" lon="6.48466">
        <ele>492.33</ele>
        <time>2015-09-26T11:09:52Z</time>
      </trkpt>
      <trkpt lat="43.56655" lon="6.48466">
        <ele>492.33</ele>
        <time>2015-09-26T11:10:14Z</time>
      </trkpt>
      <trkpt lat="43.56655" lon="6.48465">
        <ele>492.33</ele>
        <time>2015-09-26T11:10:42Z</time>
      </trkpt>
      <trkpt lat="43.56656" lon="6.48464">
        <ele>492.33</ele>
        <time>2015-09-26T11:11:04Z</time>
      </trkpt>
      <trkpt lat="43.56655" lon="6.48464">
        <ele>492.33</ele>
        <time>2015-09-26T11:11:28Z</time>
      </trkpt>
      <trkpt lat="43.56655" lon="6.48464">
        <ele>492.33</ele>
        <time>2015-09-26T11:11:55Z</time>
      </trkpt>
      <trkpt lat="43.56654" lon="6.48464">
        <ele>492.33</ele>
        <time>2015-09-26T11:12:20Z</time>
      </trkpt>
      <trkpt lat="43.56654" lon="6.48463">
        <ele>492.33</ele>
        <time>2015-09-26T11:12:57Z</time>
      </trkpt>
      <trkpt lat="43.56655" lon="6.48463">
        <ele>492.33</ele>
        <time>2015-09-26T11:13:34Z</time>
      </trkpt>
      <trkpt lat="43.56654" lon="6.48464">
        <ele>492.33</ele>
        <time>2015-09-26T11:14:02Z</time>
      </trkpt>
      <trkpt lat="43.56654" lon="6.48464">
        <ele>491.85</ele>
        <time>2015-09-26T11:14:34Z</time>
      </trkpt>
      <trkpt lat="43.56654" lon="6.48464">
        <ele>491.85</ele>
        <time>2015-09-26T11:15:05Z</time>
      </trkpt>
      <trkpt lat="43.56654" lon="6.48464">
        <ele>491.85</ele>
        <time>2015-09-26T11:15:40Z</time>
      </trkpt>
      <trkpt lat="43.56654" lon="6.48465">
        <ele>491.37</ele>
        <time>2015-09-26T11:15:58Z</time>
      </trkpt>
      <trkpt lat="43.56655" lon="6.48467">
        <ele>491.37</ele>
        <time>2015-09-26T11:16:33Z</time>
      </trkpt>
      <trkpt lat="43.56655" lon="6.48467">
        <ele>491.37</ele>
        <time>2015-09-26T11:17:08Z</time>
      </trkpt>
      <trkpt lat="43.56655" lon="6.48467">
        <ele>491.37</ele>
        <time>2015-09-26T11:17:42Z</time>
      </trkpt>
      <trkpt lat="43.56655" lon="6.48466">
        <ele>491.37</ele>
        <time>2015-09-26T11:18:13Z</time>
      </trkpt>
      <trkpt lat="43.56654" lon="6.48465">
        <ele>490.89</ele>
        <time>2015-09-26T11:18:39Z</time>
      </trkpt>
      <trkpt lat="43.56654" lon="6.48466">
        <ele>490.89</ele>
        <time>2015-09-26T11:19:04Z</time>
      </trkpt>
      <trkpt lat="43.56654" lon="6.48465">
        <ele>491.37</ele>
        <time>2015-09-26T11:19:22Z</time>
      </trkpt>
      <trkpt lat="43.56654" lon="6.48464">
        <ele>491.37</ele>
        <time>2015-09-26T11:19:52Z</time>
      </trkpt>
      <trkpt lat="43.56654" lon="6.48464">
        <ele>490.41</ele>
        <time>2015-09-26T11:20:23Z</time>
      </trkpt>
      <trkpt lat="43.56654" lon="6.48464">
        <ele>491.85</ele>
        <time>2015-09-26T11:20:45Z</time>
      </trkpt>
      <trkpt lat="43.56654" lon="6.48465">
        <ele>490.89</ele>
        <time>2015-09-26T11:21:14Z</time>
      </trkpt>
      <trkpt lat="43.56654" lon="6.48466">
        <ele>490.89</ele>
        <time>2015-09-26T11:21:47Z</time>
      </trkpt>
      <trkpt lat="43.56654" lon="6.48466">
        <ele>490.89</ele>
        <time>2015-09-26T11:22:22Z</time>
      </trkpt>
      <trkpt lat="43.56655" lon="6.48467">
        <ele>490.89</ele>
        <time>2015-09-26T11:22:54Z</time>
      </trkpt>
      <trkpt lat="43.56655" lon="6.48467">
        <ele>490.89</ele>
        <time>2015-09-26T11:23:28Z</time>
      </trkpt>
      <trkpt lat="43.56655" lon="6.48468">
        <ele>490.89</ele>
        <time>2015-09-26T11:24:00Z</time>
      </trkpt>
      <trkpt lat="43.56656" lon="6.48469">
        <ele>490.89</ele>
        <time>2015-09-26T11:24:34Z</time>
      </trkpt>
      <trkpt lat="43.56656" lon="6.48469">
        <ele>490.89</ele>
        <time>2015-09-26T11:25:12Z</time>
      </trkpt>
      <trkpt lat="43.56656" lon="6.48469">
        <ele>490.89</ele>
        <time>2015-09-26T11:25:45Z</time>
      </trkpt>
      <trkpt lat="43.56656" lon="6.48468">
        <ele>489.93</ele>
        <time>2015-09-26T11:26:10Z</time>
      </trkpt>
      <trkpt lat="43.56655" lon="6.48467">
        <ele>490.41</ele>
        <time>2015-09-26T11:26:41Z</time>
      </trkpt>
      <trkpt lat="43.56655" lon="6.48467">
        <ele>490.41</ele>
        <time>2015-09-26T11:26:49Z</time>
      </trkpt>
      <trkpt lat="43.56655" lon="6.48466">
        <ele>490.89</ele>
        <time>2015-09-26T11:27:16Z</time>
      </trkpt>
      <trkpt lat="43.56655" lon="6.48465">
        <ele>490.89</ele>
        <time>2015-09-26T11:27:48Z</time>
      </trkpt>
      <trkpt lat="43.56656" lon="6.48463">
        <ele>490.89</ele>
        <time>2015-09-26T11:28:24Z</time>
      </trkpt>
      <trkpt lat="43.56656" lon="6.48463">
        <ele>490.41</ele>
        <time>2015-09-26T11:29:01Z</time>
      </trkpt>
      <trkpt lat="43.56656" lon="6.48464">
        <ele>490.41</ele>
        <time>2015-09-26T11:29:29Z</time>
      </trkpt>
      <trkpt lat="43.56657" lon="6.48465">
        <ele>490.41</ele>
        <time>2015-09-26T11:29:59Z</time>
      </trkpt>
      <trkpt lat="43.56656" lon="6.48466">
        <ele>490.41</ele>
        <time>2015-09-26T11:30:36Z</time>
      </trkpt>
      <trkpt lat="43.56656" lon="6.48466">
        <ele>490.41</ele>
        <time>2015-09-26T11:31:08Z</time>
      </trkpt>
      <trkpt lat="43.56657" lon="6.48466">
        <ele>490.41</ele>
        <time>2015-09-26T11:31:37Z</time>
      </trkpt>
      <trkpt lat="43.56657" lon="6.48467">
        <ele>490.41</ele>
        <time>2015-09-26T11:32:09Z</time>
      </trkpt>
      <trkpt lat="43.56657" lon="6.48467">
        <ele>490.41</ele>
        <time>2015-09-26T11:32:43Z</time>
      </trkpt>
      <trkpt lat="43.56657" lon="6.48467">
        <ele>490.41</ele>
        <time>2015-09-26T11:33:13Z</time>
      </trkpt>
      <trkpt lat="43.56658" lon="6.48467">
        <ele>490.89</ele>
        <time>2015-09-26T11:33:45Z</time>
      </trkpt>
      <trkpt lat="43.56657" lon="6.48467">
        <ele>490.89</ele>
        <time>2015-09-26T11:34:02Z</time>
      </trkpt>
      <trkpt lat="43.56657" lon="6.48466">
        <ele>490.89</ele>
        <time>2015-09-26T11:34:27Z</time>
      </trkpt>
      <trkpt lat="43.56658" lon="6.48466">
        <ele>490.89</ele>
        <time>2015-09-26T11:34:45Z</time>
      </trkpt>
      <trkpt lat="43.56657" lon="6.48466">
        <ele>490.89</ele>
        <time>2015-09-26T11:35:01Z</time>
      </trkpt>
      <trkpt lat="43.56657" lon="6.48465">
        <ele>490.89</ele>
        <time>2015-09-26T11:35:20Z</time>
      </trkpt>
      <trkpt lat="43.56656" lon="6.48465">
        <ele>490.89</ele>
        <time>2015-09-26T11:35:47Z</time>
      </trkpt>
      <trkpt lat="43.56655" lon="6.48465">
        <ele>490.89</ele>
        <time>2015-09-26T11:36:21Z</time>
      </trkpt>
      <trkpt lat="43.56656" lon="6.48464">
        <ele>490.89</ele>
        <time>2015-09-26T11:36:51Z</time>
      </trkpt>
      <trkpt lat="43.56656" lon="6.48463">
        <ele>490.89</ele>
        <time>2015-09-26T11:37:21Z</time>
      </trkpt>
      <trkpt lat="43.56655" lon="6.48463">
        <ele>490.89</ele>
        <time>2015-09-26T11:37:51Z</time>
      </trkpt>
      <trkpt lat="43.56655" lon="6.48462">
        <ele>490.89</ele>
        <time>2015-09-26T11:38:26Z</time>
      </trkpt>
      <trkpt lat="43.56654" lon="6.48461">
        <ele>490.89</ele>
        <time>2015-09-26T11:38:58Z</time>
      </trkpt>
      <trkpt lat="43.56654" lon="6.48461">
        <ele>490.89</ele>
        <time>2015-09-26T11:39:31Z</time>
      </trkpt>
      <trkpt lat="43.56652" lon="6.48461">
        <ele>490.41</ele>
        <time>2015-09-26T11:40:06Z</time>
      </trkpt>
      <trkpt lat="43.56652" lon="6.48465">
        <ele>491.37</ele>
        <time>2015-09-26T11:40:21Z</time>
      </trkpt>
      <trkpt lat="43.56653" lon="6.48467">
        <ele>490.89</ele>
        <time>2015-09-26T11:40:39Z</time>
      </trkpt>
      <trkpt lat="43.56653" lon="6.48468">
        <ele>490.89</ele>
        <time>2015-09-26T11:40:55Z</time>
      </trkpt>
      <trkpt lat="43.56652" lon="6.48464">
        <ele>490.41</ele>
        <time>2015-09-26T11:41:12Z</time>
      </trkpt>
      <trkpt lat="43.56651" lon="6.48462">
        <ele>491.37</ele>
        <time>2015-09-26T11:41:28Z</time>
      </trkpt>
      <trkpt lat="43.56649" lon="6.4846">
        <ele>492.81</ele>
        <time>2015-09-26T11:41:41Z</time>
      </trkpt>
      <trkpt lat="43.56645" lon="6.48466">
        <ele>493.77</ele>
        <time>2015-09-26T11:41:55Z</time>
      </trkpt>
      <trkpt lat="43.56643" lon="6.48467">
        <ele>494.26</ele>
        <time>2015-09-26T11:42:14Z</time>
      </trkpt>
      <trkpt lat="43.56638" lon="6.48475">
        <ele>493.77</ele>
        <time>2015-09-26T11:42:30Z</time>
      </trkpt>
      <trkpt lat="43.56638" lon="6.48481">
        <ele>492.81</ele>
        <time>2015-09-26T11:42:42Z</time>
      </trkpt>
      <trkpt lat="43.5664" lon="6.48484">
        <ele>491.85</ele>
        <time>2015-09-26T11:42:58Z</time>
      </trkpt>
      <trkpt lat="43.56641" lon="6.48486">
        <ele>491.85</ele>
        <time>2015-09-26T11:43:16Z</time>
      </trkpt>
      <trkpt lat="43.5664" lon="6.48485">
        <ele>492.81</ele>
        <time>2015-09-26T11:43:21Z</time>
      </trkpt>
      <trkpt lat="43.5664" lon="6.48477">
        <ele>494.26</ele>
        <time>2015-09-26T11:43:33Z</time>
      </trkpt>
      <trkpt lat="43.56645" lon="6.48473">
        <ele>493.29</ele>
        <time>2015-09-26T11:43:46Z</time>
      </trkpt>
      <trkpt lat="43.56648" lon="6.48471">
        <ele>493.29</ele>
        <time>2015-09-26T11:43:59Z</time>
      </trkpt>
      <trkpt lat="43.56648" lon="6.48471">
        <ele>493.29</ele>
        <time>2015-09-26T11:44:28Z</time>
      </trkpt>
      <trkpt lat="43.56649" lon="6.4847">
        <ele>493.29</ele>
        <time>2015-09-26T11:45:04Z</time>
      </trkpt>
      <trkpt lat="43.56648" lon="6.48469">
        <ele>493.29</ele>
        <time>2015-09-26T11:45:23Z</time>
      </trkpt>
      <trkpt lat="43.56648" lon="6.48469">
        <ele>492.81</ele>
        <time>2015-09-26T11:45:51Z</time>
      </trkpt>
      <trkpt lat="43.56648" lon="6.48469">
        <ele>493.29</ele>
        <time>2015-09-26T11:46:16Z</time>
      </trkpt>
      <trkpt lat="43.56648" lon="6.48469">
        <ele>493.29</ele>
        <time>2015-09-26T11:46:38Z</time>
      </trkpt>
      <trkpt lat="43.56649" lon="6.4847">
        <ele>493.29</ele>
        <time>2015-09-26T11:47:03Z</time>
      </trkpt>
      <trkpt lat="43.56649" lon="6.4847">
        <ele>493.29</ele>
        <time>2015-09-26T11:47:30Z</time>
      </trkpt>
      <trkpt lat="43.56649" lon="6.4847">
        <ele>492.81</ele>
        <time>2015-09-26T11:48:03Z</time>
      </trkpt>
      <trkpt lat="43.56648" lon="6.4847">
        <ele>492.81</ele>
        <time>2015-09-26T11:48:34Z</time>
      </trkpt>
      <trkpt lat="43.56648" lon="6.4847">
        <ele>492.81</ele>
        <time>2015-09-26T11:49:08Z</time>
      </trkpt>
      <trkpt lat="43.56645" lon="6.48469">
        <ele>493.77</ele>
        <time>2015-09-26T11:49:30Z</time>
      </trkpt>
      <trkpt lat="43.56645" lon="6.4847">
        <ele>493.77</ele>
        <time>2015-09-26T11:49:44Z</time>
      </trkpt>
      <trkpt lat="43.56644" lon="6.48469">
        <ele>493.77</ele>
        <time>2015-09-26T11:50:03Z</time>
      </trkpt>
      <trkpt lat="43.56644" lon="6.48469">
        <ele>493.77</ele>
        <time>2015-09-26T11:50:30Z</time>
      </trkpt>
      <trkpt lat="43.56644" lon="6.48469">
        <ele>493.77</ele>
        <time>2015-09-26T11:50:55Z</time>
      </trkpt>
      <trkpt lat="43.56644" lon="6.48469">
        <ele>493.29</ele>
        <time>2015-09-26T11:51:22Z</time>
      </trkpt>
      <trkpt lat="43.56644" lon="6.48469">
        <ele>493.29</ele>
        <time>2015-09-26T11:51:51Z</time>
      </trkpt>
      <trkpt lat="43.56643" lon="6.48469">
        <ele>493.29</ele>
        <time>2015-09-26T11:52:12Z</time>
      </trkpt>
      <trkpt lat="43.56643" lon="6.48469">
        <ele>493.29</ele>
        <time>2015-09-26T11:52:32Z</time>
      </trkpt>
      <trkpt lat="43.56643" lon="6.48468">
        <ele>493.29</ele>
        <time>2015-09-26T11:53:03Z</time>
      </trkpt>
      <trkpt lat="43.56644" lon="6.48467">
        <ele>492.81</ele>
        <time>2015-09-26T11:53:31Z</time>
      </trkpt>
      <trkpt lat="43.56644" lon="6.48466">
        <ele>492.81</ele>
        <time>2015-09-26T11:54:04Z</time>
      </trkpt>
      <trkpt lat="43.56643" lon="6.48466">
        <ele>493.29</ele>
        <time>2015-09-26T11:54:26Z</time>
      </trkpt>
      <trkpt lat="43.56642" lon="6.48466">
        <ele>493.77</ele>
        <time>2015-09-26T11:54:50Z</time>
      </trkpt>
      <trkpt lat="43.56642" lon="6.48466">
        <ele>493.77</ele>
        <time>2015-09-26T11:55:14Z</time>
      </trkpt>
      <trkpt lat="43.56637" lon="6.48475">
        <ele>492.81</ele>
        <time>2015-09-26T11:55:33Z</time>
      </trkpt>
      <trkpt lat="43.56632" lon="6.48474">
        <ele>493.29</ele>
        <time>2015-09-26T11:55:45Z</time>
      </trkpt>
      <trkpt lat="43.56624" lon="6.48477">
        <ele>494.26</ele>
        <time>2015-09-26T11:56:01Z</time>
      </trkpt>
      <trkpt lat="43.56619" lon="6.48472">
        <ele>495.22</ele>
        <time>2015-09-26T11:56:16Z</time>
      </trkpt>
      <trkpt lat="43.56617" lon="6.48468">
        <ele>495.22</ele>
        <time>2015-09-26T11:56:22Z</time>
      </trkpt>
      <trkpt lat="43.56613" lon="6.4846">
        <ele>496.18</ele>
        <time>2015-09-26T11:56:34Z</time>
      </trkpt>
      <trkpt lat="43.56617" lon="6.4845">
        <ele>498.1</ele>
        <time>2015-09-26T11:56:50Z</time>
      </trkpt>
      <trkpt lat="43.56623" lon="6.48441">
        <ele>498.58</ele>
        <time>2015-09-26T11:57:00Z</time>
      </trkpt>
      <trkpt lat="43.56628" lon="6.48429">
        <ele>499.54</ele>
        <time>2015-09-26T11:57:16Z</time>
      </trkpt>
      <trkpt lat="43.56628" lon="6.48412">
        <ele>500.98</ele>
        <time>2015-09-26T11:57:30Z</time>
      </trkpt>
      <trkpt lat="43.56632" lon="6.48395">
        <ele>501.95</ele>
        <time>2015-09-26T11:57:44Z</time>
      </trkpt>
      <trkpt lat="43.56634" lon="6.48381">
        <ele>502.43</ele>
        <time>2015-09-26T11:57:58Z</time>
      </trkpt>
      <trkpt lat="43.56635" lon="6.48366">
        <ele>503.39</ele>
        <time>2015-09-26T11:58:14Z</time>
      </trkpt>
      <trkpt lat="43.5664" lon="6.48344">
        <ele>503.87</ele>
        <time>2015-09-26T11:58:30Z</time>
      </trkpt>
      <trkpt lat="43.56642" lon="6.48331">
        <ele>503.87</ele>
        <time>2015-09-26T11:58:43Z</time>
      </trkpt>
      <trkpt lat="43.56651" lon="6.4831">
        <ele>503.39</ele>
        <time>2015-09-26T11:58:59Z</time>
      </trkpt>
      <trkpt lat="43.56656" lon="6.48294">
        <ele>503.39</ele>
        <time>2015-09-26T11:59:14Z</time>
      </trkpt>
      <trkpt lat="43.56659" lon="6.48277">
        <ele>503.87</ele>
        <time>2015-09-26T11:59:28Z</time>
      </trkpt>
      <trkpt lat="43.56661" lon="6.48266">
        <ele>503.39</ele>
        <time>2015-09-26T11:59:39Z</time>
      </trkpt>
      <trkpt lat="43.56658" lon="6.48245">
        <ele>502.43</ele>
        <time>2015-09-26T11:59:55Z</time>
      </trkpt>
      <trkpt lat="43.56661" lon="6.4823">
        <ele>501.46</ele>
        <time>2015-09-26T12:00:08Z</time>
      </trkpt>
      <trkpt lat="43.56666" lon="6.48208">
        <ele>500.98</ele>
        <time>2015-09-26T12:00:23Z</time>
      </trkpt>
      <trkpt lat="43.56665" lon="6.48187">
        <ele>500.5</ele>
        <time>2015-09-26T12:00:37Z</time>
      </trkpt>
      <trkpt lat="43.56665" lon="6.4817">
        <ele>500.98</ele>
        <time>2015-09-26T12:00:51Z</time>
      </trkpt>
      <trkpt lat="43.56666" lon="6.48152">
        <ele>501.46</ele>
        <time>2015-09-26T12:01:05Z</time>
      </trkpt>
      <trkpt lat="43.56666" lon="6.48131">
        <ele>500.98</ele>
        <time>2015-09-26T12:01:20Z</time>
      </trkpt>
      <trkpt lat="43.56666" lon="6.48116">
        <ele>501.46</ele>
        <time>2015-09-26T12:01:32Z</time>
      </trkpt>
      <trkpt lat="43.56665" lon="6.481">
        <ele>502.43</ele>
        <time>2015-09-26T12:01:45Z</time>
      </trkpt>
      <trkpt lat="43.56669" lon="6.48081">
        <ele>502.91</ele>
        <time>2015-09-26T12:02:01Z</time>
      </trkpt>
      <trkpt lat="43.56669" lon="6.48062">
        <ele>502.91</ele>
        <time>2015-09-26T12:02:14Z</time>
      </trkpt>
      <trkpt lat="43.56672" lon="6.4804">
        <ele>502.91</ele>
        <time>2015-09-26T12:02:31Z</time>
      </trkpt>
      <trkpt lat="43.56674" lon="6.48019">
        <ele>502.43</ele>
        <time>2015-09-26T12:02:45Z</time>
      </trkpt>
      <trkpt lat="43.56676" lon="6.48003">
        <ele>503.39</ele>
        <time>2015-09-26T12:02:59Z</time>
      </trkpt>
      <trkpt lat="43.56676" lon="6.47993">
        <ele>504.35</ele>
        <time>2015-09-26T12:03:09Z</time>
      </trkpt>
      <trkpt lat="43.56675" lon="6.47973">
        <ele>504.83</ele>
        <time>2015-09-26T12:03:23Z</time>
      </trkpt>
      <trkpt lat="43.56675" lon="6.47953">
        <ele>505.31</ele>
        <time>2015-09-26T12:03:39Z</time>
      </trkpt>
      <trkpt lat="43.56678" lon="6.47937">
        <ele>505.31</ele>
        <time>2015-09-26T12:03:56Z</time>
      </trkpt>
      <trkpt lat="43.56686" lon="6.47913">
        <ele>505.31</ele>
        <time>2015-09-26T12:04:11Z</time>
      </trkpt>
      <trkpt lat="43.56694" lon="6.47895">
        <ele>505.79</ele>
        <time>2015-09-26T12:04:25Z</time>
      </trkpt>
      <trkpt lat="43.567" lon="6.47878">
        <ele>506.75</ele>
        <time>2015-09-26T12:04:42Z</time>
      </trkpt>
      <trkpt lat="43.56703" lon="6.47866">
        <ele>507.71</ele>
        <time>2015-09-26T12:04:56Z</time>
      </trkpt>
      <trkpt lat="43.5671" lon="6.4785">
        <ele>508.67</ele>
        <time>2015-09-26T12:05:12Z</time>
      </trkpt>
      <trkpt lat="43.56715" lon="6.47835">
        <ele>510.12</ele>
        <time>2015-09-26T12:05:27Z</time>
      </trkpt>
      <trkpt lat="43.56715" lon="6.47819">
        <ele>511.56</ele>
        <time>2015-09-26T12:05:40Z</time>
      </trkpt>
      <trkpt lat="43.56711" lon="6.47805">
        <ele>512.52</ele>
        <time>2015-09-26T12:05:54Z</time>
      </trkpt>
      <trkpt lat="43.56706" lon="6.47793">
        <ele>513.48</ele>
        <time>2015-09-26T12:06:10Z</time>
      </trkpt>
      <trkpt lat="43.56698" lon="6.47773">
        <ele>514.92</ele>
        <time>2015-09-26T12:06:27Z</time>
      </trkpt>
      <trkpt lat="43.56694" lon="6.47753">
        <ele>515.4</ele>
        <time>2015-09-26T12:06:45Z</time>
      </trkpt>
      <trkpt lat="43.56694" lon="6.47737">
        <ele>516.37</ele>
        <time>2015-09-26T12:07:02Z</time>
      </trkpt>
      <trkpt lat="43.56689" lon="6.47725">
        <ele>517.33</ele>
        <time>2015-09-26T12:07:18Z</time>
      </trkpt>
      <trkpt lat="43.56686" lon="6.47721">
        <ele>518.29</ele>
        <time>2015-09-26T12:07:36Z</time>
      </trkpt>
      <trkpt lat="43.56685" lon="6.4772">
        <ele>518.29</ele>
        <time>2015-09-26T12:07:58Z</time>
      </trkpt>
      <trkpt lat="43.56685" lon="6.47718">
        <ele>518.29</ele>
        <time>2015-09-26T12:08:30Z</time>
      </trkpt>
      <trkpt lat="43.56684" lon="6.47703">
        <ele>519.25</ele>
        <time>2015-09-26T12:08:47Z</time>
      </trkpt>
      <trkpt lat="43.56684" lon="6.47696">
        <ele>520.69</ele>
        <time>2015-09-26T12:09:01Z</time>
      </trkpt>
      <trkpt lat="43.56681" lon="6.47681">
        <ele>522.13</ele>
        <time>2015-09-26T12:09:19Z</time>
      </trkpt>
      <trkpt lat="43.56678" lon="6.47666">
        <ele>524.06</ele>
        <time>2015-09-26T12:09:37Z</time>
      </trkpt>
      <trkpt lat="43.56674" lon="6.47658">
        <ele>525.5</ele>
        <time>2015-09-26T12:09:52Z</time>
      </trkpt>
      <trkpt lat="43.56671" lon="6.47652">
        <ele>526.94</ele>
        <time>2015-09-26T12:10:03Z</time>
      </trkpt>
      <trkpt lat="43.56665" lon="6.47632">
        <ele>528.86</ele>
        <time>2015-09-26T12:10:20Z</time>
      </trkpt>
      <trkpt lat="43.56663" lon="6.47623">
        <ele>530.3</ele>
        <time>2015-09-26T12:10:35Z</time>
      </trkpt>
      <trkpt lat="43.56654" lon="6.47611">
        <ele>531.75</ele>
        <time>2015-09-26T12:10:54Z</time>
      </trkpt>
      <trkpt lat="43.56648" lon="6.47598">
        <ele>533.19</ele>
        <time>2015-09-26T12:11:09Z</time>
      </trkpt>
      <trkpt lat="43.56645" lon="6.47583">
        <ele>535.11</ele>
        <time>2015-09-26T12:11:25Z</time>
      </trkpt>
      <trkpt lat="43.56643" lon="6.47571">
        <ele>536.55</ele>
        <time>2015-09-26T12:11:39Z</time>
      </trkpt>
      <trkpt lat="43.56643" lon="6.47555">
        <ele>537.99</ele>
        <time>2015-09-26T12:11:57Z</time>
      </trkpt>
      <trkpt lat="43.56639" lon="6.47544">
        <ele>539.92</ele>
        <time>2015-09-26T12:12:14Z</time>
      </trkpt>
      <trkpt lat="43.56636" lon="6.47542">
        <ele>539.92</ele>
        <time>2015-09-26T12:12:34Z</time>
      </trkpt>
      <trkpt lat="43.5663" lon="6.47533">
        <ele>540.4</ele>
        <time>2015-09-26T12:12:52Z</time>
      </trkpt>
      <trkpt lat="43.56629" lon="6.47533">
        <ele>540.4</ele>
        <time>2015-09-26T12:13:22Z</time>
      </trkpt>
      <trkpt lat="43.56628" lon="6.47533">
        <ele>540.4</ele>
        <time>2015-09-26T12:13:51Z</time>
      </trkpt>
      <trkpt lat="43.56628" lon="6.47533">
        <ele>540.4</ele>
        <time>2015-09-26T12:14:20Z</time>
      </trkpt>
      <trkpt lat="43.56628" lon="6.47534">
        <ele>540.4</ele>
        <time>2015-09-26T12:14:43Z</time>
      </trkpt>
      <trkpt lat="43.56629" lon="6.47535">
        <ele>540.4</ele>
        <time>2015-09-26T12:15:08Z</time>
      </trkpt>
      <trkpt lat="43.56629" lon="6.47535">
        <ele>540.88</ele>
        <time>2015-09-26T12:15:39Z</time>
      </trkpt>
      <trkpt lat="43.56629" lon="6.47534">
        <ele>540.88</ele>
        <time>2015-09-26T12:16:13Z</time>
      </trkpt>
      <trkpt lat="43.56628" lon="6.47529">
        <ele>540.88</ele>
        <time>2015-09-26T12:16:30Z</time>
      </trkpt>
      <trkpt lat="43.56628" lon="6.47528">
        <ele>541.36</ele>
        <time>2015-09-26T12:16:57Z</time>
      </trkpt>
      <trkpt lat="43.56625" lon="6.47528">
        <ele>541.36</ele>
        <time>2015-09-26T12:17:21Z</time>
      </trkpt>
      <trkpt lat="43.56626" lon="6.47526">
        <ele>541.36</ele>
        <time>2015-09-26T12:17:41Z</time>
      </trkpt>
      <trkpt lat="43.56629" lon="6.47518">
        <ele>542.32</ele>
        <time>2015-09-26T12:18:04Z</time>
      </trkpt>
      <trkpt lat="43.56629" lon="6.47501">
        <ele>543.76</ele>
        <time>2015-09-26T12:18:18Z</time>
      </trkpt>
      <trkpt lat="43.56627" lon="6.47485">
        <ele>545.69</ele>
        <time>2015-09-26T12:18:34Z</time>
      </trkpt>
      <trkpt lat="43.56628" lon="6.47471">
        <ele>547.13</ele>
        <time>2015-09-26T12:18:50Z</time>
      </trkpt>
      <trkpt lat="43.56624" lon="6.47453">
        <ele>549.05</ele>
        <time>2015-09-26T12:19:06Z</time>
      </trkpt>
      <trkpt lat="43.56622" lon="6.47439">
        <ele>550.97</ele>
        <time>2015-09-26T12:19:22Z</time>
      </trkpt>
      <trkpt lat="43.56619" lon="6.4743">
        <ele>552.9</ele>
        <time>2015-09-26T12:19:36Z</time>
      </trkpt>
      <trkpt lat="43.56617" lon="6.47419">
        <ele>554.82</ele>
        <time>2015-09-26T12:19:54Z</time>
      </trkpt>
      <trkpt lat="43.56615" lon="6.47401">
        <ele>556.74</ele>
        <time>2015-09-26T12:20:09Z</time>
      </trkpt>
      <trkpt lat="43.56614" lon="6.47387">
        <ele>558.18</ele>
        <time>2015-09-26T12:20:24Z</time>
      </trkpt>
      <trkpt lat="43.56612" lon="6.47367">
        <ele>559.62</ele>
        <time>2015-09-26T12:20:41Z</time>
      </trkpt>
      <trkpt lat="43.56611" lon="6.47345">
        <ele>561.55</ele>
        <time>2015-09-26T12:20:58Z</time>
      </trkpt>
      <trkpt lat="43.5661" lon="6.47328">
        <ele>563.47</ele>
        <time>2015-09-26T12:21:14Z</time>
      </trkpt>
      <trkpt lat="43.5661" lon="6.47314">
        <ele>564.91</ele>
        <time>2015-09-26T12:21:27Z</time>
      </trkpt>
      <trkpt lat="43.56609" lon="6.473">
        <ele>566.35</ele>
        <time>2015-09-26T12:21:40Z</time>
      </trkpt>
      <trkpt lat="43.56605" lon="6.47283">
        <ele>567.8</ele>
        <time>2015-09-26T12:21:54Z</time>
      </trkpt>
      <trkpt lat="43.566" lon="6.47268">
        <ele>569.72</ele>
        <time>2015-09-26T12:22:09Z</time>
      </trkpt>
      <trkpt lat="43.56593" lon="6.47252">
        <ele>571.16</ele>
        <time>2015-09-26T12:22:24Z</time>
      </trkpt>
      <trkpt lat="43.5659" lon="6.47249">
        <ele>571.64</ele>
        <time>2015-09-26T12:22:41Z</time>
      </trkpt>
      <trkpt lat="43.5659" lon="6.47248">
        <ele>572.12</ele>
        <time>2015-09-26T12:23:07Z</time>
      </trkpt>
      <trkpt lat="43.56589" lon="6.47243">
        <ele>572.12</ele>
        <time>2015-09-26T12:23:29Z</time>
      </trkpt>
      <trkpt lat="43.56588" lon="6.47244">
        <ele>572.12</ele>
        <time>2015-09-26T12:23:54Z</time>
      </trkpt>
      <trkpt lat="43.56586" lon="6.47243">
        <ele>572.12</ele>
        <time>2015-09-26T12:24:20Z</time>
      </trkpt>
      <trkpt lat="43.56586" lon="6.47243">
        <ele>572.12</ele>
        <time>2015-09-26T12:24:41Z</time>
      </trkpt>
      <trkpt lat="43.56585" lon="6.47243">
        <ele>572.12</ele>
        <time>2015-09-26T12:25:00Z</time>
      </trkpt>
      <trkpt lat="43.56586" lon="6.47243">
        <ele>572.12</ele>
        <time>2015-09-26T12:25:31Z</time>
      </trkpt>
      <trkpt lat="43.56586" lon="6.47242">
        <ele>572.6</ele>
        <time>2015-09-26T12:26:03Z</time>
      </trkpt>
      <trkpt lat="43.56585" lon="6.47242">
        <ele>572.6</ele>
        <time>2015-09-26T12:26:36Z</time>
      </trkpt>
      <trkpt lat="43.56584" lon="6.47241">
        <ele>572.6</ele>
        <time>2015-09-26T12:27:08Z</time>
      </trkpt>
      <trkpt lat="43.56585" lon="6.4724">
        <ele>572.6</ele>
        <time>2015-09-26T12:27:31Z</time>
      </trkpt>
      <trkpt lat="43.56585" lon="6.47241">
        <ele>572.6</ele>
        <time>2015-09-26T12:27:56Z</time>
      </trkpt>
      <trkpt lat="43.56584" lon="6.47239">
        <ele>572.6</ele>
        <time>2015-09-26T12:28:25Z</time>
      </trkpt>
      <trkpt lat="43.56582" lon="6.47241">
        <ele>572.6</ele>
        <time>2015-09-26T12:28:49Z</time>
      </trkpt>
      <trkpt lat="43.56581" lon="6.47241">
        <ele>572.6</ele>
        <time>2015-09-26T12:29:15Z</time>
      </trkpt>
      <trkpt lat="43.56582" lon="6.4724">
        <ele>572.12</ele>
        <time>2015-09-26T12:29:43Z</time>
      </trkpt>
      <trkpt lat="43.56581" lon="6.47231">
        <ele>572.12</ele>
        <time>2015-09-26T12:29:57Z</time>
      </trkpt>
      <trkpt lat="43.56578" lon="6.47224">
        <ele>572.6</ele>
        <time>2015-09-26T12:30:03Z</time>
      </trkpt>
      <trkpt lat="43.5658" lon="6.47206">
        <ele>572.6</ele>
        <time>2015-09-26T12:30:18Z</time>
      </trkpt>
      <trkpt lat="43.56576" lon="6.4718">
        <ele>573.56</ele>
        <time>2015-09-26T12:30:34Z</time>
      </trkpt>
      <trkpt lat="43.56572" lon="6.47162">
        <ele>574.04</ele>
        <time>2015-09-26T12:30:50Z</time>
      </trkpt>
      <trkpt lat="43.56579" lon="6.47144">
        <ele>574.53</ele>
        <time>2015-09-26T12:31:07Z</time>
      </trkpt>
      <trkpt lat="43.56588" lon="6.47133">
        <ele>575.49</ele>
        <time>2015-09-26T12:31:22Z</time>
      </trkpt>
      <trkpt lat="43.566" lon="6.47114">
        <ele>576.45</ele>
        <time>2015-09-26T12:31:39Z</time>
      </trkpt>
      <trkpt lat="43.5661" lon="6.47096">
        <ele>575.49</ele>
        <time>2015-09-26T12:31:54Z</time>
      </trkpt>
      <trkpt lat="43.5661" lon="6.47095">
        <ele>575.49</ele>
        <time>2015-09-26T12:31:55Z</time>
      </trkpt>
      <trkpt lat="43.56621" lon="6.4708">
        <ele>575.01</ele>
        <time>2015-09-26T12:32:11Z</time>
      </trkpt>
      <trkpt lat="43.56629" lon="6.47083">
        <ele>574.53</ele>
        <time>2015-09-26T12:32:23Z</time>
      </trkpt>
      <trkpt lat="43.5664" lon="6.47086">
        <ele>574.04</ele>
        <time>2015-09-26T12:32:35Z</time>
      </trkpt>
      <trkpt lat="43.56658" lon="6.47093">
        <ele>573.08</ele>
        <time>2015-09-26T12:32:52Z</time>
      </trkpt>
      <trkpt lat="43.56668" lon="6.47092">
        <ele>572.6</ele>
        <time>2015-09-26T12:33:07Z</time>
      </trkpt>
      <trkpt lat="43.56678" lon="6.47077">
        <ele>571.64</ele>
        <time>2015-09-26T12:33:21Z</time>
      </trkpt>
      <trkpt lat="43.56678" lon="6.47073">
        <ele>571.64</ele>
        <time>2015-09-26T12:33:41Z</time>
      </trkpt>
      <trkpt lat="43.56672" lon="6.47057">
        <ele>570.68</ele>
        <time>2015-09-26T12:33:58Z</time>
      </trkpt>
      <trkpt lat="43.56662" lon="6.47036">
        <ele>569.72</ele>
        <time>2015-09-26T12:34:13Z</time>
      </trkpt>
      <trkpt lat="43.56661" lon="6.47033">
        <ele>569.24</ele>
        <time>2015-09-26T12:34:16Z</time>
      </trkpt>
      <trkpt lat="43.56659" lon="6.47015">
        <ele>567.8</ele>
        <time>2015-09-26T12:34:31Z</time>
      </trkpt>
      <trkpt lat="43.56657" lon="6.46999">
        <ele>565.87</ele>
        <time>2015-09-26T12:34:45Z</time>
      </trkpt>
      <trkpt lat="43.56656" lon="6.4698">
        <ele>563.95</ele>
        <time>2015-09-26T12:34:58Z</time>
      </trkpt>
      <trkpt lat="43.5665" lon="6.46955">
        <ele>562.51</ele>
        <time>2015-09-26T12:35:12Z</time>
      </trkpt>
      <trkpt lat="43.56645" lon="6.46933">
        <ele>561.07</ele>
        <time>2015-09-26T12:35:28Z</time>
      </trkpt>
      <trkpt lat="43.56642" lon="6.46923">
        <ele>560.11</ele>
        <time>2015-09-26T12:35:35Z</time>
      </trkpt>
      <trkpt lat="43.56639" lon="6.46902">
        <ele>559.14</ele>
        <time>2015-09-26T12:35:48Z</time>
      </trkpt>
      <trkpt lat="43.56638" lon="6.469">
        <ele>559.14</ele>
        <time>2015-09-26T12:35:50Z</time>
      </trkpt>
      <trkpt lat="43.56638" lon="6.46891">
        <ele>558.18</ele>
        <time>2015-09-26T12:36:04Z</time>
      </trkpt>
      <trkpt lat="43.56635" lon="6.46884">
        <ele>558.18</ele>
        <time>2015-09-26T12:36:25Z</time>
      </trkpt>
      <trkpt lat="43.56632" lon="6.46873">
        <ele>557.7</ele>
        <time>2015-09-26T12:36:35Z</time>
      </trkpt>
      <trkpt lat="43.56621" lon="6.46858">
        <ele>558.66</ele>
        <time>2015-09-26T12:36:49Z</time>
      </trkpt>
      <trkpt lat="43.56619" lon="6.46842">
        <ele>558.66</ele>
        <time>2015-09-26T12:37:02Z</time>
      </trkpt>
      <trkpt lat="43.56623" lon="6.46823">
        <ele>558.18</ele>
        <time>2015-09-26T12:37:17Z</time>
      </trkpt>
      <trkpt lat="43.56622" lon="6.46822">
        <ele>558.18</ele>
        <time>2015-09-26T12:37:18Z</time>
      </trkpt>
      <trkpt lat="43.56618" lon="6.46812">
        <ele>557.7</ele>
        <time>2015-09-26T12:37:26Z</time>
      </trkpt>
      <trkpt lat="43.56617" lon="6.46803">
        <ele>557.7</ele>
        <time>2015-09-26T12:37:31Z</time>
      </trkpt>
      <trkpt lat="43.56619" lon="6.46784">
        <ele>557.7</ele>
        <time>2015-09-26T12:37:46Z</time>
      </trkpt>
      <trkpt lat="43.56617" lon="6.4676">
        <ele>558.18</ele>
        <time>2015-09-26T12:38:01Z</time>
      </trkpt>
      <trkpt lat="43.56617" lon="6.46742">
        <ele>558.18</ele>
        <time>2015-09-26T12:38:14Z</time>
      </trkpt>
      <trkpt lat="43.56618" lon="6.46727">
        <ele>557.7</ele>
        <time>2015-09-26T12:38:24Z</time>
      </trkpt>
      <trkpt lat="43.56619" lon="6.46719">
        <ele>557.7</ele>
        <time>2015-09-26T12:38:28Z</time>
      </trkpt>
      <trkpt lat="43.5662" lon="6.46706">
        <ele>557.7</ele>
        <time>2015-09-26T12:38:37Z</time>
      </trkpt>
      <trkpt lat="43.56624" lon="6.46683">
        <ele>557.7</ele>
        <time>2015-09-26T12:38:52Z</time>
      </trkpt>
      <trkpt lat="43.56624" lon="6.46673">
        <ele>558.18</ele>
        <time>2015-09-26T12:38:59Z</time>
      </trkpt>
      <trkpt lat="43.56629" lon="6.46658">
        <ele>557.22</ele>
        <time>2015-09-26T12:39:13Z</time>
      </trkpt>
      <trkpt lat="43.56632" lon="6.46645">
        <ele>555.78</ele>
        <time>2015-09-26T12:39:22Z</time>
      </trkpt>
      <trkpt lat="43.56632" lon="6.46629">
        <ele>555.3</ele>
        <time>2015-09-26T12:39:35Z</time>
      </trkpt>
      <trkpt lat="43.56633" lon="6.46614">
        <ele>554.34</ele>
        <time>2015-09-26T12:39:49Z</time>
      </trkpt>
      <trkpt lat="43.56631" lon="6.46595">
        <ele>553.38</ele>
        <time>2015-09-26T12:40:01Z</time>
      </trkpt>
      <trkpt lat="43.56631" lon="6.46585">
        <ele>552.9</ele>
        <time>2015-09-26T12:40:07Z</time>
      </trkpt>
      <trkpt lat="43.56634" lon="6.46577">
        <ele>552.41</ele>
        <time>2015-09-26T12:40:11Z</time>
      </trkpt>
      <trkpt lat="43.56636" lon="6.46561">
        <ele>551.93</ele>
        <time>2015-09-26T12:40:20Z</time>
      </trkpt>
      <trkpt lat="43.56636" lon="6.46552">
        <ele>551.45</ele>
        <time>2015-09-26T12:40:27Z</time>
      </trkpt>
      <trkpt lat="43.56636" lon="6.46537">
        <ele>550.97</ele>
        <time>2015-09-26T12:40:37Z</time>
      </trkpt>
      <trkpt lat="43.5664" lon="6.46524">
        <ele>550.49</ele>
        <time>2015-09-26T12:40:47Z</time>
      </trkpt>
      <trkpt lat="43.56642" lon="6.4652">
        <ele>550.01</ele>
        <time>2015-09-26T12:40:49Z</time>
      </trkpt>
      <trkpt lat="43.56641" lon="6.46512">
        <ele>550.01</ele>
        <time>2015-09-26T12:40:54Z</time>
      </trkpt>
      <trkpt lat="43.56641" lon="6.46491">
        <ele>550.01</ele>
        <time>2015-09-26T12:41:09Z</time>
      </trkpt>
      <trkpt lat="43.56641" lon="6.46489">
        <ele>550.01</ele>
        <time>2015-09-26T12:41:11Z</time>
      </trkpt>
      <trkpt lat="43.56642" lon="6.46472">
        <ele>549.53</ele>
        <time>2015-09-26T12:41:23Z</time>
      </trkpt>
      <trkpt lat="43.56641" lon="6.46455">
        <ele>549.53</ele>
        <time>2015-09-26T12:41:36Z</time>
      </trkpt>
      <trkpt lat="43.56631" lon="6.46438">
        <ele>549.05</ele>
        <time>2015-09-26T12:41:49Z</time>
      </trkpt>
      <trkpt lat="43.56626" lon="6.46431">
        <ele>549.53</ele>
        <time>2015-09-26T12:41:54Z</time>
      </trkpt>
      <trkpt lat="43.56621" lon="6.46416">
        <ele>549.05</ele>
        <time>2015-09-26T12:42:06Z</time>
      </trkpt>
      <trkpt lat="43.56616" lon="6.464">
        <ele>547.61</ele>
        <time>2015-09-26T12:42:20Z</time>
      </trkpt>
      <trkpt lat="43.56615" lon="6.46399">
        <ele>547.13</ele>
        <time>2015-09-26T12:42:22Z</time>
      </trkpt>
      <trkpt lat="43.56603" lon="6.46384">
        <ele>545.69</ele>
        <time>2015-09-26T12:42:35Z</time>
      </trkpt>
      <trkpt lat="43.56597" lon="6.46375">
        <ele>544.72</ele>
        <time>2015-09-26T12:42:43Z</time>
      </trkpt>
      <trkpt lat="43.56592" lon="6.46373">
        <ele>544.24</ele>
        <time>2015-09-26T12:42:48Z</time>
      </trkpt>
      <trkpt lat="43.56581" lon="6.4637">
        <ele>542.32</ele>
        <time>2015-09-26T12:43:02Z</time>
      </trkpt>
      <trkpt lat="43.56572" lon="6.4636">
        <ele>539.44</ele>
        <time>2015-09-26T12:43:17Z</time>
      </trkpt>
      <trkpt lat="43.5657" lon="6.46356">
        <ele>537.99</ele>
        <time>2015-09-26T12:43:27Z</time>
      </trkpt>
      <trkpt lat="43.56571" lon="6.46348">
        <ele>536.07</ele>
        <time>2015-09-26T12:43:41Z</time>
      </trkpt>
      <trkpt lat="43.56571" lon="6.46343">
        <ele>535.59</ele>
        <time>2015-09-26T12:43:44Z</time>
      </trkpt>
      <trkpt lat="43.56571" lon="6.46334">
        <ele>534.63</ele>
        <time>2015-09-26T12:43:49Z</time>
      </trkpt>
      <trkpt lat="43.56574" lon="6.46317">
        <ele>533.19</ele>
        <time>2015-09-26T12:44:02Z</time>
      </trkpt>
      <trkpt lat="43.56573" lon="6.46314">
        <ele>533.19</ele>
        <time>2015-09-26T12:44:04Z</time>
      </trkpt>
      <trkpt lat="43.56569" lon="6.46299">
        <ele>531.75</ele>
        <time>2015-09-26T12:44:17Z</time>
      </trkpt>
      <trkpt lat="43.56569" lon="6.46296">
        <ele>531.27</ele>
        <time>2015-09-26T12:44:29Z</time>
      </trkpt>
      <trkpt lat="43.56567" lon="6.46296">
        <ele>531.27</ele>
        <time>2015-09-26T12:44:46Z</time>
      </trkpt>
      <trkpt lat="43.56568" lon="6.46298">
        <ele>531.27</ele>
        <time>2015-09-26T12:45:11Z</time>
      </trkpt>
      <trkpt lat="43.56568" lon="6.46298">
        <ele>531.27</ele>
        <time>2015-09-26T12:45:31Z</time>
      </trkpt>
      <trkpt lat="43.56568" lon="6.46299">
        <ele>531.27</ele>
        <time>2015-09-26T12:45:58Z</time>
      </trkpt>
      <trkpt lat="43.56568" lon="6.463">
        <ele>531.27</ele>
        <time>2015-09-26T12:46:20Z</time>
      </trkpt>
      <trkpt lat="43.56568" lon="6.46299">
        <ele>530.79</ele>
        <time>2015-09-26T12:46:48Z</time>
      </trkpt>
      <trkpt lat="43.56568" lon="6.46297">
        <ele>530.79</ele>
        <time>2015-09-26T12:47:17Z</time>
      </trkpt>
      <trkpt lat="43.56568" lon="6.46297">
        <ele>530.79</ele>
        <time>2015-09-26T12:47:44Z</time>
      </trkpt>
      <trkpt lat="43.56568" lon="6.46298">
        <ele>530.79</ele>
        <time>2015-09-26T12:48:15Z</time>
      </trkpt>
      <trkpt lat="43.56568" lon="6.46298">
        <ele>530.79</ele>
        <time>2015-09-26T12:48:48Z</time>
      </trkpt>
      <trkpt lat="43.56568" lon="6.46298">
        <ele>530.3</ele>
        <time>2015-09-26T12:49:13Z</time>
      </trkpt>
      <trkpt lat="43.56567" lon="6.46298">
        <ele>530.3</ele>
        <time>2015-09-26T12:49:45Z</time>
      </trkpt>
      <trkpt lat="43.56567" lon="6.46298">
        <ele>530.3</ele>
        <time>2015-09-26T12:50:10Z</time>
      </trkpt>
      <trkpt lat="43.56567" lon="6.46299">
        <ele>530.3</ele>
        <time>2015-09-26T12:50:39Z</time>
      </trkpt>
      <trkpt lat="43.56566" lon="6.46299">
        <ele>530.3</ele>
        <time>2015-09-26T12:51:01Z</time>
      </trkpt>
      <trkpt lat="43.56566" lon="6.46299">
        <ele>530.3</ele>
        <time>2015-09-26T12:51:32Z</time>
      </trkpt>
      <trkpt lat="43.56566" lon="6.463">
        <ele>530.3</ele>
        <time>2015-09-26T12:51:51Z</time>
      </trkpt>
      <trkpt lat="43.56566" lon="6.463">
        <ele>530.3</ele>
        <time>2015-09-26T12:52:14Z</time>
      </trkpt>
      <trkpt lat="43.56566" lon="6.46299">
        <ele>530.3</ele>
        <time>2015-09-26T12:52:41Z</time>
      </trkpt>
      <trkpt lat="43.56569" lon="6.46299">
        <ele>530.3</ele>
        <time>2015-09-26T12:53:04Z</time>
      </trkpt>
      <trkpt lat="43.56576" lon="6.46297">
        <ele>530.79</ele>
        <time>2015-09-26T12:53:13Z</time>
      </trkpt>
      <trkpt lat="43.56583" lon="6.46292">
        <ele>530.79</ele>
        <time>2015-09-26T12:53:20Z</time>
      </trkpt>
      <trkpt lat="43.56585" lon="6.46291">
        <ele>530.3</ele>
        <time>2015-09-26T12:53:22Z</time>
      </trkpt>
      <trkpt lat="43.56594" lon="6.46276">
        <ele>531.75</ele>
        <time>2015-09-26T12:53:36Z</time>
      </trkpt>
      <trkpt lat="43.56601" lon="6.46261">
        <ele>533.19</ele>
        <time>2015-09-26T12:53:51Z</time>
      </trkpt>
      <trkpt lat="43.56603" lon="6.46247">
        <ele>534.15</ele>
        <time>2015-09-26T12:54:02Z</time>
      </trkpt>
      <trkpt lat="43.56609" lon="6.46229">
        <ele>535.11</ele>
        <time>2015-09-26T12:54:17Z</time>
      </trkpt>
      <trkpt lat="43.56613" lon="6.46222">
        <ele>535.59</ele>
        <time>2015-09-26T12:54:29Z</time>
      </trkpt>
      <trkpt lat="43.56612" lon="6.46221">
        <ele>535.59</ele>
        <time>2015-09-26T12:54:34Z</time>
      </trkpt>
      <trkpt lat="43.56613" lon="6.46217">
        <ele>534.15</ele>
        <time>2015-09-26T12:54:38Z</time>
      </trkpt>
      <trkpt lat="43.56615" lon="6.46212">
        <ele>536.07</ele>
        <time>2015-09-26T12:54:41Z</time>
      </trkpt>
      <trkpt lat="43.56614" lon="6.46209">
        <ele>536.55</ele>
        <time>2015-09-26T12:54:43Z</time>
      </trkpt>
      <trkpt lat="43.56615" lon="6.46204">
        <ele>536.07</ele>
        <time>2015-09-26T12:54:46Z</time>
      </trkpt>
      <trkpt lat="43.56615" lon="6.46188">
        <ele>537.51</ele>
        <time>2015-09-26T12:54:57Z</time>
      </trkpt>
      <trkpt lat="43.5661" lon="6.4617">
        <ele>539.44</ele>
        <time>2015-09-26T12:55:11Z</time>
      </trkpt>
      <trkpt lat="43.5661" lon="6.46149">
        <ele>541.84</ele>
        <time>2015-09-26T12:55:26Z</time>
      </trkpt>
      <trkpt lat="43.56611" lon="6.46144">
        <ele>542.32</ele>
        <time>2015-09-26T12:55:29Z</time>
      </trkpt>
      <trkpt lat="43.56617" lon="6.46129">
        <ele>544.24</ele>
        <time>2015-09-26T12:55:41Z</time>
      </trkpt>
      <trkpt lat="43.56628" lon="6.46112">
        <ele>546.65</ele>
        <time>2015-09-26T12:55:55Z</time>
      </trkpt>
      <trkpt lat="43.56633" lon="6.46105">
        <ele>547.61</ele>
        <time>2015-09-26T12:56:00Z</time>
      </trkpt>
      <trkpt lat="43.56636" lon="6.46095">
        <ele>548.57</ele>
        <time>2015-09-26T12:56:06Z</time>
      </trkpt>
      <trkpt lat="43.56646" lon="6.46073">
        <ele>549.05</ele>
        <time>2015-09-26T12:56:22Z</time>
      </trkpt>
      <trkpt lat="43.56648" lon="6.46066">
        <ele>549.53</ele>
        <time>2015-09-26T12:56:28Z</time>
      </trkpt>
      <trkpt lat="43.56649" lon="6.4605">
        <ele>550.01</ele>
        <time>2015-09-26T12:56:38Z</time>
      </trkpt>
      <trkpt lat="43.56652" lon="6.46034">
        <ele>549.53</ele>
        <time>2015-09-26T12:56:51Z</time>
      </trkpt>
      <trkpt lat="43.56651" lon="6.4603">
        <ele>549.53</ele>
        <time>2015-09-26T12:56:54Z</time>
      </trkpt>
      <trkpt lat="43.56652" lon="6.46027">
        <ele>549.53</ele>
        <time>2015-09-26T12:56:56Z</time>
      </trkpt>
      <trkpt lat="43.56653" lon="6.46019">
        <ele>550.01</ele>
        <time>2015-09-26T12:57:02Z</time>
      </trkpt>
      <trkpt lat="43.56653" lon="6.46009">
        <ele>550.01</ele>
        <time>2015-09-26T12:57:09Z</time>
      </trkpt>
      <trkpt lat="43.56654" lon="6.46007">
        <ele>550.01</ele>
        <time>2015-09-26T12:57:11Z</time>
      </trkpt>
      <trkpt lat="43.56654" lon="6.45989">
        <ele>550.97</ele>
        <time>2015-09-26T12:57:23Z</time>
      </trkpt>
      <trkpt lat="43.56656" lon="6.45971">
        <ele>550.97</ele>
        <time>2015-09-26T12:57:35Z</time>
      </trkpt>
      <trkpt lat="43.56655" lon="6.4596">
        <ele>550.97</ele>
        <time>2015-09-26T12:57:43Z</time>
      </trkpt>
      <trkpt lat="43.56655" lon="6.45957">
        <ele>550.97</ele>
        <time>2015-09-26T12:57:45Z</time>
      </trkpt>
      <trkpt lat="43.56657" lon="6.4594">
        <ele>549.53</ele>
        <time>2015-09-26T12:57:57Z</time>
      </trkpt>
      <trkpt lat="43.56657" lon="6.45939">
        <ele>549.53</ele>
        <time>2015-09-26T12:57:58Z</time>
      </trkpt>
      <trkpt lat="43.56658" lon="6.45929">
        <ele>549.05</ele>
        <time>2015-09-26T12:58:05Z</time>
      </trkpt>
      <trkpt lat="43.56658" lon="6.45924">
        <ele>548.57</ele>
        <time>2015-09-26T12:58:08Z</time>
      </trkpt>
      <trkpt lat="43.56658" lon="6.45914">
        <ele>547.61</ele>
        <time>2015-09-26T12:58:15Z</time>
      </trkpt>
      <trkpt lat="43.56659" lon="6.45909">
        <ele>547.61</ele>
        <time>2015-09-26T12:58:18Z</time>
      </trkpt>
      <trkpt lat="43.56658" lon="6.45905">
        <ele>547.13</ele>
        <time>2015-09-26T12:58:21Z</time>
      </trkpt>
      <trkpt lat="43.56662" lon="6.45886">
        <ele>545.69</ele>
        <time>2015-09-26T12:58:35Z</time>
      </trkpt>
      <trkpt lat="43.56664" lon="6.45883">
        <ele>545.69</ele>
        <time>2015-09-26T12:58:37Z</time>
      </trkpt>
      <trkpt lat="43.56665" lon="6.45877">
        <ele>544.72</ele>
        <time>2015-09-26T12:58:41Z</time>
      </trkpt>
      <trkpt lat="43.56666" lon="6.45874">
        <ele>544.72</ele>
        <time>2015-09-26T12:58:43Z</time>
      </trkpt>
      <trkpt lat="43.56666" lon="6.4587">
        <ele>544.24</ele>
        <time>2015-09-26T12:58:46Z</time>
      </trkpt>
      <trkpt lat="43.56671" lon="6.45857">
        <ele>543.76</ele>
        <time>2015-09-26T12:58:55Z</time>
      </trkpt>
      <trkpt lat="43.56674" lon="6.45853">
        <ele>543.76</ele>
        <time>2015-09-26T12:58:58Z</time>
      </trkpt>
      <trkpt lat="43.56674" lon="6.4585">
        <ele>543.76</ele>
        <time>2015-09-26T12:59:00Z</time>
      </trkpt>
      <trkpt lat="43.56676" lon="6.45844">
        <ele>543.76</ele>
        <time>2015-09-26T12:59:04Z</time>
      </trkpt>
      <trkpt lat="43.56683" lon="6.45824">
        <ele>544.24</ele>
        <time>2015-09-26T12:59:18Z</time>
      </trkpt>
      <trkpt lat="43.56689" lon="6.45809">
        <ele>544.72</ele>
        <time>2015-09-26T12:59:30Z</time>
      </trkpt>
      <trkpt lat="43.56692" lon="6.45792">
        <ele>545.69</ele>
        <time>2015-09-26T12:59:43Z</time>
      </trkpt>
      <trkpt lat="43.56694" lon="6.45786">
        <ele>545.69</ele>
        <time>2015-09-26T12:59:47Z</time>
      </trkpt>
      <trkpt lat="43.56694" lon="6.4578">
        <ele>545.69</ele>
        <time>2015-09-26T12:59:51Z</time>
      </trkpt>
      <trkpt lat="43.56694" lon="6.45766">
        <ele>546.17</ele>
        <time>2015-09-26T12:59:59Z</time>
      </trkpt>
      <trkpt lat="43.56693" lon="6.45748">
        <ele>547.61</ele>
        <time>2015-09-26T13:00:13Z</time>
      </trkpt>
      <trkpt lat="43.56687" lon="6.4573">
        <ele>549.53</ele>
        <time>2015-09-26T13:00:27Z</time>
      </trkpt>
      <trkpt lat="43.56684" lon="6.4571">
        <ele>550.97</ele>
        <time>2015-09-26T13:00:41Z</time>
      </trkpt>
      <trkpt lat="43.56683" lon="6.45702">
        <ele>551.93</ele>
        <time>2015-09-26T13:00:48Z</time>
      </trkpt>
      <trkpt lat="43.56682" lon="6.45695">
        <ele>552.41</ele>
        <time>2015-09-26T13:00:54Z</time>
      </trkpt>
      <trkpt lat="43.56679" lon="6.45681">
        <ele>552.9</ele>
        <time>2015-09-26T13:01:09Z</time>
      </trkpt>
      <trkpt lat="43.56678" lon="6.45679">
        <ele>553.38</ele>
        <time>2015-09-26T13:01:23Z</time>
      </trkpt>
      <trkpt lat="43.56678" lon="6.45673">
        <ele>552.9</ele>
        <time>2015-09-26T13:01:35Z</time>
      </trkpt>
      <trkpt lat="43.56678" lon="6.45671">
        <ele>552.9</ele>
        <time>2015-09-26T13:01:53Z</time>
      </trkpt>
      <trkpt lat="43.56679" lon="6.45671">
        <ele>552.9</ele>
        <time>2015-09-26T13:02:17Z</time>
      </trkpt>
      <trkpt lat="43.56678" lon="6.4567">
        <ele>552.9</ele>
        <time>2015-09-26T13:02:45Z</time>
      </trkpt>
      <trkpt lat="43.5668" lon="6.45667">
        <ele>553.38</ele>
        <time>2015-09-26T13:02:57Z</time>
      </trkpt>
      <trkpt lat="43.56681" lon="6.45663">
        <ele>553.38</ele>
        <time>2015-09-26T13:03:00Z</time>
      </trkpt>
      <trkpt lat="43.5668" lon="6.45641">
        <ele>553.38</ele>
        <time>2015-09-26T13:03:13Z</time>
      </trkpt>
      <trkpt lat="43.56675" lon="6.4562">
        <ele>553.86</ele>
        <time>2015-09-26T13:03:26Z</time>
      </trkpt>
      <trkpt lat="43.56674" lon="6.45613">
        <ele>553.86</ele>
        <time>2015-09-26T13:03:31Z</time>
      </trkpt>
      <trkpt lat="43.5667" lon="6.45598">
        <ele>552.9</ele>
        <time>2015-09-26T13:03:44Z</time>
      </trkpt>
      <trkpt lat="43.56668" lon="6.45592">
        <ele>551.93</ele>
        <time>2015-09-26T13:03:56Z</time>
      </trkpt>
      <trkpt lat="43.56668" lon="6.45591">
        <ele>551.93</ele>
        <time>2015-09-26T13:03:57Z</time>
      </trkpt>
      <trkpt lat="43.56662" lon="6.45574">
        <ele>550.49</ele>
        <time>2015-09-26T13:04:11Z</time>
      </trkpt>
      <trkpt lat="43.56659" lon="6.45573">
        <ele>550.01</ele>
        <time>2015-09-26T13:04:26Z</time>
      </trkpt>
      <trkpt lat="43.56652" lon="6.45567">
        <ele>549.05</ele>
        <time>2015-09-26T13:04:40Z</time>
      </trkpt>
      <trkpt lat="43.56651" lon="6.45567">
        <ele>548.57</ele>
        <time>2015-09-26T13:04:41Z</time>
      </trkpt>
      <trkpt lat="43.56633" lon="6.45559">
        <ele>545.69</ele>
        <time>2015-09-26T13:04:59Z</time>
      </trkpt>
      <trkpt lat="43.56631" lon="6.45554">
        <ele>544.72</ele>
        <time>2015-09-26T13:05:03Z</time>
      </trkpt>
      <trkpt lat="43.56631" lon="6.45545">
        <ele>544.24</ele>
        <time>2015-09-26T13:05:10Z</time>
      </trkpt>
      <trkpt lat="43.56632" lon="6.45542">
        <ele>543.76</ele>
        <time>2015-09-26T13:05:12Z</time>
      </trkpt>
      <trkpt lat="43.56638" lon="6.4552">
        <ele>543.28</ele>
        <time>2015-09-26T13:05:27Z</time>
      </trkpt>
      <trkpt lat="43.56639" lon="6.4551">
        <ele>543.28</ele>
        <time>2015-09-26T13:05:33Z</time>
      </trkpt>
      <trkpt lat="43.56641" lon="6.45502">
        <ele>543.28</ele>
        <time>2015-09-26T13:05:38Z</time>
      </trkpt>
      <trkpt lat="43.56641" lon="6.45496">
        <ele>543.28</ele>
        <time>2015-09-26T13:05:42Z</time>
      </trkpt>
      <trkpt lat="43.56642" lon="6.45489">
        <ele>542.8</ele>
        <time>2015-09-26T13:05:46Z</time>
      </trkpt>
      <trkpt lat="43.56642" lon="6.45486">
        <ele>542.8</ele>
        <time>2015-09-26T13:05:48Z</time>
      </trkpt>
      <trkpt lat="43.56643" lon="6.45476">
        <ele>542.32</ele>
        <time>2015-09-26T13:05:55Z</time>
      </trkpt>
      <trkpt lat="43.56645" lon="6.45453">
        <ele>541.84</ele>
        <time>2015-09-26T13:06:10Z</time>
      </trkpt>
      <trkpt lat="43.56647" lon="6.45445">
        <ele>541.36</ele>
        <time>2015-09-26T13:06:16Z</time>
      </trkpt>
      <trkpt lat="43.56645" lon="6.4543">
        <ele>540.88</ele>
        <time>2015-09-26T13:06:27Z</time>
      </trkpt>
      <trkpt lat="43.56633" lon="6.45421">
        <ele>538.48</ele>
        <time>2015-09-26T13:06:43Z</time>
      </trkpt>
      <trkpt lat="43.56624" lon="6.45416">
        <ele>536.55</ele>
        <time>2015-09-26T13:06:56Z</time>
      </trkpt>
      <trkpt lat="43.56615" lon="6.45403">
        <ele>534.63</ele>
        <time>2015-09-26T13:07:11Z</time>
      </trkpt>
      <trkpt lat="43.5661" lon="6.4539">
        <ele>532.71</ele>
        <time>2015-09-26T13:07:23Z</time>
      </trkpt>
      <trkpt lat="43.56608" lon="6.45386">
        <ele>532.23</ele>
        <time>2015-09-26T13:07:26Z</time>
      </trkpt>
      <trkpt lat="43.56607" lon="6.45379">
        <ele>531.75</ele>
        <time>2015-09-26T13:07:31Z</time>
      </trkpt>
      <trkpt lat="43.56606" lon="6.45356">
        <ele>530.3</ele>
        <time>2015-09-26T13:07:45Z</time>
      </trkpt>
      <trkpt lat="43.56601" lon="6.45339">
        <ele>528.86</ele>
        <time>2015-09-26T13:07:57Z</time>
      </trkpt>
      <trkpt lat="43.56591" lon="6.45328">
        <ele>526.94</ele>
        <time>2015-09-26T13:08:13Z</time>
      </trkpt>
      <trkpt lat="43.56591" lon="6.45327">
        <ele>526.94</ele>
        <time>2015-09-26T13:08:17Z</time>
      </trkpt>
      <trkpt lat="43.5659" lon="6.45324">
        <ele>526.46</ele>
        <time>2015-09-26T13:08:20Z</time>
      </trkpt>
      <trkpt lat="43.56588" lon="6.45321">
        <ele>525.98</ele>
        <time>2015-09-26T13:08:23Z</time>
      </trkpt>
      <trkpt lat="43.56584" lon="6.45307">
        <ele>525.02</ele>
        <time>2015-09-26T13:08:34Z</time>
      </trkpt>
      <trkpt lat="43.56586" lon="6.45301">
        <ele>525.02</ele>
        <time>2015-09-26T13:08:38Z</time>
      </trkpt>
      <trkpt lat="43.56585" lon="6.45275">
        <ele>523.09</ele>
        <time>2015-09-26T13:08:55Z</time>
      </trkpt>
      <trkpt lat="43.56583" lon="6.45256">
        <ele>522.13</ele>
        <time>2015-09-26T13:09:07Z</time>
      </trkpt>
      <trkpt lat="43.5658" lon="6.45249">
        <ele>522.13</ele>
        <time>2015-09-26T13:09:11Z</time>
      </trkpt>
      <trkpt lat="43.56578" lon="6.45237">
        <ele>522.13</ele>
        <time>2015-09-26T13:09:18Z</time>
      </trkpt>
      <trkpt lat="43.56573" lon="6.45211">
        <ele>522.13</ele>
        <time>2015-09-26T13:09:34Z</time>
      </trkpt>
      <trkpt lat="43.56566" lon="6.45186">
        <ele>522.61</ele>
        <time>2015-09-26T13:09:49Z</time>
      </trkpt>
      <trkpt lat="43.56561" lon="6.45163">
        <ele>522.61</ele>
        <time>2015-09-26T13:10:03Z</time>
      </trkpt>
      <trkpt lat="43.5656" lon="6.45152">
        <ele>522.61</ele>
        <time>2015-09-26T13:10:10Z</time>
      </trkpt>
      <trkpt lat="43.56559" lon="6.45147">
        <ele>522.61</ele>
        <time>2015-09-26T13:10:13Z</time>
      </trkpt>
      <trkpt lat="43.56558" lon="6.45131">
        <ele>522.61</ele>
        <time>2015-09-26T13:10:22Z</time>
      </trkpt>
      <trkpt lat="43.56556" lon="6.45123">
        <ele>522.61</ele>
        <time>2015-09-26T13:10:27Z</time>
      </trkpt>
      <trkpt lat="43.56556" lon="6.45114">
        <ele>523.09</ele>
        <time>2015-09-26T13:10:32Z</time>
      </trkpt>
      <trkpt lat="43.56558" lon="6.45103">
        <ele>523.09</ele>
        <time>2015-09-26T13:10:39Z</time>
      </trkpt>
      <trkpt lat="43.56557" lon="6.4509">
        <ele>523.58</ele>
        <time>2015-09-26T13:10:47Z</time>
      </trkpt>
      <trkpt lat="43.56555" lon="6.45068">
        <ele>524.06</ele>
        <time>2015-09-26T13:11:01Z</time>
      </trkpt>
      <trkpt lat="43.56555" lon="6.45062">
        <ele>524.06</ele>
        <time>2015-09-26T13:11:05Z</time>
      </trkpt>
      <trkpt lat="43.56553" lon="6.45042">
        <ele>523.09</ele>
        <time>2015-09-26T13:11:19Z</time>
      </trkpt>
      <trkpt lat="43.56555" lon="6.45032">
        <ele>522.61</ele>
        <time>2015-09-26T13:11:26Z</time>
      </trkpt>
      <trkpt lat="43.56564" lon="6.45014">
        <ele>522.61</ele>
        <time>2015-09-26T13:11:40Z</time>
      </trkpt>
      <trkpt lat="43.56575" lon="6.45001">
        <ele>523.09</ele>
        <time>2015-09-26T13:11:54Z</time>
      </trkpt>
      <trkpt lat="43.56578" lon="6.44998">
        <ele>523.58</ele>
        <time>2015-09-26T13:11:58Z</time>
      </trkpt>
      <trkpt lat="43.5659" lon="6.44992">
        <ele>525.5</ele>
        <time>2015-09-26T13:12:13Z</time>
      </trkpt>
      <trkpt lat="43.56592" lon="6.44991">
        <ele>525.98</ele>
        <time>2015-09-26T13:12:16Z</time>
      </trkpt>
      <trkpt lat="43.56597" lon="6.4499">
        <ele>526.46</ele>
        <time>2015-09-26T13:12:20Z</time>
      </trkpt>
      <trkpt lat="43.56605" lon="6.44985">
        <ele>527.9</ele>
        <time>2015-09-26T13:12:30Z</time>
      </trkpt>
      <trkpt lat="43.56607" lon="6.44984">
        <ele>527.9</ele>
        <time>2015-09-26T13:12:32Z</time>
      </trkpt>
      <trkpt lat="43.56619" lon="6.44973">
        <ele>530.79</ele>
        <time>2015-09-26T13:12:48Z</time>
      </trkpt>
      <trkpt lat="43.56627" lon="6.44967">
        <ele>531.75</ele>
        <time>2015-09-26T13:12:58Z</time>
      </trkpt>
      <trkpt lat="43.56633" lon="6.44963">
        <ele>532.23</ele>
        <time>2015-09-26T13:13:03Z</time>
      </trkpt>
      <trkpt lat="43.56647" lon="6.44946">
        <ele>534.15</ele>
        <time>2015-09-26T13:13:20Z</time>
      </trkpt>
      <trkpt lat="43.56657" lon="6.44934">
        <ele>535.11</ele>
        <time>2015-09-26T13:13:32Z</time>
      </trkpt>
      <trkpt lat="43.56661" lon="6.44925">
        <ele>536.07</ele>
        <time>2015-09-26T13:13:41Z</time>
      </trkpt>
      <trkpt lat="43.56664" lon="6.44918">
        <ele>536.55</ele>
        <time>2015-09-26T13:13:48Z</time>
      </trkpt>
      <trkpt lat="43.56668" lon="6.44908">
        <ele>537.51</ele>
        <time>2015-09-26T13:14:01Z</time>
      </trkpt>
      <trkpt lat="43.56669" lon="6.44903">
        <ele>537.99</ele>
        <time>2015-09-26T13:14:10Z</time>
      </trkpt>
      <trkpt lat="43.56673" lon="6.44891">
        <ele>538.96</ele>
        <time>2015-09-26T13:14:23Z</time>
      </trkpt>
      <trkpt lat="43.56676" lon="6.44885">
        <ele>539.92</ele>
        <time>2015-09-26T13:14:38Z</time>
      </trkpt>
      <trkpt lat="43.56676" lon="6.44884">
        <ele>540.4</ele>
        <time>2015-09-26T13:15:01Z</time>
      </trkpt>
      <trkpt lat="43.5668" lon="6.44873">
        <ele>541.36</ele>
        <time>2015-09-26T13:15:15Z</time>
      </trkpt>
      <trkpt lat="43.56687" lon="6.44857">
        <ele>542.8</ele>
        <time>2015-09-26T13:15:29Z</time>
      </trkpt>
      <trkpt lat="43.5669" lon="6.44842">
        <ele>544.24</ele>
        <time>2015-09-26T13:15:42Z</time>
      </trkpt>
      <trkpt lat="43.56694" lon="6.44834">
        <ele>545.2</ele>
        <time>2015-09-26T13:15:49Z</time>
      </trkpt>
      <trkpt lat="43.56697" lon="6.44829">
        <ele>545.69</ele>
        <time>2015-09-26T13:15:53Z</time>
      </trkpt>
      <trkpt lat="43.56696" lon="6.44809">
        <ele>547.13</ele>
        <time>2015-09-26T13:16:07Z</time>
      </trkpt>
      <trkpt lat="43.56692" lon="6.44792">
        <ele>548.09</ele>
        <time>2015-09-26T13:16:20Z</time>
      </trkpt>
      <trkpt lat="43.5669" lon="6.44769">
        <ele>547.61</ele>
        <time>2015-09-26T13:16:37Z</time>
      </trkpt>
      <trkpt lat="43.56692" lon="6.44756">
        <ele>546.65</ele>
        <time>2015-09-26T13:16:48Z</time>
      </trkpt>
      <trkpt lat="43.56694" lon="6.44738">
        <ele>545.2</ele>
        <time>2015-09-26T13:17:01Z</time>
      </trkpt>
      <trkpt lat="43.56695" lon="6.44722">
        <ele>543.76</ele>
        <time>2015-09-26T13:17:13Z</time>
      </trkpt>
      <trkpt lat="43.56697" lon="6.44712">
        <ele>542.8</ele>
        <time>2015-09-26T13:17:21Z</time>
      </trkpt>
      <trkpt lat="43.56697" lon="6.44708">
        <ele>542.32</ele>
        <time>2015-09-26T13:17:24Z</time>
      </trkpt>
      <trkpt lat="43.56698" lon="6.44706">
        <ele>541.84</ele>
        <time>2015-09-26T13:17:26Z</time>
      </trkpt>
      <trkpt lat="43.56701" lon="6.44687">
        <ele>539.92</ele>
        <time>2015-09-26T13:17:40Z</time>
      </trkpt>
      <trkpt lat="43.56699" lon="6.44673">
        <ele>537.51</ele>
        <time>2015-09-26T13:17:50Z</time>
      </trkpt>
      <trkpt lat="43.56695" lon="6.44664">
        <ele>536.55</ele>
        <time>2015-09-26T13:17:58Z</time>
      </trkpt>
      <trkpt lat="43.56692" lon="6.44654">
        <ele>535.59</ele>
        <time>2015-09-26T13:18:06Z</time>
      </trkpt>
      <trkpt lat="43.56687" lon="6.44634">
        <ele>534.15</ele>
        <time>2015-09-26T13:18:18Z</time>
      </trkpt>
      <trkpt lat="43.56683" lon="6.44618">
        <ele>532.71</ele>
        <time>2015-09-26T13:18:29Z</time>
      </trkpt>
      <trkpt lat="43.56681" lon="6.44604">
        <ele>532.23</ele>
        <time>2015-09-26T13:18:37Z</time>
      </trkpt>
      <trkpt lat="43.56685" lon="6.44586">
        <ele>530.79</ele>
        <time>2015-09-26T13:18:52Z</time>
      </trkpt>
      <trkpt lat="43.56694" lon="6.4457">
        <ele>529.82</ele>
        <time>2015-09-26T13:19:06Z</time>
      </trkpt>
      <trkpt lat="43.56701" lon="6.4456">
        <ele>528.86</ele>
        <time>2015-09-26T13:19:20Z</time>
      </trkpt>
      <trkpt lat="43.56706" lon="6.44548">
        <ele>527.9</ele>
        <time>2015-09-26T13:19:31Z</time>
      </trkpt>
      <trkpt lat="43.56709" lon="6.4454">
        <ele>527.9</ele>
        <time>2015-09-26T13:19:37Z</time>
      </trkpt>
      <trkpt lat="43.56709" lon="6.44538">
        <ele>527.42</ele>
        <time>2015-09-26T13:19:39Z</time>
      </trkpt>
      <trkpt lat="43.56713" lon="6.44528">
        <ele>526.94</ele>
        <time>2015-09-26T13:19:46Z</time>
      </trkpt>
      <trkpt lat="43.56719" lon="6.44513">
        <ele>525.98</ele>
        <time>2015-09-26T13:19:58Z</time>
      </trkpt>
      <trkpt lat="43.56722" lon="6.44493">
        <ele>524.54</ele>
        <time>2015-09-26T13:20:12Z</time>
      </trkpt>
      <trkpt lat="43.56726" lon="6.44479">
        <ele>524.06</ele>
        <time>2015-09-26T13:20:22Z</time>
      </trkpt>
      <trkpt lat="43.56727" lon="6.44478">
        <ele>523.58</ele>
        <time>2015-09-26T13:20:24Z</time>
      </trkpt>
      <trkpt lat="43.56736" lon="6.44468">
        <ele>523.09</ele>
        <time>2015-09-26T13:20:36Z</time>
      </trkpt>
      <trkpt lat="43.56738" lon="6.44462">
        <ele>523.09</ele>
        <time>2015-09-26T13:20:40Z</time>
      </trkpt>
      <trkpt lat="43.5675" lon="6.44451">
        <ele>521.65</ele>
        <time>2015-09-26T13:20:54Z</time>
      </trkpt>
      <trkpt lat="43.56751" lon="6.4445">
        <ele>521.65</ele>
        <time>2015-09-26T13:20:56Z</time>
      </trkpt>
      <trkpt lat="43.56753" lon="6.4445">
        <ele>521.65</ele>
        <time>2015-09-26T13:20:58Z</time>
      </trkpt>
      <trkpt lat="43.56765" lon="6.44448">
        <ele>521.17</ele>
        <time>2015-09-26T13:21:09Z</time>
      </trkpt>
      <trkpt lat="43.56779" lon="6.44449">
        <ele>519.73</ele>
        <time>2015-09-26T13:21:23Z</time>
      </trkpt>
      <trkpt lat="43.56781" lon="6.44448">
        <ele>519.73</ele>
        <time>2015-09-26T13:21:25Z</time>
      </trkpt>
      <trkpt lat="43.56793" lon="6.4443">
        <ele>517.81</ele>
        <time>2015-09-26T13:21:39Z</time>
      </trkpt>
      <trkpt lat="43.56798" lon="6.4441">
        <ele>516.37</ele>
        <time>2015-09-26T13:21:53Z</time>
      </trkpt>
      <trkpt lat="43.56799" lon="6.44408">
        <ele>516.37</ele>
        <time>2015-09-26T13:21:54Z</time>
      </trkpt>
      <trkpt lat="43.56801" lon="6.44402">
        <ele>515.88</ele>
        <time>2015-09-26T13:21:58Z</time>
      </trkpt>
      <trkpt lat="43.56804" lon="6.44383">
        <ele>514.92</ele>
        <time>2015-09-26T13:22:10Z</time>
      </trkpt>
      <trkpt lat="43.56805" lon="6.4438">
        <ele>514.44</ele>
        <time>2015-09-26T13:22:13Z</time>
      </trkpt>
      <trkpt lat="43.56806" lon="6.44368">
        <ele>513.96</ele>
        <time>2015-09-26T13:22:20Z</time>
      </trkpt>
      <trkpt lat="43.56806" lon="6.44356">
        <ele>513</ele>
        <time>2015-09-26T13:22:27Z</time>
      </trkpt>
      <trkpt lat="43.56806" lon="6.44352">
        <ele>513</ele>
        <time>2015-09-26T13:22:30Z</time>
      </trkpt>
      <trkpt lat="43.56802" lon="6.44336">
        <ele>512.52</ele>
        <time>2015-09-26T13:22:41Z</time>
      </trkpt>
      <trkpt lat="43.56785" lon="6.44323">
        <ele>511.56</ele>
        <time>2015-09-26T13:22:57Z</time>
      </trkpt>
      <trkpt lat="43.56771" lon="6.44316">
        <ele>510.6</ele>
        <time>2015-09-26T13:23:10Z</time>
      </trkpt>
      <trkpt lat="43.56768" lon="6.44315">
        <ele>510.12</ele>
        <time>2015-09-26T13:23:13Z</time>
      </trkpt>
      <trkpt lat="43.56764" lon="6.44312">
        <ele>510.12</ele>
        <time>2015-09-26T13:23:17Z</time>
      </trkpt>
      <trkpt lat="43.56756" lon="6.4431">
        <ele>509.16</ele>
        <time>2015-09-26T13:23:30Z</time>
      </trkpt>
      <trkpt lat="43.56757" lon="6.44311">
        <ele>509.64</ele>
        <time>2015-09-26T13:23:47Z</time>
      </trkpt>
      <trkpt lat="43.56757" lon="6.44311">
        <ele>509.64</ele>
        <time>2015-09-26T13:24:10Z</time>
      </trkpt>
      <trkpt lat="43.56756" lon="6.4431">
        <ele>510.6</ele>
        <time>2015-09-26T13:24:29Z</time>
      </trkpt>
      <trkpt lat="43.56755" lon="6.44309">
        <ele>509.16</ele>
        <time>2015-09-26T13:24:56Z</time>
      </trkpt>
      <trkpt lat="43.56755" lon="6.44307">
        <ele>509.16</ele>
        <time>2015-09-26T13:25:08Z</time>
      </trkpt>
      <trkpt lat="43.56755" lon="6.44308">
        <ele>509.16</ele>
        <time>2015-09-26T13:25:27Z</time>
      </trkpt>
      <trkpt lat="43.56755" lon="6.44308">
        <ele>508.67</ele>
        <time>2015-09-26T13:25:45Z</time>
      </trkpt>
      <trkpt lat="43.56757" lon="6.44308">
        <ele>509.16</ele>
        <time>2015-09-26T13:26:08Z</time>
      </trkpt>
      <trkpt lat="43.56757" lon="6.44309">
        <ele>508.67</ele>
        <time>2015-09-26T13:26:41Z</time>
      </trkpt>
      <trkpt lat="43.56758" lon="6.44309">
        <ele>508.67</ele>
        <time>2015-09-26T13:27:03Z</time>
      </trkpt>
      <trkpt lat="43.56758" lon="6.44309">
        <ele>508.67</ele>
        <time>2015-09-26T13:27:26Z</time>
      </trkpt>
      <trkpt lat="43.56758" lon="6.44309">
        <ele>508.67</ele>
        <time>2015-09-26T13:27:50Z</time>
      </trkpt>
      <trkpt lat="43.56759" lon="6.44308">
        <ele>508.67</ele>
        <time>2015-09-26T13:28:11Z</time>
      </trkpt>
      <trkpt lat="43.56759" lon="6.44308">
        <ele>508.67</ele>
        <time>2015-09-26T13:28:37Z</time>
      </trkpt>
      <trkpt lat="43.56759" lon="6.44308">
        <ele>509.16</ele>
        <time>2015-09-26T13:28:59Z</time>
      </trkpt>
      <trkpt lat="43.56758" lon="6.44308">
        <ele>508.67</ele>
        <time>2015-09-26T13:29:18Z</time>
      </trkpt>
      <trkpt lat="43.56758" lon="6.44309">
        <ele>508.67</ele>
        <time>2015-09-26T13:29:50Z</time>
      </trkpt>
      <trkpt lat="43.56758" lon="6.44309">
        <ele>508.67</ele>
        <time>2015-09-26T13:30:16Z</time>
      </trkpt>
      <trkpt lat="43.56758" lon="6.44308">
        <ele>508.67</ele>
        <time>2015-09-26T13:30:33Z</time>
      </trkpt>
      <trkpt lat="43.56757" lon="6.44307">
        <ele>508.19</ele>
        <time>2015-09-26T13:30:58Z</time>
      </trkpt>
      <trkpt lat="43.56757" lon="6.44306">
        <ele>508.67</ele>
        <time>2015-09-26T13:31:14Z</time>
      </trkpt>
      <trkpt lat="43.56757" lon="6.44306">
        <ele>508.19</ele>
        <time>2015-09-26T13:31:39Z</time>
      </trkpt>
      <trkpt lat="43.56757" lon="6.44306">
        <ele>508.19</ele>
        <time>2015-09-26T13:32:10Z</time>
      </trkpt>
      <trkpt lat="43.56757" lon="6.44306">
        <ele>508.19</ele>
        <time>2015-09-26T13:32:37Z</time>
      </trkpt>
      <trkpt lat="43.56757" lon="6.44306">
        <ele>508.19</ele>
        <time>2015-09-26T13:33:02Z</time>
      </trkpt>
      <trkpt lat="43.56757" lon="6.44306">
        <ele>508.19</ele>
        <time>2015-09-26T13:33:28Z</time>
      </trkpt>
      <trkpt lat="43.56757" lon="6.44306">
        <ele>507.71</ele>
        <time>2015-09-26T13:33:55Z</time>
      </trkpt>
      <trkpt lat="43.56757" lon="6.44305">
        <ele>508.19</ele>
        <time>2015-09-26T13:34:26Z</time>
      </trkpt>
      <trkpt lat="43.56757" lon="6.44305">
        <ele>507.71</ele>
        <time>2015-09-26T13:34:54Z</time>
      </trkpt>
      <trkpt lat="43.56756" lon="6.44305">
        <ele>507.71</ele>
        <time>2015-09-26T13:35:26Z</time>
      </trkpt>
      <trkpt lat="43.56756" lon="6.44304">
        <ele>507.71</ele>
        <time>2015-09-26T13:35:53Z</time>
      </trkpt>
      <trkpt lat="43.56756" lon="6.44299">
        <ele>507.71</ele>
        <time>2015-09-26T13:36:09Z</time>
      </trkpt>
      <trkpt lat="43.56754" lon="6.443">
        <ele>507.23</ele>
        <time>2015-09-26T13:36:37Z</time>
      </trkpt>
      <trkpt lat="43.56754" lon="6.44301">
        <ele>507.71</ele>
        <time>2015-09-26T13:37:04Z</time>
      </trkpt>
      <trkpt lat="43.56755" lon="6.44291">
        <ele>507.23</ele>
        <time>2015-09-26T13:37:24Z</time>
      </trkpt>
      <trkpt lat="43.56755" lon="6.44288">
        <ele>507.23</ele>
        <time>2015-09-26T13:37:26Z</time>
      </trkpt>
      <trkpt lat="43.56755" lon="6.44282">
        <ele>507.23</ele>
        <time>2015-09-26T13:37:30Z</time>
      </trkpt>
      <trkpt lat="43.56755" lon="6.44276">
        <ele>507.23</ele>
        <time>2015-09-26T13:37:35Z</time>
      </trkpt>
      <trkpt lat="43.56755" lon="6.44257">
        <ele>507.71</ele>
        <time>2015-09-26T13:37:47Z</time>
      </trkpt>
      <trkpt lat="43.56755" lon="6.44236">
        <ele>507.71</ele>
        <time>2015-09-26T13:38:01Z</time>
      </trkpt>
      <trkpt lat="43.5676" lon="6.44222">
        <ele>508.19</ele>
        <time>2015-09-26T13:38:12Z</time>
      </trkpt>
      <trkpt lat="43.56762" lon="6.44219">
        <ele>508.19</ele>
        <time>2015-09-26T13:38:15Z</time>
      </trkpt>
      <trkpt lat="43.56765" lon="6.44215">
        <ele>508.19</ele>
        <time>2015-09-26T13:38:19Z</time>
      </trkpt>
      <trkpt lat="43.56778" lon="6.44202">
        <ele>506.75</ele>
        <time>2015-09-26T13:38:34Z</time>
      </trkpt>
      <trkpt lat="43.56779" lon="6.442">
        <ele>507.23</ele>
        <time>2015-09-26T13:38:35Z</time>
      </trkpt>
      <trkpt lat="43.56779" lon="6.44195">
        <ele>506.27</ele>
        <time>2015-09-26T13:38:39Z</time>
      </trkpt>
      <trkpt lat="43.56782" lon="6.44173">
        <ele>503.87</ele>
        <time>2015-09-26T13:38:54Z</time>
      </trkpt>
      <trkpt lat="43.56781" lon="6.44165">
        <ele>502.91</ele>
        <time>2015-09-26T13:39:06Z</time>
      </trkpt>
      <trkpt lat="43.5678" lon="6.44165">
        <ele>502.91</ele>
        <time>2015-09-26T13:39:30Z</time>
      </trkpt>
      <trkpt lat="43.5678" lon="6.44157">
        <ele>501.95</ele>
        <time>2015-09-26T13:39:48Z</time>
      </trkpt>
      <trkpt lat="43.5678" lon="6.44138">
        <ele>499.06</ele>
        <time>2015-09-26T13:40:04Z</time>
      </trkpt>
      <trkpt lat="43.56781" lon="6.44137">
        <ele>499.06</ele>
        <time>2015-09-26T13:40:05Z</time>
      </trkpt>
      <trkpt lat="43.56779" lon="6.44131">
        <ele>498.58</ele>
        <time>2015-09-26T13:40:09Z</time>
      </trkpt>
      <trkpt lat="43.56779" lon="6.4411">
        <ele>496.66</ele>
        <time>2015-09-26T13:40:24Z</time>
      </trkpt>
      <trkpt lat="43.5678" lon="6.44093">
        <ele>494.26</ele>
        <time>2015-09-26T13:40:37Z</time>
      </trkpt>
      <trkpt lat="43.56778" lon="6.44078">
        <ele>492.33</ele>
        <time>2015-09-26T13:40:49Z</time>
      </trkpt>
      <trkpt lat="43.56777" lon="6.44062">
        <ele>490.41</ele>
        <time>2015-09-26T13:41:01Z</time>
      </trkpt>
      <trkpt lat="43.5678" lon="6.44044">
        <ele>488.49</ele>
        <time>2015-09-26T13:41:14Z</time>
      </trkpt>
      <trkpt lat="43.56783" lon="6.44022">
        <ele>486.08</ele>
        <time>2015-09-26T13:41:29Z</time>
      </trkpt>
      <trkpt lat="43.56784" lon="6.44017">
        <ele>486.08</ele>
        <time>2015-09-26T13:41:32Z</time>
      </trkpt>
      <trkpt lat="43.56791" lon="6.43993">
        <ele>485.6</ele>
        <time>2015-09-26T13:41:48Z</time>
      </trkpt>
      <trkpt lat="43.56797" lon="6.43977">
        <ele>485.12</ele>
        <time>2015-09-26T13:41:59Z</time>
      </trkpt>
      <trkpt lat="43.56804" lon="6.43955">
        <ele>485.6</ele>
        <time>2015-09-26T13:42:14Z</time>
      </trkpt>
      <trkpt lat="43.56809" lon="6.43943">
        <ele>486.08</ele>
        <time>2015-09-26T13:42:23Z</time>
      </trkpt>
      <trkpt lat="43.56812" lon="6.43919">
        <ele>485.12</ele>
        <time>2015-09-26T13:42:37Z</time>
      </trkpt>
      <trkpt lat="43.56804" lon="6.43898">
        <ele>484.16</ele>
        <time>2015-09-26T13:42:51Z</time>
      </trkpt>
      <trkpt lat="43.56797" lon="6.43873">
        <ele>483.2</ele>
        <time>2015-09-26T13:43:08Z</time>
      </trkpt>
      <trkpt lat="43.56797" lon="6.43865">
        <ele>483.2</ele>
        <time>2015-09-26T13:43:13Z</time>
      </trkpt>
      <trkpt lat="43.56798" lon="6.43857">
        <ele>482.72</ele>
        <time>2015-09-26T13:43:19Z</time>
      </trkpt>
      <trkpt lat="43.56797" lon="6.43848">
        <ele>482.72</ele>
        <time>2015-09-26T13:43:24Z</time>
      </trkpt>
      <trkpt lat="43.56798" lon="6.43835">
        <ele>482.24</ele>
        <time>2015-09-26T13:43:33Z</time>
      </trkpt>
      <trkpt lat="43.56799" lon="6.43831">
        <ele>481.76</ele>
        <time>2015-09-26T13:43:36Z</time>
      </trkpt>
      <trkpt lat="43.56803" lon="6.43815">
        <ele>480.8</ele>
        <time>2015-09-26T13:43:50Z</time>
      </trkpt>
      <trkpt lat="43.56806" lon="6.43815">
        <ele>481.28</ele>
        <time>2015-09-26T13:43:53Z</time>
      </trkpt>
      <trkpt lat="43.56811" lon="6.43811">
        <ele>480.8</ele>
        <time>2015-09-26T13:44:05Z</time>
      </trkpt>
      <trkpt lat="43.56813" lon="6.43811">
        <ele>480.8</ele>
        <time>2015-09-26T13:44:27Z</time>
      </trkpt>
      <trkpt lat="43.56813" lon="6.4381">
        <ele>480.32</ele>
        <time>2015-09-26T13:44:49Z</time>
      </trkpt>
      <trkpt lat="43.56816" lon="6.43811">
        <ele>479.84</ele>
        <time>2015-09-26T13:45:04Z</time>
      </trkpt>
      <trkpt lat="43.56817" lon="6.43809">
        <ele>479.84</ele>
        <time>2015-09-26T13:45:23Z</time>
      </trkpt>
      <trkpt lat="43.56817" lon="6.43808">
        <ele>480.32</ele>
        <time>2015-09-26T13:45:42Z</time>
      </trkpt>
      <trkpt lat="43.56821" lon="6.4381">
        <ele>479.84</ele>
        <time>2015-09-26T13:46:09Z</time>
      </trkpt>
      <trkpt lat="43.56821" lon="6.4381">
        <ele>479.84</ele>
        <time>2015-09-26T13:46:10Z</time>
      </trkpt>
      <trkpt lat="43.56833" lon="6.43807">
        <ele>477.43</ele>
        <time>2015-09-26T13:46:23Z</time>
      </trkpt>
      <trkpt lat="43.56839" lon="6.43802">
        <ele>476.95</ele>
        <time>2015-09-26T13:46:29Z</time>
      </trkpt>
      <trkpt lat="43.5684" lon="6.43798">
        <ele>476.47</ele>
        <time>2015-09-26T13:46:32Z</time>
      </trkpt>
      <trkpt lat="43.56842" lon="6.43775">
        <ele>475.51</ele>
        <time>2015-09-26T13:46:45Z</time>
      </trkpt>
      <trkpt lat="43.56843" lon="6.43752">
        <ele>475.03</ele>
        <time>2015-09-26T13:46:58Z</time>
      </trkpt>
      <trkpt lat="43.56844" lon="6.43749">
        <ele>475.03</ele>
        <time>2015-09-26T13:47:00Z</time>
      </trkpt>
      <trkpt lat="43.56843" lon="6.43729">
        <ele>473.11</ele>
        <time>2015-09-26T13:47:14Z</time>
      </trkpt>
      <trkpt lat="43.56841" lon="6.43722">
        <ele>472.63</ele>
        <time>2015-09-26T13:47:18Z</time>
      </trkpt>
      <trkpt lat="43.56836" lon="6.43708">
        <ele>471.66</ele>
        <time>2015-09-26T13:47:28Z</time>
      </trkpt>
      <trkpt lat="43.56827" lon="6.437">
        <ele>470.7</ele>
        <time>2015-09-26T13:47:37Z</time>
      </trkpt>
      <trkpt lat="43.56823" lon="6.43698">
        <ele>469.74</ele>
        <time>2015-09-26T13:47:40Z</time>
      </trkpt>
      <trkpt lat="43.56813" lon="6.43694">
        <ele>469.26</ele>
        <time>2015-09-26T13:47:47Z</time>
      </trkpt>
      <trkpt lat="43.56808" lon="6.43694">
        <ele>469.26</ele>
        <time>2015-09-26T13:47:51Z</time>
      </trkpt>
      <trkpt lat="43.56799" lon="6.43694">
        <ele>467.82</ele>
        <time>2015-09-26T13:47:58Z</time>
      </trkpt>
      <trkpt lat="43.5679" lon="6.43692">
        <ele>466.86</ele>
        <time>2015-09-26T13:48:06Z</time>
      </trkpt>
      <trkpt lat="43.56773" lon="6.43688">
        <ele>464.93</ele>
        <time>2015-09-26T13:48:20Z</time>
      </trkpt>
      <trkpt lat="43.56765" lon="6.43687">
        <ele>463.97</ele>
        <time>2015-09-26T13:48:26Z</time>
      </trkpt>
      <trkpt lat="43.56747" lon="6.43683">
        <ele>462.53</ele>
        <time>2015-09-26T13:48:41Z</time>
      </trkpt>
      <trkpt lat="43.56742" lon="6.43683">
        <ele>461.57</ele>
        <time>2015-09-26T13:48:45Z</time>
      </trkpt>
      <trkpt lat="43.56725" lon="6.43681">
        <ele>459.65</ele>
        <time>2015-09-26T13:49:00Z</time>
      </trkpt>
      <trkpt lat="43.56716" lon="6.43675">
        <ele>458.21</ele>
        <time>2015-09-26T13:49:12Z</time>
      </trkpt>
      <trkpt lat="43.56715" lon="6.43674">
        <ele>458.21</ele>
        <time>2015-09-26T13:49:14Z</time>
      </trkpt>
      <trkpt lat="43.56715" lon="6.43671">
        <ele>457.72</ele>
        <time>2015-09-26T13:49:17Z</time>
      </trkpt>
      <trkpt lat="43.56716" lon="6.43667">
        <ele>456.76</ele>
        <time>2015-09-26T13:49:21Z</time>
      </trkpt>
      <trkpt lat="43.5672" lon="6.43653">
        <ele>456.28</ele>
        <time>2015-09-26T13:49:31Z</time>
      </trkpt>
      <trkpt lat="43.56724" lon="6.43647">
        <ele>455.8</ele>
        <time>2015-09-26T13:49:39Z</time>
      </trkpt>
      <trkpt lat="43.5673" lon="6.43646">
        <ele>454.84</ele>
        <time>2015-09-26T13:49:47Z</time>
      </trkpt>
      <trkpt lat="43.56734" lon="6.43643">
        <ele>454.84</ele>
        <time>2015-09-26T13:49:51Z</time>
      </trkpt>
      <trkpt lat="43.56746" lon="6.43634">
        <ele>453.4</ele>
        <time>2015-09-26T13:50:05Z</time>
      </trkpt>
      <trkpt lat="43.5675" lon="6.43629">
        <ele>452.44</ele>
        <time>2015-09-26T13:50:11Z</time>
      </trkpt>
      <trkpt lat="43.56753" lon="6.43626">
        <ele>451.96</ele>
        <time>2015-09-26T13:50:15Z</time>
      </trkpt>
      <trkpt lat="43.56764" lon="6.43615">
        <ele>449.55</ele>
        <time>2015-09-26T13:50:29Z</time>
      </trkpt>
      <trkpt lat="43.56769" lon="6.43609">
        <ele>448.11</ele>
        <time>2015-09-26T13:50:36Z</time>
      </trkpt>
      <trkpt lat="43.56777" lon="6.43598">
        <ele>446.67</ele>
        <time>2015-09-26T13:50:49Z</time>
      </trkpt>
      <trkpt lat="43.56779" lon="6.43596">
        <ele>446.67</ele>
        <time>2015-09-26T13:50:51Z</time>
      </trkpt>
      <trkpt lat="43.56786" lon="6.43587">
        <ele>445.71</ele>
        <time>2015-09-26T13:51:02Z</time>
      </trkpt>
      <trkpt lat="43.56792" lon="6.43578">
        <ele>444.75</ele>
        <time>2015-09-26T13:51:10Z</time>
      </trkpt>
      <trkpt lat="43.56797" lon="6.43571">
        <ele>444.27</ele>
        <time>2015-09-26T13:51:17Z</time>
      </trkpt>
      <trkpt lat="43.56805" lon="6.43561">
        <ele>443.79</ele>
        <time>2015-09-26T13:51:26Z</time>
      </trkpt>
      <trkpt lat="43.56814" lon="6.43544">
        <ele>442.82</ele>
        <time>2015-09-26T13:51:41Z</time>
      </trkpt>
      <trkpt lat="43.56815" lon="6.43535">
        <ele>441.86</ele>
        <time>2015-09-26T13:51:53Z</time>
      </trkpt>
      <trkpt lat="43.56815" lon="6.43534">
        <ele>441.38</ele>
        <time>2015-09-26T13:52:17Z</time>
      </trkpt>
      <trkpt lat="43.56816" lon="6.43534">
        <ele>441.38</ele>
        <time>2015-09-26T13:52:38Z</time>
      </trkpt>
      <trkpt lat="43.56815" lon="6.43534">
        <ele>441.38</ele>
        <time>2015-09-26T13:52:54Z</time>
      </trkpt>
      <trkpt lat="43.56814" lon="6.43534">
        <ele>441.38</ele>
        <time>2015-09-26T13:53:13Z</time>
      </trkpt>
      <trkpt lat="43.56814" lon="6.43533">
        <ele>441.38</ele>
        <time>2015-09-26T13:53:47Z</time>
      </trkpt>
      <trkpt lat="43.56813" lon="6.43534">
        <ele>441.38</ele>
        <time>2015-09-26T13:54:20Z</time>
      </trkpt>
      <trkpt lat="43.56813" lon="6.43534">
        <ele>441.38</ele>
        <time>2015-09-26T13:54:44Z</time>
      </trkpt>
      <trkpt lat="43.56813" lon="6.43533">
        <ele>441.86</ele>
        <time>2015-09-26T13:55:15Z</time>
      </trkpt>
      <trkpt lat="43.5681" lon="6.43531">
        <ele>441.38</ele>
        <time>2015-09-26T13:55:23Z</time>
      </trkpt>
      <trkpt lat="43.56807" lon="6.4353">
        <ele>440.9</ele>
        <time>2015-09-26T13:55:27Z</time>
      </trkpt>
      <trkpt lat="43.56795" lon="6.43533">
        <ele>439.94</ele>
        <time>2015-09-26T13:55:37Z</time>
      </trkpt>
      <trkpt lat="43.56788" lon="6.43534">
        <ele>438.98</ele>
        <time>2015-09-26T13:55:45Z</time>
      </trkpt>
      <trkpt lat="43.56779" lon="6.43531">
        <ele>438.02</ele>
        <time>2015-09-26T13:55:51Z</time>
      </trkpt>
      <trkpt lat="43.56772" lon="6.43528">
        <ele>436.58</ele>
        <time>2015-09-26T13:55:56Z</time>
      </trkpt>
      <trkpt lat="43.56769" lon="6.43524">
        <ele>436.58</ele>
        <time>2015-09-26T13:55:59Z</time>
      </trkpt>
      <trkpt lat="43.56765" lon="6.43516">
        <ele>435.61</ele>
        <time>2015-09-26T13:56:04Z</time>
      </trkpt>
      <trkpt lat="43.56762" lon="6.4351">
        <ele>435.13</ele>
        <time>2015-09-26T13:56:08Z</time>
      </trkpt>
      <trkpt lat="43.5675" lon="6.43498">
        <ele>433.21</ele>
        <time>2015-09-26T13:56:21Z</time>
      </trkpt>
      <trkpt lat="43.56736" lon="6.43485">
        <ele>432.25</ele>
        <time>2015-09-26T13:56:35Z</time>
      </trkpt>
      <trkpt lat="43.56728" lon="6.43478">
        <ele>430.81</ele>
        <time>2015-09-26T13:56:44Z</time>
      </trkpt>
      <trkpt lat="43.56713" lon="6.43466">
        <ele>429.37</ele>
        <time>2015-09-26T13:56:57Z</time>
      </trkpt>
      <trkpt lat="43.56712" lon="6.43464">
        <ele>428.89</ele>
        <time>2015-09-26T13:56:59Z</time>
      </trkpt>
      <trkpt lat="43.56704" lon="6.43457">
        <ele>427.92</ele>
        <time>2015-09-26T13:57:06Z</time>
      </trkpt>
      <trkpt lat="43.56693" lon="6.43453">
        <ele>426.48</ele>
        <time>2015-09-26T13:57:16Z</time>
      </trkpt>
      <trkpt lat="43.56682" lon="6.43455">
        <ele>425.04</ele>
        <time>2015-09-26T13:57:26Z</time>
      </trkpt>
      <trkpt lat="43.56677" lon="6.43458">
        <ele>424.56</ele>
        <time>2015-09-26T13:57:30Z</time>
      </trkpt>
      <trkpt lat="43.56672" lon="6.43463">
        <ele>423.6</ele>
        <time>2015-09-26T13:57:35Z</time>
      </trkpt>
      <trkpt lat="43.56655" lon="6.43478">
        <ele>422.16</ele>
        <time>2015-09-26T13:57:52Z</time>
      </trkpt>
      <trkpt lat="43.5665" lon="6.43483">
        <ele>421.68</ele>
        <time>2015-09-26T13:57:58Z</time>
      </trkpt>
      <trkpt lat="43.56642" lon="6.43491">
        <ele>420.71</ele>
        <time>2015-09-26T13:58:06Z</time>
      </trkpt>
      <trkpt lat="43.56638" lon="6.43494">
        <ele>420.23</ele>
        <time>2015-09-26T13:58:09Z</time>
      </trkpt>
      <trkpt lat="43.56629" lon="6.43502">
        <ele>419.27</ele>
        <time>2015-09-26T13:58:17Z</time>
      </trkpt>
      <trkpt lat="43.56618" lon="6.43517">
        <ele>417.35</ele>
        <time>2015-09-26T13:58:31Z</time>
      </trkpt>
      <trkpt lat="43.56608" lon="6.43534">
        <ele>415.91</ele>
        <time>2015-09-26T13:58:45Z</time>
      </trkpt>
      <trkpt lat="43.56601" lon="6.43547">
        <ele>414.95</ele>
        <time>2015-09-26T13:58:55Z</time>
      </trkpt>
      <trkpt lat="43.56592" lon="6.43563">
        <ele>414.47</ele>
        <time>2015-09-26T13:59:07Z</time>
      </trkpt>
      <trkpt lat="43.56592" lon="6.43565">
        <ele>413.5</ele>
        <time>2015-09-26T13:59:08Z</time>
      </trkpt>
      <trkpt lat="43.56589" lon="6.43571">
        <ele>412.54</ele>
        <time>2015-09-26T13:59:13Z</time>
      </trkpt>
      <trkpt lat="43.56586" lon="6.43577">
        <ele>412.06</ele>
        <time>2015-09-26T13:59:17Z</time>
      </trkpt>
      <trkpt lat="43.56576" lon="6.43595">
        <ele>410.62</ele>
        <time>2015-09-26T13:59:31Z</time>
      </trkpt>
      <trkpt lat="43.56575" lon="6.43597">
        <ele>410.62</ele>
        <time>2015-09-26T13:59:32Z</time>
      </trkpt>
      <trkpt lat="43.56568" lon="6.43617">
        <ele>408.22</ele>
        <time>2015-09-26T13:59:48Z</time>
      </trkpt>
      <trkpt lat="43.5657" lon="6.43612">
        <ele>407.26</ele>
        <time>2015-09-26T14:00:01Z</time>
      </trkpt>
      <trkpt lat="43.56571" lon="6.43608">
        <ele>406.77</ele>
        <time>2015-09-26T14:00:04Z</time>
      </trkpt>
      <trkpt lat="43.56573" lon="6.436">
        <ele>406.29</ele>
        <time>2015-09-26T14:00:11Z</time>
      </trkpt>
      <trkpt lat="43.56571" lon="6.43595">
        <ele>406.29</ele>
        <time>2015-09-26T14:00:14Z</time>
      </trkpt>
      <trkpt lat="43.56571" lon="6.43592">
        <ele>405.81</ele>
        <time>2015-09-26T14:00:16Z</time>
      </trkpt>
      <trkpt lat="43.56572" lon="6.43583">
        <ele>405.33</ele>
        <time>2015-09-26T14:00:23Z</time>
      </trkpt>
      <trkpt lat="43.56572" lon="6.43578">
        <ele>404.85</ele>
        <time>2015-09-26T14:00:26Z</time>
      </trkpt>
      <trkpt lat="43.56575" lon="6.43557">
        <ele>403.41</ele>
        <time>2015-09-26T14:00:41Z</time>
      </trkpt>
      <trkpt lat="43.56577" lon="6.43538">
        <ele>401.97</ele>
        <time>2015-09-26T14:00:54Z</time>
      </trkpt>
      <trkpt lat="43.56583" lon="6.43513">
        <ele>400.53</ele>
        <time>2015-09-26T14:01:09Z</time>
      </trkpt>
      <trkpt lat="43.56588" lon="6.43492">
        <ele>399.08</ele>
        <time>2015-09-26T14:01:24Z</time>
      </trkpt>
      <trkpt lat="43.56597" lon="6.43475">
        <ele>397.64</ele>
        <time>2015-09-26T14:01:38Z</time>
      </trkpt>
      <trkpt lat="43.56602" lon="6.43466">
        <ele>396.2</ele>
        <time>2015-09-26T14:01:48Z</time>
      </trkpt>
      <trkpt lat="43.56606" lon="6.4346">
        <ele>395.72</ele>
        <time>2015-09-26T14:01:54Z</time>
      </trkpt>
      <trkpt lat="43.56616" lon="6.43445">
        <ele>394.28</ele>
        <time>2015-09-26T14:02:08Z</time>
      </trkpt>
      <trkpt lat="43.56621" lon="6.43426">
        <ele>392.84</ele>
        <time>2015-09-26T14:02:21Z</time>
      </trkpt>
      <trkpt lat="43.56626" lon="6.43413">
        <ele>391.87</ele>
        <time>2015-09-26T14:02:32Z</time>
      </trkpt>
      <trkpt lat="43.56634" lon="6.43397">
        <ele>389.95</ele>
        <time>2015-09-26T14:02:45Z</time>
      </trkpt>
      <trkpt lat="43.56634" lon="6.43396">
        <ele>389.95</ele>
        <time>2015-09-26T14:02:46Z</time>
      </trkpt>
      <trkpt lat="43.56636" lon="6.43393">
        <ele>389.47</ele>
        <time>2015-09-26T14:02:49Z</time>
      </trkpt>
      <trkpt lat="43.56639" lon="6.43379">
        <ele>388.99</ele>
        <time>2015-09-26T14:02:58Z</time>
      </trkpt>
      <trkpt lat="43.56641" lon="6.43367">
        <ele>388.51</ele>
        <time>2015-09-26T14:03:05Z</time>
      </trkpt>
      <trkpt lat="43.56642" lon="6.43361">
        <ele>388.03</ele>
        <time>2015-09-26T14:03:09Z</time>
      </trkpt>
      <trkpt lat="43.56643" lon="6.43354">
        <ele>388.03</ele>
        <time>2015-09-26T14:03:13Z</time>
      </trkpt>
      <trkpt lat="43.56644" lon="6.43349">
        <ele>387.55</ele>
        <time>2015-09-26T14:03:16Z</time>
      </trkpt>
      <trkpt lat="43.56647" lon="6.43336">
        <ele>387.07</ele>
        <time>2015-09-26T14:03:22Z</time>
      </trkpt>
      <trkpt lat="43.56655" lon="6.43319">
        <ele>384.66</ele>
        <time>2015-09-26T14:03:37Z</time>
      </trkpt>
      <trkpt lat="43.56669" lon="6.4331">
        <ele>382.74</ele>
        <time>2015-09-26T14:03:52Z</time>
      </trkpt>
      <trkpt lat="43.56682" lon="6.43306">
        <ele>381.78</ele>
        <time>2015-09-26T14:04:03Z</time>
      </trkpt>
      <trkpt lat="43.56687" lon="6.43299">
        <ele>381.3</ele>
        <time>2015-09-26T14:04:16Z</time>
      </trkpt>
      <trkpt lat="43.56687" lon="6.43297">
        <ele>381.3</ele>
        <time>2015-09-26T14:04:42Z</time>
      </trkpt>
      <trkpt lat="43.56688" lon="6.43298">
        <ele>381.3</ele>
        <time>2015-09-26T14:05:06Z</time>
      </trkpt>
      <trkpt lat="43.56687" lon="6.43297">
        <ele>381.3</ele>
        <time>2015-09-26T14:05:24Z</time>
      </trkpt>
      <trkpt lat="43.56687" lon="6.43298">
        <ele>381.3</ele>
        <time>2015-09-26T14:05:51Z</time>
      </trkpt>
      <trkpt lat="43.56688" lon="6.43298">
        <ele>380.82</ele>
        <time>2015-09-26T14:06:13Z</time>
      </trkpt>
      <trkpt lat="43.56688" lon="6.43298">
        <ele>380.82</ele>
        <time>2015-09-26T14:06:32Z</time>
      </trkpt>
      <trkpt lat="43.56688" lon="6.43297">
        <ele>380.82</ele>
        <time>2015-09-26T14:06:57Z</time>
      </trkpt>
      <trkpt lat="43.56686" lon="6.43296">
        <ele>380.82</ele>
        <time>2015-09-26T14:07:26Z</time>
      </trkpt>
      <trkpt lat="43.56682" lon="6.43296">
        <ele>380.34</ele>
        <time>2015-09-26T14:07:30Z</time>
      </trkpt>
      <trkpt lat="43.56678" lon="6.43296">
        <ele>379.86</ele>
        <time>2015-09-26T14:07:33Z</time>
      </trkpt>
      <trkpt lat="43.56664" lon="6.43294">
        <ele>378.42</ele>
        <time>2015-09-26T14:07:45Z</time>
      </trkpt>
      <trkpt lat="43.5666" lon="6.43292">
        <ele>377.94</ele>
        <time>2015-09-26T14:07:48Z</time>
      </trkpt>
      <trkpt lat="43.56653" lon="6.43293">
        <ele>376.97</ele>
        <time>2015-09-26T14:07:55Z</time>
      </trkpt>
      <trkpt lat="43.56651" lon="6.43292">
        <ele>376.49</ele>
        <time>2015-09-26T14:07:57Z</time>
      </trkpt>
      <trkpt lat="43.56637" lon="6.43287">
        <ele>374.09</ele>
        <time>2015-09-26T14:08:10Z</time>
      </trkpt>
      <trkpt lat="43.56636" lon="6.43285">
        <ele>373.61</ele>
        <time>2015-09-26T14:08:12Z</time>
      </trkpt>
      <trkpt lat="43.5662" lon="6.43283">
        <ele>371.69</ele>
        <time>2015-09-26T14:08:25Z</time>
      </trkpt>
      <trkpt lat="43.56619" lon="6.43283">
        <ele>371.21</ele>
        <time>2015-09-26T14:08:26Z</time>
      </trkpt>
      <trkpt lat="43.56611" lon="6.4329">
        <ele>370.24</ele>
        <time>2015-09-26T14:08:33Z</time>
      </trkpt>
      <trkpt lat="43.56606" lon="6.43292">
        <ele>369.76</ele>
        <time>2015-09-26T14:08:37Z</time>
      </trkpt>
      <trkpt lat="43.56598" lon="6.43293">
        <ele>368.8</ele>
        <time>2015-09-26T14:08:43Z</time>
      </trkpt>
      <trkpt lat="43.56592" lon="6.43293">
        <ele>368.32</ele>
        <time>2015-09-26T14:08:47Z</time>
      </trkpt>
      <trkpt lat="43.56573" lon="6.433">
        <ele>367.84</ele>
        <time>2015-09-26T14:09:02Z</time>
      </trkpt>
      <trkpt lat="43.56557" lon="6.4331">
        <ele>366.88</ele>
        <time>2015-09-26T14:09:15Z</time>
      </trkpt>
      <trkpt lat="43.56542" lon="6.43319">
        <ele>365.44</ele>
        <time>2015-09-26T14:09:28Z</time>
      </trkpt>
      <trkpt lat="43.56533" lon="6.43323">
        <ele>365.44</ele>
        <time>2015-09-26T14:09:35Z</time>
      </trkpt>
      <trkpt lat="43.56513" lon="6.43328">
        <ele>364.48</ele>
        <time>2015-09-26T14:09:51Z</time>
      </trkpt>
      <trkpt lat="43.56496" lon="6.43329">
        <ele>364</ele>
        <time>2015-09-26T14:10:05Z</time>
      </trkpt>
      <trkpt lat="43.56482" lon="6.43326">
        <ele>364</ele>
        <time>2015-09-26T14:10:16Z</time>
      </trkpt>
      <trkpt lat="43.56479" lon="6.43327">
        <ele>364</ele>
        <time>2015-09-26T14:10:19Z</time>
      </trkpt>
      <trkpt lat="43.56475" lon="6.43332">
        <ele>364.48</ele>
        <time>2015-09-26T14:10:23Z</time>
      </trkpt>
      <trkpt lat="43.56471" lon="6.4336">
        <ele>366.88</ele>
        <time>2015-09-26T14:10:41Z</time>
      </trkpt>
      <trkpt lat="43.56475" lon="6.43381">
        <ele>368.8</ele>
        <time>2015-09-26T14:10:55Z</time>
      </trkpt>
      <trkpt lat="43.56476" lon="6.43398">
        <ele>370.24</ele>
        <time>2015-09-26T14:11:07Z</time>
      </trkpt>
      <trkpt lat="43.56474" lon="6.43403">
        <ele>370.73</ele>
        <time>2015-09-26T14:11:12Z</time>
      </trkpt>
      <trkpt lat="43.5646" lon="6.43401">
        <ele>370.24</ele>
        <time>2015-09-26T14:11:26Z</time>
      </trkpt>
      <trkpt lat="43.56444" lon="6.43393">
        <ele>369.76</ele>
        <time>2015-09-26T14:11:40Z</time>
      </trkpt>
      <trkpt lat="43.56425" lon="6.43383">
        <ele>369.28</ele>
        <time>2015-09-26T14:11:56Z</time>
      </trkpt>
      <trkpt lat="43.5641" lon="6.43374">
        <ele>368.8</ele>
        <time>2015-09-26T14:12:10Z</time>
      </trkpt>
      <trkpt lat="43.56395" lon="6.43375">
        <ele>366.4</ele>
        <time>2015-09-26T14:12:25Z</time>
      </trkpt>
      <trkpt lat="43.56389" lon="6.43378">
        <ele>365.44</ele>
        <time>2015-09-26T14:12:31Z</time>
      </trkpt>
      <trkpt lat="43.56385" lon="6.43384">
        <ele>364.48</ele>
        <time>2015-09-26T14:12:36Z</time>
      </trkpt>
      <trkpt lat="43.56376" lon="6.43397">
        <ele>363.04</ele>
        <time>2015-09-26T14:12:48Z</time>
      </trkpt>
      <trkpt lat="43.56366" lon="6.43404">
        <ele>361.11</ele>
        <time>2015-09-26T14:13:00Z</time>
      </trkpt>
      <trkpt lat="43.56363" lon="6.43401">
        <ele>360.63</ele>
        <time>2015-09-26T14:13:03Z</time>
      </trkpt>
      <trkpt lat="43.56361" lon="6.43397">
        <ele>359.67</ele>
        <time>2015-09-26T14:13:07Z</time>
      </trkpt>
      <trkpt lat="43.56357" lon="6.43374">
        <ele>357.27</ele>
        <time>2015-09-26T14:13:22Z</time>
      </trkpt>
      <trkpt lat="43.56354" lon="6.43353">
        <ele>355.83</ele>
        <time>2015-09-26T14:13:35Z</time>
      </trkpt>
      <trkpt lat="43.56351" lon="6.4333">
        <ele>354.86</ele>
        <time>2015-09-26T14:13:49Z</time>
      </trkpt>
      <trkpt lat="43.56345" lon="6.43309">
        <ele>352.46</ele>
        <time>2015-09-26T14:14:03Z</time>
      </trkpt>
      <trkpt lat="43.56338" lon="6.4329">
        <ele>350.06</ele>
        <time>2015-09-26T14:14:17Z</time>
      </trkpt>
      <trkpt lat="43.56337" lon="6.43288">
        <ele>349.58</ele>
        <time>2015-09-26T14:14:18Z</time>
      </trkpt>
      <trkpt lat="43.56324" lon="6.43273">
        <ele>347.17</ele>
        <time>2015-09-26T14:14:33Z</time>
      </trkpt>
      <trkpt lat="43.56316" lon="6.43257">
        <ele>345.25</ele>
        <time>2015-09-26T14:14:44Z</time>
      </trkpt>
      <trkpt lat="43.56306" lon="6.4326">
        <ele>344.29</ele>
        <time>2015-09-26T14:14:53Z</time>
      </trkpt>
      <trkpt lat="43.56306" lon="6.43273">
        <ele>343.81</ele>
        <time>2015-09-26T14:15:01Z</time>
      </trkpt>
      <trkpt lat="43.56311" lon="6.433">
        <ele>342.37</ele>
        <time>2015-09-26T14:15:17Z</time>
      </trkpt>
      <trkpt lat="43.56313" lon="6.43313">
        <ele>341.41</ele>
        <time>2015-09-26T14:15:25Z</time>
      </trkpt>
      <trkpt lat="43.56308" lon="6.43336">
        <ele>340.44</ele>
        <time>2015-09-26T14:15:39Z</time>
      </trkpt>
      <trkpt lat="43.56303" lon="6.43355">
        <ele>339.96</ele>
        <time>2015-09-26T14:15:51Z</time>
      </trkpt>
      <trkpt lat="43.56294" lon="6.43374">
        <ele>339.48</ele>
        <time>2015-09-26T14:16:05Z</time>
      </trkpt>
      <trkpt lat="43.56293" lon="6.43375">
        <ele>339.48</ele>
        <time>2015-09-26T14:16:06Z</time>
      </trkpt>
      <trkpt lat="43.56283" lon="6.43399">
        <ele>339</ele>
        <time>2015-09-26T14:16:23Z</time>
      </trkpt>
      <trkpt lat="43.56278" lon="6.43408">
        <ele>338.04</ele>
        <time>2015-09-26T14:16:35Z</time>
      </trkpt>
      <trkpt lat="43.56271" lon="6.43416">
        <ele>337.56</ele>
        <time>2015-09-26T14:16:48Z</time>
      </trkpt>
      <trkpt lat="43.56267" lon="6.43419">
        <ele>337.56</ele>
        <time>2015-09-26T14:16:52Z</time>
      </trkpt>
      <trkpt lat="43.56266" lon="6.43421">
        <ele>337.56</ele>
        <time>2015-09-26T14:16:54Z</time>
      </trkpt>
      <trkpt lat="43.56252" lon="6.43427">
        <ele>336.6</ele>
        <time>2015-09-26T14:17:07Z</time>
      </trkpt>
      <trkpt lat="43.56236" lon="6.43434">
        <ele>335.16</ele>
        <time>2015-09-26T14:17:20Z</time>
      </trkpt>
      <trkpt lat="43.56223" lon="6.43447">
        <ele>332.75</ele>
        <time>2015-09-26T14:17:34Z</time>
      </trkpt>
      <trkpt lat="43.56214" lon="6.43455">
        <ele>331.31</ele>
        <time>2015-09-26T14:17:43Z</time>
      </trkpt>
      <trkpt lat="43.56202" lon="6.43469">
        <ele>328.91</ele>
        <time>2015-09-26T14:17:57Z</time>
      </trkpt>
      <trkpt lat="43.56195" lon="6.43479">
        <ele>326.99</ele>
        <time>2015-09-26T14:18:06Z</time>
      </trkpt>
      <trkpt lat="43.56192" lon="6.4348">
        <ele>326.5</ele>
        <time>2015-09-26T14:18:09Z</time>
      </trkpt>
      <trkpt lat="43.56189" lon="6.4348">
        <ele>326.5</ele>
        <time>2015-09-26T14:18:11Z</time>
      </trkpt>
      <trkpt lat="43.56174" lon="6.43489">
        <ele>324.58</ele>
        <time>2015-09-26T14:18:26Z</time>
      </trkpt>
      <trkpt lat="43.56168" lon="6.43494">
        <ele>324.1</ele>
        <time>2015-09-26T14:18:32Z</time>
      </trkpt>
      <trkpt lat="43.56163" lon="6.43495">
        <ele>323.14</ele>
        <time>2015-09-26T14:18:36Z</time>
      </trkpt>
      <trkpt lat="43.56147" lon="6.43495">
        <ele>321.22</ele>
        <time>2015-09-26T14:18:50Z</time>
      </trkpt>
      <trkpt lat="43.56131" lon="6.43494">
        <ele>320.26</ele>
        <time>2015-09-26T14:19:03Z</time>
      </trkpt>
      <trkpt lat="43.56129" lon="6.43494">
        <ele>319.78</ele>
        <time>2015-09-26T14:19:04Z</time>
      </trkpt>
      <trkpt lat="43.56113" lon="6.43495">
        <ele>318.81</ele>
        <time>2015-09-26T14:19:18Z</time>
      </trkpt>
      <trkpt lat="43.56111" lon="6.43494">
        <ele>318.81</ele>
        <time>2015-09-26T14:19:20Z</time>
      </trkpt>
      <trkpt lat="43.56106" lon="6.43488">
        <ele>318.33</ele>
        <time>2015-09-26T14:19:27Z</time>
      </trkpt>
      <trkpt lat="43.561" lon="6.43469">
        <ele>317.37</ele>
        <time>2015-09-26T14:19:41Z</time>
      </trkpt>
      <trkpt lat="43.56098" lon="6.4346">
        <ele>317.37</ele>
        <time>2015-09-26T14:19:47Z</time>
      </trkpt>
      <trkpt lat="43.56092" lon="6.43439">
        <ele>316.41</ele>
        <time>2015-09-26T14:20:02Z</time>
      </trkpt>
      <trkpt lat="43.56089" lon="6.43433">
        <ele>316.41</ele>
        <time>2015-09-26T14:20:06Z</time>
      </trkpt>
      <trkpt lat="43.56089" lon="6.43422">
        <ele>315.93</ele>
        <time>2015-09-26T14:20:13Z</time>
      </trkpt>
      <trkpt lat="43.56087" lon="6.43399">
        <ele>315.93</ele>
        <time>2015-09-26T14:20:28Z</time>
      </trkpt>
      <trkpt lat="43.56087" lon="6.4338">
        <ele>314.49</ele>
        <time>2015-09-26T14:20:41Z</time>
      </trkpt>
      <trkpt lat="43.56089" lon="6.43371">
        <ele>313.53</ele>
        <time>2015-09-26T14:20:47Z</time>
      </trkpt>
      <trkpt lat="43.56088" lon="6.43356">
        <ele>311.6</ele>
        <time>2015-09-26T14:20:56Z</time>
      </trkpt>
      <trkpt lat="43.56085" lon="6.43342">
        <ele>310.64</ele>
        <time>2015-09-26T14:21:05Z</time>
      </trkpt>
      <trkpt lat="43.56081" lon="6.43319">
        <ele>309.68</ele>
        <time>2015-09-26T14:21:20Z</time>
      </trkpt>
      <trkpt lat="43.5608" lon="6.43311">
        <ele>309.68</ele>
        <time>2015-09-26T14:21:25Z</time>
      </trkpt>
      <trkpt lat="43.56071" lon="6.43314">
        <ele>308.72</ele>
        <time>2015-09-26T14:21:36Z</time>
      </trkpt>
      <trkpt lat="43.56071" lon="6.4333">
        <ele>304.88</ele>
        <time>2015-09-26T14:21:48Z</time>
      </trkpt>
      <trkpt lat="43.56071" lon="6.43331">
        <ele>304.88</ele>
        <time>2015-09-26T14:21:49Z</time>
      </trkpt>
      <trkpt lat="43.5607" lon="6.43341">
        <ele>304.88</ele>
        <time>2015-09-26T14:21:56Z</time>
      </trkpt>
      <trkpt lat="43.56061" lon="6.43363">
        <ele>302.47</ele>
        <time>2015-09-26T14:22:11Z</time>
      </trkpt>
      <trkpt lat="43.5606" lon="6.43372">
        <ele>301.99</ele>
        <time>2015-09-26T14:22:22Z</time>
      </trkpt>
      <trkpt lat="43.56064" lon="6.43368">
        <ele>302.47</ele>
        <time>2015-09-26T14:22:36Z</time>
      </trkpt>
      <trkpt lat="43.56068" lon="6.43357">
        <ele>303.43</ele>
        <time>2015-09-26T14:22:55Z</time>
      </trkpt>
      <trkpt lat="43.56065" lon="6.43349">
        <ele>303.43</ele>
        <time>2015-09-26T14:23:14Z</time>
      </trkpt>
      <trkpt lat="43.56068" lon="6.43346">
        <ele>304.39</ele>
        <time>2015-09-26T14:23:32Z</time>
      </trkpt>
      <trkpt lat="43.56068" lon="6.4334">
        <ele>304.39</ele>
        <time>2015-09-26T14:23:47Z</time>
      </trkpt>
      <trkpt lat="43.56068" lon="6.43339">
        <ele>303.91</ele>
        <time>2015-09-26T14:24:15Z</time>
      </trkpt>
      <trkpt lat="43.56068" lon="6.4334">
        <ele>303.91</ele>
        <time>2015-09-26T14:24:40Z</time>
      </trkpt>
      <trkpt lat="43.56069" lon="6.4334">
        <ele>303.91</ele>
        <time>2015-09-26T14:25:18Z</time>
      </trkpt>
      <trkpt lat="43.56065" lon="6.43347">
        <ele>302.47</ele>
        <time>2015-09-26T14:25:39Z</time>
      </trkpt>
      <trkpt lat="43.56062" lon="6.43356">
        <ele>301.51</ele>
        <time>2015-09-26T14:25:46Z</time>
      </trkpt>
      <trkpt lat="43.5606" lon="6.43363">
        <ele>301.03</ele>
        <time>2015-09-26T14:25:51Z</time>
      </trkpt>
      <trkpt lat="43.56052" lon="6.43382">
        <ele>300.55</ele>
        <time>2015-09-26T14:26:04Z</time>
      </trkpt>
      <trkpt lat="43.56044" lon="6.43392">
        <ele>300.55</ele>
        <time>2015-09-26T14:26:15Z</time>
      </trkpt>
      <trkpt lat="43.56035" lon="6.43392">
        <ele>300.55</ele>
        <time>2015-09-26T14:26:24Z</time>
      </trkpt>
      <trkpt lat="43.56019" lon="6.4339">
        <ele>298.63</ele>
        <time>2015-09-26T14:26:40Z</time>
      </trkpt>
      <trkpt lat="43.56015" lon="6.4339">
        <ele>298.15</ele>
        <time>2015-09-26T14:26:43Z</time>
      </trkpt>
      <trkpt lat="43.55998" lon="6.43381">
        <ele>296.22</ele>
        <time>2015-09-26T14:26:58Z</time>
      </trkpt>
      <trkpt lat="43.55994" lon="6.43378">
        <ele>294.78</ele>
        <time>2015-09-26T14:27:04Z</time>
      </trkpt>
      <trkpt lat="43.55978" lon="6.43372">
        <ele>290.94</ele>
        <time>2015-09-26T14:27:17Z</time>
      </trkpt>
      <trkpt lat="43.55963" lon="6.43363">
        <ele>288.05</ele>
        <time>2015-09-26T14:27:29Z</time>
      </trkpt>
      <trkpt lat="43.55955" lon="6.43356">
        <ele>285.65</ele>
        <time>2015-09-26T14:27:38Z</time>
      </trkpt>
      <trkpt lat="43.5595" lon="6.43359">
        <ele>285.17</ele>
        <time>2015-09-26T14:27:41Z</time>
      </trkpt>
      <trkpt lat="43.55953" lon="6.43382">
        <ele>282.77</ele>
        <time>2015-09-26T14:27:54Z</time>
      </trkpt>
      <trkpt lat="43.55962" lon="6.434">
        <ele>281.32</ele>
        <time>2015-09-26T14:28:06Z</time>
      </trkpt>
      <trkpt lat="43.55965" lon="6.43418">
        <ele>279.88</ele>
        <time>2015-09-26T14:28:17Z</time>
      </trkpt>
      <trkpt lat="43.55965" lon="6.43421">
        <ele>279.4</ele>
        <time>2015-09-26T14:28:19Z</time>
      </trkpt>
      <trkpt lat="43.55958" lon="6.43434">
        <ele>276.52</ele>
        <time>2015-09-26T14:28:31Z</time>
      </trkpt>
      <trkpt lat="43.55951" lon="6.43457">
        <ele>273.63</ele>
        <time>2015-09-26T14:28:47Z</time>
      </trkpt>
      <trkpt lat="43.55949" lon="6.4347">
        <ele>272.19</ele>
        <time>2015-09-26T14:28:56Z</time>
      </trkpt>
      <trkpt lat="43.55943" lon="6.43462">
        <ele>271.23</ele>
        <time>2015-09-26T14:29:05Z</time>
      </trkpt>
      <trkpt lat="43.55943" lon="6.43441">
        <ele>270.75</ele>
        <time>2015-09-26T14:29:18Z</time>
      </trkpt>
      <trkpt lat="43.55939" lon="6.43419">
        <ele>268.35</ele>
        <time>2015-09-26T14:29:31Z</time>
      </trkpt>
      <trkpt lat="43.55934" lon="6.43409">
        <ele>266.42</ele>
        <time>2015-09-26T14:29:38Z</time>
      </trkpt>
      <trkpt lat="43.55926" lon="6.43404">
        <ele>265.46</ele>
        <time>2015-09-26T14:29:44Z</time>
      </trkpt>
      <trkpt lat="43.55919" lon="6.43404">
        <ele>264.02</ele>
        <time>2015-09-26T14:29:49Z</time>
      </trkpt>
      <trkpt lat="43.55896" lon="6.43399">
        <ele>262.1</ele>
        <time>2015-09-26T14:30:04Z</time>
      </trkpt>
      <trkpt lat="43.55895" lon="6.43381">
        <ele>259.69</ele>
        <time>2015-09-26T14:30:16Z</time>
      </trkpt>
      <trkpt lat="43.55893" lon="6.43357">
        <ele>256.81</ele>
        <time>2015-09-26T14:30:31Z</time>
      </trkpt>
      <trkpt lat="43.55886" lon="6.43335">
        <ele>253.44</ele>
        <time>2015-09-26T14:30:43Z</time>
      </trkpt>
      <trkpt lat="43.55883" lon="6.43322">
        <ele>252.48</ele>
        <time>2015-09-26T14:30:50Z</time>
      </trkpt>
      <trkpt lat="43.5588" lon="6.43313">
        <ele>252</ele>
        <time>2015-09-26T14:30:56Z</time>
      </trkpt>
      <trkpt lat="43.55878" lon="6.433">
        <ele>250.56</ele>
        <time>2015-09-26T14:31:03Z</time>
      </trkpt>
      <trkpt lat="43.55876" lon="6.43295">
        <ele>250.56</ele>
        <time>2015-09-26T14:31:07Z</time>
      </trkpt>
      <trkpt lat="43.55869" lon="6.43299">
        <ele>250.08</ele>
        <time>2015-09-26T14:31:17Z</time>
      </trkpt>
      <trkpt lat="43.55867" lon="6.43292">
        <ele>250.08</ele>
        <time>2015-09-26T14:31:21Z</time>
      </trkpt>
      <trkpt lat="43.55865" lon="6.43288">
        <ele>249.6</ele>
        <time>2015-09-26T14:31:23Z</time>
      </trkpt>
      <trkpt lat="43.55853" lon="6.43279">
        <ele>247.2</ele>
        <time>2015-09-26T14:31:33Z</time>
      </trkpt>
      <trkpt lat="43.55843" lon="6.43277">
        <ele>244.79</ele>
        <time>2015-09-26T14:31:42Z</time>
      </trkpt>
      <trkpt lat="43.5584" lon="6.4328">
        <ele>244.31</ele>
        <time>2015-09-26T14:31:45Z</time>
      </trkpt>
      <trkpt lat="43.55836" lon="6.43287">
        <ele>243.35</ele>
        <time>2015-09-26T14:31:49Z</time>
      </trkpt>
      <trkpt lat="43.55835" lon="6.43303">
        <ele>241.43</ele>
        <time>2015-09-26T14:31:58Z</time>
      </trkpt>
      <trkpt lat="43.55832" lon="6.43307">
        <ele>240.95</ele>
        <time>2015-09-26T14:32:02Z</time>
      </trkpt>
      <trkpt lat="43.5582" lon="6.43294">
        <ele>238.54</ele>
        <time>2015-09-26T14:32:18Z</time>
      </trkpt>
      <trkpt lat="43.55819" lon="6.43293">
        <ele>238.06</ele>
        <time>2015-09-26T14:32:19Z</time>
      </trkpt>
      <trkpt lat="43.55807" lon="6.43273">
        <ele>235.66</ele>
        <time>2015-09-26T14:32:34Z</time>
      </trkpt>
      <trkpt lat="43.55804" lon="6.43269">
        <ele>235.18</ele>
        <time>2015-09-26T14:32:37Z</time>
      </trkpt>
      <trkpt lat="43.55801" lon="6.43255">
        <ele>233.26</ele>
        <time>2015-09-26T14:32:46Z</time>
      </trkpt>
      <trkpt lat="43.55801" lon="6.43235">
        <ele>231.81</ele>
        <time>2015-09-26T14:32:59Z</time>
      </trkpt>
      <trkpt lat="43.55802" lon="6.43229">
        <ele>231.81</ele>
        <time>2015-09-26T14:33:15Z</time>
      </trkpt>
      <trkpt lat="43.55803" lon="6.43229">
        <ele>230.85</ele>
        <time>2015-09-26T14:33:23Z</time>
      </trkpt>
    </trkseg>
  </trk>
</gpx>